[[{"header":{"parameterUnit":"m.s-1","parameterCategory":1,"la1":30.6,"la2":29.2853,"lo1":-89.7004,"lo2":-87.6739,"dy":0.0162,"dx":0.0183,"nx":112,"ny":82,"refTime":"2023-08-25T12:00:00:Z","depth":0,"parameterNumber":2,"parameterNumberName":"U-component_of_WINDS"},"data":[0.0,0.0,0.0,0.0,0.0,0.0,0.0,0.0,0.0,0.0,0.0,0.0,0.0,0.0,0.0,0.0,0.0,0.0,0.0,0.0,0.0,0.0,0.0,0.0,0.0,0.0,0.0,0.0,0.0,0.0,0.0,0.0,0.0,0.0,0.0,0.0,0.0,0.0,0.0,0.0,0.0,0.0,0.0,0.0,0.0,0.0,0.0,0.0,0.0,0.0,0.0,0.0,0.0,0.0,0.0,0.0,0.0,0.0,0.0,0.0,0.0,0.0,0.0,0.0,0.0,0.0,0.0,0.0,0.0,0.0,0.0,0.0,0.0,0.0,0.0,0.0,0.0,0.0,0.0,0.0,0.0,0.0,0.0,0.0,0.0,0.0,0.0,0.0,0.0,0.0,-0.6002,-0.9398,-1.1317,-1.2213,-1.1794,-1.2034,-1.1923,-1.1313,0.0,0.0,0.0,0.0,0.0,0.0,0.0,0.0,0.0,0.0,0.0,0.0,0.0,0.0,0.0,0.0,0.0,0.0,0.0,0.0,0.0,0.0,0.0,0.0,0.0,0.0,0.0,0.0,0.0,0.0,0.0,0.0,0.0,0.0,0.0,0.0,0.0,0.0,0.0,0.0,0.0,0.0,0.0,0.0,0.0,0.0,0.0,0.0,0.0,0.0,0.0,0.0,0.0,0.0,0.0,0.0,0.0,0.0,0.0,0.0,0.0,0.0,0.0,0.0,0.0,0.0,0.0,0.0,0.0,0.0,0.0,0.0,0.0,0.0,0.0,0.0,0.0,0.0,0.0,0.0,0.0,0.0,0.0,0.0,0.0,0.0,0.0,0.0,0.0,0.0,0.0,0.0,0.0,0.0,0.0,0.0,0.0,0.0,0.0,0.0,0.0,0.0,0.0,0.0,-0.68,-0.9722,-1.0266,-1.0873,-1.2014,-1.1665,-1.1521,-1.1926,0.0,0.0,0.0,0.0,0.0,0.0,0.0,0.0,0.0,0.0,0.0,0.0,0.0,0.0,0.0,0.0,0.0,0.0,0.0,0.0,0.0,0.0,0.0,0.0,0.0,0.0,0.0,0.0,0.0,0.0,0.0,0.0,0.0,0.0,0.0,0.0,0.0,0.0,0.0,0.0,0.0,0.0,0.0,0.0,0.0,0.0,0.0,0.0,0.0,0.0,0.0,0.0,0.0,0.0,0.0,0.0,0.0,0.0,0.0,0.0,0.0,0.0,0.0,0.0,0.0,0.0,0.0,0.0,0.0,0.0,0.0,0.0,0.0,0.0,0.0,0.0,0.0,0.0,0.0,0.0,0.0,0.0,0.0,0.0,0.0,0.0,0.0,0.0,0.0,0.0,0.0,0.0,0.0,0.0,0.0,0.0,0.0,0.0,0.0,0.0,0.0,0.0,0.0,-0.6556,-0.8639,-0.9831,-1.049,-1.1283,-1.2266,-1.2052,-1.1836,-1.1773,-1.0119,0.0,0.0,0.0,0.0,0.0,0.0,0.0,0.0,0.0,0.0,0.0,0.0,0.0,0.0,0.0,0.0,0.0,0.0,0.0,0.0,0.0,0.0,0.0,0.0,0.0,0.0,0.0,0.0,0.0,0.0,0.0,0.0,0.0,0.0,0.0,0.0,0.0,0.0,0.0,0.0,0.0,0.0,0.0,0.0,0.0,0.0,0.0,0.0,0.0,0.0,0.0,0.0,0.0,0.0,0.0,0.0,0.0,0.0,0.0,0.0,0.0,0.0,0.0,0.0,0.0,0.0,0.0,0.0,0.0,0.0,0.0,0.0,0.0,0.0,0.0,0.0,0.0,0.0,0.0,0.0,0.0,0.0,0.0,0.0,0.0,0.0,0.0,0.0,0.0,0.0,0.0,0.0,0.0,0.0,0.0,0.0,0.0,0.0,0.0,0.0,0.0,0.0,-0.7957,-0.9957,-1.0054,-1.0922,-1.1774,-1.2489,-1.212,-1.1719,-1.1472,-1.0101,0.0,0.0,0.0,0.0,0.0,0.0,0.0,0.0,0.0,0.0,0.0,0.0,0.0,0.0,0.0,0.0,0.0,0.0,0.0,0.0,0.0,0.0,0.0,0.0,0.0,0.0,0.0,0.0,0.0,0.0,0.0,0.0,0.0,0.0,0.0,0.0,0.0,0.0,0.0,0.0,0.0,0.0,0.0,0.0,0.0,0.0,0.0,0.0,0.0,0.0,0.0,0.0,0.0,0.0,0.0,0.0,0.0,0.0,0.0,0.0,0.0,0.0,0.0,0.0,0.0,0.0,0.0,0.0,0.0,0.0,0.0,0.0,0.0,0.0,0.0,0.0,0.0,0.0,0.0,0.0,0.0,0.0,0.0,0.0,0.0,0.0,0.0,0.0,0.0,0.0,0.0,0.0,0.0,0.0,0.0,0.0,0.0,0.0,0.0,0.0,0.0,0.0,-0.8379,-0.9802,-1.0715,-1.1064,-1.1583,-1.2531,-1.1092,-1.0536,-1.1338,-0.9919,0.0,0.0,0.0,0.0,0.0,0.0,0.0,0.0,0.0,0.0,0.0,0.0,0.0,0.0,0.0,0.0,0.0,0.0,0.0,0.0,0.0,0.0,0.0,0.0,0.0,0.0,0.0,0.0,0.0,0.0,0.0,0.0,0.0,0.0,0.0,0.0,0.0,0.0,0.0,0.0,0.0,0.0,0.0,0.0,0.0,0.0,0.0,0.0,0.0,0.0,0.0,0.0,0.0,0.0,0.0,0.0,0.0,0.0,0.0,0.0,0.0,0.0,0.0,0.0,0.0,0.0,0.0,0.0,0.0,0.0,0.0,0.0,0.0,0.0,0.0,0.0,0.0,0.0,0.0,0.0,0.0,0.0,0.0,0.0,0.0,0.0,0.0,0.0,0.0,0.0,0.0,0.0,0.0,0.0,0.0,0.0,0.0,0.0,0.0,0.0,0.0,0.0,-0.8079,-0.9086,-1.0272,-1.0765,-1.1225,-1.1785,-1.1643,-1.1384,-1.1123,0.0,0.0,0.0,0.0,0.0,0.0,0.0,0.0,0.0,0.0,0.0,0.0,0.0,0.0,0.0,0.0,0.0,0.0,0.0,0.0,0.0,0.0,0.0,0.0,0.0,0.0,0.0,0.0,0.0,0.0,0.0,0.0,0.0,0.0,0.0,0.0,0.0,0.0,0.0,0.0,0.0,0.0,0.0,0.0,0.0,0.0,0.0,0.0,0.0,0.0,0.0,0.0,0.0,0.0,0.0,0.0,0.0,0.0,0.0,0.0,0.0,0.0,0.0,0.0,0.0,0.0,0.0,0.0,0.0,0.0,0.0,0.0,0.0,0.0,0.0,0.0,0.0,0.0,0.0,0.0,0.0,0.0,0.0,0.0,0.0,0.0,0.0,0.0,0.0,0.0,0.0,0.0,0.0,0.0,0.0,0.0,0.0,0.0,0.0,0.0,0.0,0.0,-0.7757,-0.8516,-0.9408,-1.0454,-1.1108,-1.1625,-1.1957,-1.2068,-1.1813,-1.1123,0.0,0.0,0.0,0.0,0.0,0.0,0.0,0.0,0.0,0.0,0.0,0.0,0.0,0.0,0.0,0.0,0.0,0.0,0.0,0.0,0.0,0.0,0.0,0.0,0.0,0.0,0.0,0.0,0.0,0.0,0.0,0.0,0.0,0.0,0.0,0.0,0.0,0.0,0.0,0.0,0.0,0.0,0.0,0.0,0.0,0.0,0.0,0.0,0.0,0.0,0.0,0.0,0.0,0.0,0.0,0.0,0.0,0.0,0.0,0.0,0.0,0.0,0.0,0.0,0.0,0.0,0.0,0.0,0.0,0.0,0.0,0.0,0.0,0.0,0.0,0.0,0.0,0.0,0.0,0.0,0.0,0.0,0.0,0.0,0.0,0.0,0.0,0.0,0.0,0.0,0.0,0.0,0.0,0.0,0.0,0.0,0.0,0.0,0.0,0.0,0.0,0.0,-0.8481,-0.9884,-1.0935,-1.1513,-1.2246,-1.2803,-1.3151,-1.2145,-1.1486,0.0,0.0,0.0,0.0,0.0,0.0,0.0,0.0,0.0,0.0,0.0,0.0,0.0,0.0,0.0,0.0,0.0,0.0,0.0,0.0,0.0,0.0,0.0,0.0,0.0,0.0,0.0,0.0,0.0,0.0,0.0,0.0,0.0,0.0,0.0,0.0,0.0,0.0,0.0,0.0,0.0,0.0,0.0,0.0,0.0,0.0,0.0,0.0,0.0,0.0,0.0,0.0,0.0,0.0,0.0,0.0,0.0,0.0,0.0,0.0,0.0,0.0,0.0,0.0,0.0,0.0,0.0,0.0,0.0,0.0,0.0,0.0,0.0,0.0,0.0,0.0,0.0,0.0,0.0,0.0,0.0,0.0,0.0,0.0,0.0,0.0,0.0,0.0,0.0,0.0,0.0,0.0,0.0,0.0,0.0,0.0,0.0,0.0,0.0,0.0,0.0,0.0,0.0,-0.9084,-1.0067,-1.071,-1.0684,-1.1131,-1.1445,-1.1511,-1.1757,-1.1694,-1.1175,0.0,0.0,0.0,0.0,0.0,0.0,0.0,0.0,0.0,0.0,0.0,0.0,0.0,0.0,0.0,0.0,0.0,0.0,0.0,0.0,0.0,0.0,0.0,0.0,0.0,0.0,0.0,0.0,0.0,0.0,0.0,0.0,0.0,0.0,0.0,0.0,0.0,0.0,0.0,0.0,0.0,0.0,0.0,0.0,0.0,0.0,0.0,0.0,0.0,0.0,0.0,0.0,0.0,0.0,0.0,0.0,0.0,0.0,0.0,0.0,0.0,0.0,0.0,0.0,0.0,0.0,0.0,0.0,0.0,0.0,0.0,0.0,0.0,0.0,0.0,0.0,0.0,0.0,0.0,0.0,0.0,0.0,0.0,0.0,0.0,0.0,0.0,0.0,0.0,0.0,0.0,0.0,0.0,0.0,0.0,0.0,0.0,0.0,0.0,0.0,0.0,0.0,-0.9437,-1.0441,-1.1148,-1.108,-1.1385,-1.157,-1.1443,-1.1967,-1.1914,-1.106,0.0,0.0,0.0,0.0,0.0,0.0,0.0,0.0,0.0,0.0,0.0,0.0,0.0,0.0,0.0,0.0,0.0,0.0,0.0,0.0,0.0,0.0,0.0,0.0,0.0,0.0,0.0,0.0,0.0,0.0,0.0,0.0,0.0,0.0,0.0,0.0,0.0,0.0,0.0,0.0,0.0,0.0,0.0,0.0,0.0,0.0,0.0,0.0,0.0,0.0,0.0,0.0,0.0,0.0,0.0,0.0,0.0,0.0,0.0,0.0,0.0,0.0,0.0,0.0,0.0,0.0,0.0,0.0,0.0,0.0,0.0,0.0,0.0,0.0,0.0,0.0,0.0,0.0,0.0,0.0,0.0,0.0,0.0,0.0,0.0,0.0,0.0,0.0,0.0,0.0,0.0,0.0,0.0,0.0,0.0,0.0,0.0,0.0,0.0,0.0,0.0,0.0,-0.958,-1.0966,-1.2027,-1.206,-1.2365,-1.2494,-1.2228,-1.2342,-1.2045,-1.1077,0.0,0.0,0.0,0.0,0.0,0.0,0.0,0.0,0.0,0.0,0.0,0.0,0.0,0.0,0.0,0.0,0.0,0.0,0.0,0.0,0.0,0.0,0.0,0.0,0.0,0.0,0.0,0.0,0.0,0.0,0.0,0.0,0.0,0.0,0.0,0.0,0.0,0.0,0.0,0.0,0.0,0.0,0.0,0.0,0.0,0.0,0.0,0.0,0.0,0.0,0.0,0.0,0.0,0.0,0.0,0.0,0.0,0.0,0.0,0.0,1.6122,1.632,0.0,0.0,0.0,0.0,0.0,0.0,0.0,0.0,0.0,0.0,0.0,0.0,0.0,0.0,0.0,0.0,0.0,0.0,0.0,0.0,0.0,0.0,0.0,0.0,0.0,0.0,0.0,0.0,0.0,0.0,0.0,0.0,0.0,0.0,0.0,0.0,0.0,0.0,0.0,0.0,-0.9677,-1.15,-1.2384,-1.1222,-1.1463,-1.1392,-1.0736,-1.1126,-1.1337,-1.116,-1.098,0.0,0.0,0.0,0.0,0.0,0.0,0.0,0.0,0.0,0.0,0.0,0.0,0.0,0.0,0.0,0.0,0.0,0.0,0.0,0.0,0.0,0.0,0.0,0.0,0.0,0.0,0.0,0.0,0.0,0.0,0.0,0.0,0.0,0.0,0.0,0.0,0.0,0.0,0.0,0.0,0.0,0.0,0.0,0.0,0.0,0.0,0.0,0.0,0.0,0.0,0.0,0.0,0.0,0.0,0.0,0.0,0.0,0.0,0.0,1.7219,1.6961,0.0,0.0,0.0,0.0,0.0,0.0,0.0,0.0,0.0,0.0,0.0,0.0,0.0,0.0,0.0,0.0,0.0,0.0,0.0,0.0,0.0,0.0,0.0,0.0,0.0,0.0,0.0,0.0,0.0,0.0,0.0,0.0,0.0,0.0,0.0,0.0,0.0,0.0,0.0,0.0,-1.0327,-1.201,-1.2947,-1.2013,-1.1861,-1.1608,-1.1007,-1.1025,-1.0963,-1.0834,-1.1102,0.0,0.0,0.0,0.0,0.0,0.0,0.0,0.0,0.0,0.0,0.0,0.0,0.0,0.0,0.0,0.0,0.0,0.0,0.0,0.0,0.0,0.0,0.0,0.0,0.0,0.0,0.0,0.0,0.0,0.0,0.0,0.0,0.0,0.0,0.0,0.0,0.0,0.0,0.0,0.0,0.0,0.0,0.0,0.0,0.0,0.0,0.0,0.0,0.0,0.0,0.0,0.0,0.0,1.9638,1.9517,2.0322,1.9773,1.8949,1.7959,1.7816,1.7111,1.5914,1.393,0.0,0.0,0.0,0.0,0.0,0.0,0.0,0.0,0.0,0.0,0.0,0.0,0.0,0.0,0.0,0.0,0.0,0.0,0.0,0.0,0.0,0.0,-1.7352,-1.9075,-1.9284,-1.892,-1.8345,0.0,0.0,0.0,0.0,0.0,0.0,0.0,0.0,0.0,0.0,0.0,-1.1335,-1.2564,-1.3357,-1.3163,-1.2589,-1.2084,-1.1724,-1.1206,-1.0821,-1.0596,-1.1174,-1.1527,0.0,0.0,0.0,0.0,0.0,0.0,0.0,0.0,0.0,0.0,0.0,0.0,0.0,0.0,0.0,0.0,0.0,0.0,0.0,0.0,0.0,0.0,0.0,0.0,0.0,0.0,0.0,0.0,0.0,0.0,0.0,0.0,1.5245,1.5854,0.0,0.0,0.0,0.0,0.0,0.0,0.0,0.0,0.0,0.0,0.0,0.0,0.0,1.4677,0.7201,1.5046,1.8929,1.8843,1.9084,1.9628,2.0411,2.0621,1.5694,0.7516,1.6992,0.0,0.8403,-0.1855,0.0,0.0,0.0,0.0,0.0,0.0,0.0,0.0,0.0,0.0,0.0,0.0,0.0,0.0,0.0,0.0,0.0,0.0,0.0,0.0,0.0,0.0,-2.0753,-2.1239,-2.1412,-2.1169,-2.0112,-1.8903,-1.7646,-1.6451,-1.5638,-1.4745,0.0,0.0,0.0,0.0,0.0,0.0,-1.2739,-1.3116,-1.3263,-1.3357,-1.2526,-1.1757,-1.1328,-1.0834,-1.0765,-1.1242,-1.1778,-1.226,-1.2659,-1.2864,0.0,0.0,0.0,0.0,0.0,0.0,0.0,0.0,0.0,0.0,0.0,0.0,0.0,0.0,0.0,0.0,0.0,0.0,0.0,0.0,0.0,0.0,0.0,0.0,0.0,0.0,0.0,0.0,0.0,1.6107,1.6728,1.8186,1.8871,1.9012,0.0,0.0,0.0,0.0,0.0,0.0,0.0,0.0,0.0,1.2333,1.6754,1.7378,1.3665,1.7851,2.006,2.0084,2.0365,1.7169,1.1314,1.8672,1.2279,-0.4199,0.2371,-0.0258,-0.8707,-0.2461,-0.2636,-0.6819,0.0,0.0,0.0,0.0,-1.7267,-1.7719,-2.5159,-2.7229,-2.6341,-2.4635,0.0,0.0,0.0,0.0,0.0,0.0,0.0,-1.9171,-1.9742,-2.0168,-2.0388,-2.0274,-2.0727,-2.1026,-2.034,-1.9749,-1.8879,-1.7276,-1.6664,-1.5728,-1.3592,-1.2891,0.0,0.0,0.0,-1.2903,-1.3578,-1.3908,-1.4094,-1.4094,-1.3181,-1.2459,-1.2239,-1.1911,-1.1682,-1.1575,-1.2605,-1.3043,-1.2642,-1.3353,-1.365,0.0,0.0,0.0,0.0,0.0,0.0,0.0,0.0,0.0,0.0,0.0,0.0,0.0,0.0,0.0,0.0,0.0,0.0,0.0,0.0,0.0,0.0,0.0,0.0,0.0,0.0,0.0,0.0,1.7455,1.7996,1.9688,1.9949,1.9602,0.0,0.0,0.0,0.0,0.0,0.0,1.7405,1.2501,1.1288,1.5287,1.5829,1.6507,1.7285,1.4072,1.4003,1.714,1.422,0.8293,0.0318,1.0058,0.3508,-1.5356,-1.0003,-1.5112,-2.5933,-1.034,-0.8093,-1.4382,-1.4178,-1.3938,-1.4462,-2.0879,-2.2521,-2.2534,-2.9483,-3.1313,-3.0272,-2.8728,-2.7734,-2.6649,-2.4085,0.0,0.0,0.0,0.0,-2.0726,-2.0543,-2.0486,-2.0387,-1.999,-2.0484,-2.091,-2.0436,-2.0399,-1.9866,-1.8055,-1.7585,-1.6739,-1.4312,-1.3677,0.0,-1.2469,-1.3098,-1.3822,-1.4285,-1.4492,-1.4594,-1.4598,-1.369,-1.3055,-1.301,-1.2777,-1.2416,-1.1939,-1.3207,-1.3572,-1.2701,-1.3699,-1.407,-1.3655,0.0,0.0,0.0,0.0,0.0,0.0,0.0,0.0,0.0,0.0,0.0,0.0,0.0,0.0,0.0,0.0,0.0,0.0,0.0,0.0,0.0,0.0,0.0,0.0,0.0,0.0,0.0,0.0,0.0,1.9015,1.9382,0.0,0.0,0.0,0.0,1.7499,1.885,1.9425,1.8701,1.9479,1.6239,0.8076,0.6473,0.674,0.8914,-0.3918,-0.4884,0.5758,-0.5457,-1.0622,-1.0278,-0.8681,-1.4469,-2.5121,-1.3182,-2.0033,-3.9506,-3.6867,-3.5184,-3.4266,-3.4375,-3.4015,-3.3422,-3.3199,-3.2645,-3.2075,-3.2281,-3.2335,-3.2162,-3.1485,-2.9688,-2.7648,-2.7031,-2.5592,0.0,0.0,-2.4283,-2.3454,-2.3594,-2.3107,-2.2471,-2.2137,-2.1979,-2.1685,-2.0841,-2.0443,-1.9934,-1.8932,-1.8443,-1.7729,-1.6056,0.0,-1.4769,-1.4648,-1.3668,-1.3523,-1.5113,-1.4573,-1.4166,-1.4479,-1.3644,-1.3059,-1.301,-1.2644,-1.2424,-1.2469,-1.3359,-1.3752,-1.3372,-1.4084,-1.4634,-1.4913,-1.4052,0.0,0.0,0.0,0.0,0.0,0.0,0.0,0.0,0.0,0.0,0.0,0.0,0.0,0.0,0.0,0.0,0.0,0.0,0.0,0.0,0.0,0.0,0.0,0.0,0.0,0.0,0.0,0.0,1.9458,0.9603,0.0,1.8964,1.4737,1.361,1.922,0.8382,0.3931,0.9522,-0.1427,-0.6603,-0.3844,-0.4403,-0.4021,-0.2606,-0.8289,-0.8921,-0.4618,-0.9041,-1.5018,-2.1901,-1.347,-2.0147,-3.7621,-2.4677,-2.7833,-4.1969,-4.0698,-3.8962,-3.7065,-3.6445,-3.6056,-3.5742,-3.5123,-3.4615,-3.4144,-3.3611,-3.3252,-3.2894,-3.1962,-3.0038,-2.8126,-2.8014,-2.6598,-2.5093,-2.5425,-2.4589,-2.3554,-2.3044,-2.2552,-2.19,-2.11,-2.1464,-2.1666,-2.0484,-2.0368,-2.0119,-1.9042,-1.8229,-1.7182,-1.5419,-1.5299,-1.5072,-1.4059,-1.4242,-1.4746,-1.5438,-1.5133,-1.4884,-1.4954,-1.4299,-1.3802,-1.3661,-1.3868,-1.379,-1.33,-1.4327,-1.4645,-1.4056,-1.4669,-1.4935,-1.4752,-1.4355,-1.4012,0.0,0.0,0.0,0.0,0.0,0.0,0.0,0.0,0.0,0.0,0.0,0.0,0.0,0.0,0.0,0.0,0.0,0.0,0.0,0.0,0.0,0.0,0.0,0.0,0.0,-0.0,-0.3143,1.0057,-0.035,-0.3565,0.9261,0.4664,0.3425,0.9653,-0.1975,-0.6753,-0.0755,-1.2088,-1.6152,-1.0377,-1.3602,-1.3429,-0.9278,-1.769,-1.9956,-1.6101,-2.0221,-2.6322,-3.3574,-2.4996,-2.9695,-4.4131,-3.5028,-3.5634,-4.2921,-4.1741,-4.0362,-3.9013,-3.8108,-3.7552,-3.7192,-3.6658,-3.6328,-3.6056,-3.554,-3.4754,-3.3853,-3.2856,-3.1281,-2.9685,-2.9315,-2.8183,-2.6929,-2.6574,-2.5464,-2.4211,-2.3402,-2.2726,-2.2008,-2.1147,-2.1612,-2.1917,-2.0589,-2.0441,-2.0204,-1.9084,-1.8138,-1.7023,-1.556,-1.5541,-1.5296,-1.4125,-1.4612,-1.5156,-1.5319,-1.5202,-1.5051,-1.4944,-1.4577,-1.4205,-1.3911,-1.4228,-1.4274,-1.3838,-1.4428,-1.4702,-1.4486,-1.479,-1.4873,-1.4672,-1.4573,-1.4539,-1.453,0.0,0.0,0.0,0.0,0.0,0.0,0.0,0.0,0.0,0.0,0.0,0.0,0.0,0.0,0.0,0.0,0.0,0.0,0.0,0.0,0.0,0.0,0.0,-0.8079,-0.7103,-0.7809,-0.9004,-0.9848,-1.0406,-1.0646,-1.1113,-1.1254,-1.0975,-1.0601,-1.068,-1.1358,-1.0611,-1.0646,-1.1743,-2.1303,-2.1633,-1.1561,-3.314,-3.8846,-2.8747,-4.0019,-4.5185,-4.4781,-4.3929,-4.3755,-4.4053,-4.3101,-4.2908,-4.3228,-4.1791,-4.1283,-4.1389,-4.0727,-3.9932,-3.9068,-3.8623,-3.8408,-3.8307,-3.8023,-3.6765,-3.5098,-3.4368,-3.3484,-3.243,-3.1094,-3.0433,-2.9847,-2.8504,-2.7036,-2.5654,-2.4994,-2.4003,-2.2977,-2.2437,-2.2512,-2.2386,-2.1279,-2.0678,-2.0133,-1.928,-1.8358,-1.7435,-1.6628,-1.6078,-1.5559,-1.5057,-1.4704,0.0,-1.4763,-1.4746,-1.4651,-1.4456,-1.4456,-1.4241,-1.3714,-1.3645,-1.375,-1.4041,-1.3662,-1.381,-1.4603,-1.4457,-1.4486,-1.4825,-1.4861,-1.5388,-1.6429,0.0,0.0,0.0,0.0,0.0,0.0,0.0,0.0,0.0,0.0,0.0,0.0,0.0,0.0,0.0,0.0,0.0,0.0,0.0,0.0,0.0,-1.9328,-1.8022,-0.9547,-2.0029,-2.3905,-1.1243,-2.2219,-2.5195,-1.0982,-1.5837,-1.7125,-1.0629,-1.7148,-2.1792,-2.2597,-2.9203,-3.3128,-3.3492,-3.6723,-3.6797,-3.3353,-4.115,-4.3369,-4.0024,-4.3311,-4.4966,-4.5074,-4.4537,-4.4361,-4.4449,-4.4177,-4.4005,-4.3912,-4.3264,-4.277,-4.2304,-4.0436,-3.9644,-3.9578,-3.9341,-3.8602,-3.7619,-3.6706,-3.607,-3.5538,-3.4985,-3.3815,-3.2529,-3.1922,-3.0464,-2.8918,-2.8605,-2.7491,-2.6213,-2.5449,-2.4673,-2.3841,-2.2853,-2.2649,-2.256,-2.1992,-2.091,-1.9956,-1.9617,-1.8476,-1.7317,-1.6557,-1.6126,-1.5685,-1.4972,-1.4837,-1.4825,-1.4871,-1.4871,-1.4945,-1.5249,-1.5272,-1.5221,-1.5045,-1.478,-1.477,-1.5154,-1.465,-1.4652,-1.5285,-1.5242,-1.5199,-1.5299,-1.6351,-1.6818,0.0,0.0,0.0,0.0,0.0,0.0,0.0,0.0,0.0,0.0,0.0,0.0,0.0,0.0,0.0,0.0,0.0,0.0,0.0,0.0,0.0,0.0,-2.8293,-2.7379,-2.3067,-3.1148,-3.3887,-2.3997,-3.2881,-3.5286,-2.3685,-2.7614,-2.8864,-2.3984,-2.9494,-3.3467,-3.43,-3.9879,-4.3214,-4.3595,-4.3651,-4.3636,-4.3548,-4.4434,-4.4862,-4.4833,-4.4846,-4.4929,-4.5023,-4.4751,-4.4587,-4.4458,-4.4402,-4.4151,-4.367,-4.3159,-4.2796,-4.2375,0.0,0.0,0.0,0.0,-3.9164,-3.7693,-3.7058,-3.652,-3.5999,-3.5235,-3.4319,-3.3307,-3.2544,-3.1146,-2.9769,-2.9154,-2.8,-2.6743,-2.5828,-2.4999,-2.4117,-2.2898,-2.2649,-2.25,-2.1801,-2.0765,-1.9828,-1.9437,-1.8493,0.0,-1.7023,-1.6507,-1.5883,-1.5077,-1.4948,-1.4949,-1.4949,-1.5114,-1.5393,-1.5778,-1.5913,-1.5955,-1.5853,-1.5659,0.0,0.0,0.0,-1.5667,-1.6305,-1.6084,0.0,0.0,0.0,-1.7423,-1.7486,-1.6995,0.0,0.0,-1.6265,-1.5618,0.0,0.0,0.0,0.0,0.0,0.0,0.0,0.0,0.0,0.0,0.0,0.0,0.0,0.0,0.0,0.0,-3.8296,-4.0316,-4.1316,-4.0042,-3.9483,-4.0757,-4.1116,-4.1302,-4.1377,-4.1569,-4.2029,-4.2891,-4.3165,-4.3624,-4.4338,-4.4442,0.0,0.0,0.0,-4.454,-4.5364,-4.4442,-4.4438,-4.5302,-4.5132,-4.4986,-4.4821,-4.4764,-4.4595,-4.4365,-4.4162,-4.374,-4.3069,-4.2394,-4.206,-4.1987,-4.221,-4.1941,-4.1391,-4.1001,-3.9726,-3.8259,-3.8162,0.0,0.0,-3.5245,-3.4756,-3.4312,-3.2886,-3.2118,-3.1355,-2.9804,-2.843,-2.7196,-2.6122,-2.5091,-2.4011,-2.2838,-2.2603,-2.2355,-2.1157,-2.047,-1.9804,-1.9085,-1.844,-1.7948,-1.7747,-1.6989,-1.6172,-1.5428,-1.5175,-1.5082,-1.5113,-1.5524,-1.5948,-1.6264,-1.6479,0.0,-1.642,-1.6372,-1.652,-1.6831,-1.6675,-1.6812,-1.7372,-1.7061,-1.7255,-1.8082,-1.7624,-1.7762,-1.8501,-1.7311,-1.738,-1.8573,-1.716,-1.6271,0.0,0.0,0.0,0.0,0.0,0.0,0.0,0.0,0.0,0.0,0.0,0.0,0.0,0.0,0.0,-3.834,-4.0378,-4.2096,-4.3334,-4.3436,-4.325,-4.29,-4.2494,-4.25,-4.3206,-4.2869,-4.2966,-4.379,-4.394,-4.4107,-4.4295,-4.4278,-4.372,-4.2595,-4.2958,-4.3267,-4.3434,-4.3712,-4.4317,-4.5302,-4.4948,0.0,-4.5033,-4.4846,-4.4745,-4.4674,-4.427,-4.4046,-4.3912,-4.3137,-4.2375,-4.177,-4.1762,-4.1675,-4.1472,-4.078,-3.9712,-3.8553,-3.7524,-3.6508,-3.5525,-3.5051,-3.4398,-3.3689,-3.3047,-3.2043,0.0,-2.9891,-2.8645,-2.741,-2.6503,-2.5409,-2.4238,-2.308,-2.2723,-2.2338,-2.1307,-2.0634,-2.0034,-1.9294,-1.8642,-1.8187,-1.7988,-1.7176,-1.6452,-1.6044,-1.5845,-1.573,-1.5734,-1.6208,-1.6788,-1.7334,-1.7454,-1.7505,-1.7646,-1.715,-1.7144,-1.7788,-1.7729,-1.7761,-1.793,-1.8353,-1.8412,-1.8113,-1.9111,-1.9518,-1.9198,-1.8408,-1.8264,-1.8647,-1.7243,-1.6833,0.0,0.0,0.0,0.0,0.0,0.0,0.0,0.0,0.0,0.0,0.0,-3.0999,-3.6035,0.0,-3.9594,-4.1706,-4.3234,-4.4202,-4.4374,-4.5014,-4.4903,-4.345,-4.3145,-4.3274,-4.3668,-4.349,-4.3671,-4.4491,-4.4609,-4.4479,-4.4077,-4.4078,-4.3522,-4.2295,-4.2603,-4.2986,-4.3407,-4.3706,-4.4293,-4.5197,-4.5038,-4.4991,-4.5103,-4.4895,-4.47,-4.4522,-4.4106,-4.3767,-4.3422,-4.277,-4.2151,-4.1657,-4.1587,-4.1426,-4.11,-4.0864,-4.0273,-3.9397,-3.8528,-3.7343,-3.6154,-3.5359,-3.497,-3.4444,-3.3217,-3.2626,-3.2036,-3.0522,-2.9392,-2.8257,-2.6686,-2.5743,-2.4822,-2.3257,-2.2678,-2.2246,-2.1397,-2.0721,-2.0091,-1.9336,-1.8897,-1.8606,-1.8436,-1.7828,-1.722,-1.6734,-1.6403,-1.6233,-1.6253,-1.6754,-1.7247,-1.7667,-1.7866,-1.8087,-1.8312,-1.8245,-1.8425,-1.8906,-1.8703,-1.8738,-1.9173,-1.9055,-1.9022,-1.9107,-1.951,-1.9439,-1.8904,-1.8237,-1.7782,-1.7578,-1.6912,-1.6828,0.0,0.0,0.0,0.0,0.0,0.0,0.0,-2.8547,-3.3573,-3.5577,-3.7703,-3.9883,-4.219,-4.28,-4.341,-4.4858,-4.5821,-4.6051,-4.5078,-4.5716,-4.5564,-4.3713,-4.3793,-4.4075,-4.4156,-4.4129,-4.4407,-4.5049,-4.5151,-4.4693,-4.3643,-4.3994,-4.3595,-4.2195,-4.2465,-4.2884,-4.3335,-4.3526,-4.3996,-4.4786,-4.5026,-4.5103,-4.5033,-4.4846,-4.4595,-4.4202,-4.3717,-4.3123,-4.2476,-4.2139,-4.1841,-4.1648,-4.1648,-4.1318,-4.0918,-4.1209,-4.0874,-4.0161,-3.9637,-3.8263,-3.667,-3.582,-3.5544,-3.5202,-3.3528,-3.3375,-3.3297,-3.1265,-3.0064,-2.8896,-2.6917,-2.5955,-2.5045,-2.3301,-2.2586,-2.2154,-2.1443,-2.0823,-2.0232,-1.9655,-1.9273,-1.9055,-1.895,-1.8483,-1.7956,-1.7362,-1.7054,-1.6888,-1.6853,-1.7315,-1.7693,-1.7893,-1.8142,-1.845,-1.8736,-1.9045,-1.9381,-1.9752,-1.9338,-1.9412,-2.017,-1.9508,-1.9444,-2.003,-1.9409,-1.8912,-1.8516,-1.7801,-1.7186,-1.6705,-1.6633,-1.6649,-2.3163,-2.5153,-2.796,-2.9777,-3.1349,-3.3595,0.0,-3.8711,-3.892,-4.0632,-4.1882,-4.2994,-4.418,-4.5059,-4.5851,-4.6685,-4.6967,-4.6803,-4.5961,-4.6026,-4.5816,-4.4995,-4.508,-4.547,-4.611,-4.5607,-4.5266,-4.5419,-4.5457,-4.4672,-4.2908,-4.4246,-4.3571,-4.0312,-4.1658,-4.2113,-4.1419,-4.2139,-4.2867,-4.3687,-4.453,-4.487,-4.4745,-4.4719,-4.4439,-4.3912,-4.2886,-4.2262,-4.1909,-4.1823,-4.178,-4.178,-4.178,-4.1719,-4.1622,-4.177,-4.1069,-3.995,-3.9409,-3.7648,-3.5742,-3.6036,-3.537,-3.4415,-3.4252,-3.3842,-3.3172,-3.1854,-3.0228,-2.8607,-2.7411,-2.5786,-2.4189,-2.3018,-2.248,-2.2062,-2.1443,-2.1011,-2.0753,-2.0777,-2.0007,-1.9339,-1.9339,-1.8615,-1.8,-1.7928,-1.787,-1.7827,-1.7755,-1.82,-1.8559,-1.8612,-1.8514,-1.862,-1.9026,-1.8781,-1.8906,-1.9681,-1.9265,-1.9258,-1.9854,-1.9773,-1.9722,-1.9747,-1.939,-1.9091,-1.8931,-1.802,-1.7537,-1.7443,-1.6853,-1.6623,-3.1239,-3.2607,-3.4352,-3.6754,-3.8214,-3.9739,-4.2409,-4.2865,-4.3282,-4.519,-4.6202,-4.7027,-4.7953,-4.7586,-4.7196,-4.7461,-4.7333,-4.6873,-4.5969,-4.571,-4.5335,-4.45,-4.4592,-4.4957,-4.563,-4.4989,-4.4726,-4.5244,-4.4741,-4.4045,-4.3273,-4.2921,-4.2048,-4.0547,-4.1194,-4.1604,-4.1619,-4.2378,-4.3179,-4.396,-4.4353,-4.4568,-4.4578,-4.4269,-4.367,-4.2886,-4.2121,-4.1727,-4.156,-4.1209,-4.1318,-4.1542,-4.13,-4.1311,-4.1455,-4.1516,-4.1039,-4.0272,-3.9593,-3.8338,-3.6946,-3.6217,-3.5974,-3.5646,-3.4251,-3.4036,-3.3919,-3.2239,-3.0417,-2.8607,-2.733,-2.56,-2.3902,-2.2775,-2.231,-2.2021,-2.1861,-2.1581,-2.1269,-2.1075,-2.0822,-2.0454,-1.9956,-1.9168,-1.8621,-1.8547,-1.8157,-1.7855,-1.7855,-1.8061,-1.812,-1.7946,-1.8369,-1.8683,-1.8745,-1.9024,-1.9155,-1.9001,-1.9366,-1.95,-1.9275,-1.9566,-1.9762,-1.9884,-1.939,-1.8989,-1.8716,-1.7879,-1.7556,-1.7657,-1.7342,-1.72,-3.5015,-3.6699,-3.8632,-4.1003,-4.2648,-4.4035,-4.5514,-4.6057,-4.6778,-4.879,-4.9196,-4.9454,-5.0338,-4.8875,-4.7588,-4.7727,-4.7192,-4.6497,-4.5848,-4.5242,-4.4737,-4.4317,-4.379,-4.3809,-4.4671,-4.451,-4.4591,-4.5204,-4.4293,-4.3567,-4.3246,-4.2238,-4.1487,-4.1057,-4.1567,-4.2066,-4.253,-4.3081,-4.3631,-4.4143,-4.4221,-4.4269,-4.4248,-4.3572,-4.2737,-4.1853,-4.1356,-4.1163,-4.1134,-4.0741,-4.0931,-4.1408,-4.11,-4.1111,-4.1303,-4.123,-4.0908,-4.0466,-3.9732,-3.8752,-3.7557,-3.6507,-3.6157,-3.5826,-3.4202,-3.4136,-3.4251,-3.2724,-3.0879,-2.901,-2.7701,-2.5812,-2.3963,-2.2861,-2.2297,-2.2137,-2.231,-2.2041,-2.1816,-2.1779,-2.1595,-2.1211,-2.0567,-1.9783,-1.9075,-1.8504,-1.8078,-1.7855,-1.7855,-1.7782,-1.7616,-1.7255,-1.8021,-1.8527,-1.8489,-1.9082,-1.9286,-1.8952,-1.9376,-1.9511,-1.914,-1.9486,-1.9687,-1.9662,-1.9116,-1.8606,-1.8144,-1.7472,-1.7352,-1.7657,-1.7657,-1.7657,-3.3899,-3.7621,-4.1977,-4.3439,-4.4979,-4.6826,-4.9582,-4.9458,-4.9312,-5.1124,-5.0107,-4.9201,-5.0126,-4.8248,-4.6787,-4.7586,-4.6488,-4.5619,-4.5846,-4.4662,-4.411,-4.5142,-4.3081,-4.2202,-4.3783,-4.4863,-4.5494,-4.5586,-4.4595,-4.3479,-4.2295,-4.2913,-4.2731,-4.1427,-4.3088,-4.3974,-4.3955,-4.3955,-4.3923,-4.3809,-4.3999,-4.3968,-4.3679,-4.2605,-4.1722,-4.1018,-4.0707,-4.0549,-4.0628,-4.0517,-4.0948,-4.1604,-4.1436,-4.1356,-4.1258,-4.1065,-4.0737,-4.0302,-3.98,-3.8245,-3.6623,-3.6949,-3.5556,-3.3896,-3.4333,-3.4134,-3.3694,-3.3351,-3.1774,-2.9929,-2.8809,-2.652,-2.424,-2.3307,-2.262,-2.2263,-2.2603,-2.2396,-2.2379,-2.3329,-2.2256,-2.1155,-2.1111,-2.0304,-1.9112,-1.7409,-1.7625,-1.8,-1.8,-1.7782,-1.7374,-1.6775,-1.7455,-1.8065,-1.8484,-1.8713,-1.9155,-1.9894,-1.9265,-1.9086,-1.9666,-1.9632,-1.937,-1.8865,-1.8431,-1.79,-1.7224,-1.6839,-1.6964,-1.7584,-1.7657,-1.7685,-3.8787,-4.2305,-4.5388,-4.7754,-4.9077,-5.0312,-5.2215,-5.1973,-5.1582,-5.242,-5.0605,-4.8699,-4.8159,-4.6136,-4.4568,-4.4513,-4.4621,-4.4777,-4.4963,-4.378,-4.3247,-4.4132,-4.3009,-4.2381,-4.2911,-4.2768,-4.3116,-4.4185,-4.2753,-4.2111,-4.2819,-4.2479,-4.2034,-4.1475,-4.2642,-4.3175,-4.2941,-4.2941,-4.2787,-4.2477,-4.214,-4.2352,-4.3059,-4.1884,-4.1188,-4.0896,-4.0517,-4.0436,-4.0517,-4.0436,-4.071,-4.1146,-4.0754,-4.0642,-4.0672,-4.0334,-3.9969,-3.9592,-3.9222,-3.8817,-3.8272,-3.6812,-3.6019,-3.5399,-3.4593,-3.3949,-3.3398,-3.3261,-3.1663,-2.9584,-2.8136,-2.6068,-2.4085,-2.3032,-2.248,-2.2356,-2.2844,-2.2907,-2.292,-2.2984,-2.277,-2.2408,-2.1742,-2.0551,-1.8955,-1.6723,-1.6684,-1.6895,-1.6828,-1.7087,-1.6964,-1.6101,-1.6958,-1.7782,-1.8311,-1.8365,-1.8444,-1.8672,-1.88,-1.8729,-1.8388,-1.9206,-1.9671,-1.9676,-1.8711,-1.8408,-1.8796,-1.7744,-1.7877,-1.9073,-1.9027,-1.8775,-4.3211,-4.6166,-4.8452,-5.1,-5.1756,-5.2183,-5.3473,-5.2883,-5.2067,-5.2139,-4.9433,-4.6735,-4.5761,-4.3372,-4.1644,-4.1938,-4.2352,-4.2844,-4.3463,-4.2403,-4.2056,-4.3455,-4.264,-4.2067,-4.2328,-4.1482,-4.1501,-4.2896,-4.1782,-4.1443,-4.2389,-4.247,-4.2483,-4.2553,-4.3823,-4.4202,-4.3501,-4.3536,-4.3066,-4.2123,-4.1689,-4.1725,-4.2111,-4.114,-4.059,-4.0337,-4.0104,-4.0138,-4.032,-4.0171,-4.05,-4.1036,-4.0466,-4.0302,-4.0351,-4.0053,-3.9662,-3.9206,-3.8817,-3.8623,-3.8226,-3.6434,-3.5671,-3.5315,-3.4341,-3.3658,-3.3187,-3.298,-3.1344,-2.9319,-2.7786,-2.5776,-2.39,-2.2999,-2.2526,-2.2495,-2.3038,-2.3319,-2.3286,-2.2828,-2.2869,-2.2629,-2.1756,-2.0335,-1.8679,-1.6837,-1.635,-1.6074,-1.5779,-1.6231,-1.6322,-1.5598,-1.6395,-1.7177,-1.7722,-1.8175,-1.84,-1.8336,-1.9099,-1.9346,-1.8841,-1.9411,-1.9748,-1.9817,-1.8561,-1.8113,-1.8525,-1.7644,-1.7987,-1.942,-1.9373,-1.9262,-4.6892,-4.9171,-5.1211,-5.312,-5.3056,-5.2689,-5.3452,-5.2342,-5.0954,-5.0284,-4.6643,-4.3415,0.0,-4.0045,-3.8311,-3.9973,-3.9984,-4.029,-4.175,-4.0828,-4.0877,-4.3284,-4.2108,-4.138,-4.2077,-4.1164,-4.0886,-4.1736,-4.1586,-4.1349,-4.1119,-4.2857,-4.3999,-4.4346,-4.6305,-4.6728,-4.5451,-4.5381,-4.4427,-4.2649,-4.2493,-4.1876,-4.0879,-4.0383,-3.9817,-3.9325,-3.9448,-3.9746,-4.007,-3.9885,-4.0368,-4.11,-4.0546,-4.0351,-4.0302,-4.0119,-3.9664,-3.904,-3.8554,-3.7633,-3.6612,-3.5841,-3.4751,-3.369,-3.3523,-3.3245,-3.2873,-3.2415,-3.0864,-2.9085,-2.785,-2.5763,-2.3881,-2.3266,-2.2824,-2.2692,-2.3187,-2.348,-2.3443,-2.2881,-2.2483,-2.1968,-2.1102,-1.9652,-1.8422,-1.7702,-1.6613,-1.5632,-1.4986,-1.5282,-1.5473,-1.5219,-1.5787,-1.6339,-1.6773,-1.8074,-1.8834,-1.883,-1.9912,-2.0595,-2.076,-2.0165,-1.9671,-1.9383,-1.8129,-1.7264,-1.6801,-1.677,-1.7476,-1.8819,-1.8819,-1.9167,-5.0167,-5.2761,-5.4393,-5.4814,-5.5004,-5.4658,-5.2862,-5.2067,-5.0787,-4.7498,-4.4017,-4.0828,-3.8483,-3.7497,-3.7287,-3.8041,-4.044,-4.2419,-4.3006,-4.2756,-4.2944,-4.418,-4.3356,-4.2731,-4.2763,-4.2366,-4.1661,-4.0581,-3.9736,-3.986,-4.1169,-4.2613,-4.3466,-4.3667,-4.5697,-4.5997,-4.4223,-4.2759,-4.2055,-4.2096,-4.0439,-4.0068,-4.078,-3.9651,-3.9276,-3.9448,-3.9379,-3.9556,-3.9885,-4.017,-4.0252,-4.0302,-4.0036,-3.98,-3.9439,-3.8612,-3.8183,-3.7838,-3.6819,-3.6865,-3.7073,-3.5626,-3.4743,-3.4038,-3.2923,-3.2123,-3.1389,-3.0654,-2.961,-2.839,-2.6963,-2.6105,-2.5261,-2.3751,-2.3478,-2.3545,-2.3467,-2.3509,-2.3344,-2.2703,-2.1904,-2.1032,-2.0191,-1.9672,-1.8945,-1.7759,-1.7323,-1.6564,-1.4973,-1.4983,-1.5136,-1.5072,-1.5475,-1.6054,-1.6804,-1.6818,-1.6984,-1.7532,-1.8163,-1.8631,-1.8827,-1.955,-2.0019,-2.0195,-1.9372,-1.9202,-1.9736,-1.923,-1.9435,-2.0257,-2.0257,-2.0099,-5.2225,-5.431,-5.535,-5.5304,-5.4816,-5.3536,-5.0533,-4.9342,-4.7596,-4.325,-3.9956,-3.7207,-3.5022,-3.4913,-3.5413,0.0,0.0,0.0,-4.2272,-4.2309,-4.269,0.0,-4.353,-4.3119,-4.2957,-4.2797,-4.2026,-4.0437,-4.0156,-4.0288,-4.0903,-4.3013,-4.396,-4.3577,-4.5461,-4.5567,-4.3691,-4.2026,-4.1297,-4.134,-4.0221,-3.9763,-3.9931,-3.8896,-3.8546,-3.8828,-3.8985,-3.9294,-3.9647,-4.0133,-4.0319,-4.0302,-3.9902,-3.9393,-3.8833,-3.7929,-3.7351,-3.6783,-3.5717,-3.5655,-3.5819,-3.4691,-3.3937,-3.3208,-3.2144,-3.1166,-3.0271,-2.9609,-2.8656,-2.7569,-2.6311,-2.5805,-2.5303,-2.3786,-2.375,-2.3829,-2.3286,-2.3344,-2.3183,-2.215,-2.0962,-2.0052,-1.9686,-1.9418,-1.8942,-1.8033,-1.7698,-1.6942,-1.5282,-1.5237,-1.5313,-1.5193,-1.5389,-1.5787,-1.6456,-1.6455,-1.6561,-1.7,-1.7864,-1.8581,-1.905,-1.951,-1.998,-2.053,-1.9609,-1.939,-1.9878,-1.983,-2.0146,-2.0794,-2.1243,-2.1405,-5.3381,-5.4691,-5.513,-5.5028,-5.3584,-5.1206,-4.7681,-4.5751,-4.336,-3.8644,-3.5733,-3.3672,-3.239,-3.273,-3.3583,-3.4848,0.0,-3.9076,-4.1047,-4.1186,-4.171,-4.3275,-4.3259,-4.3096,-4.3055,-4.2854,-4.223,-4.0988,-4.1594,-4.1615,-4.0673,-4.3371,-4.47,-4.4139,-4.5318,-4.5161,-4.3497,-4.2369,-4.1391,-4.059,-4.0697,-4.006,-3.8706,-3.8077,-3.7814,-3.7936,-3.8471,-3.8923,-3.9353,-3.9915,-4.0252,-4.0449,-3.98,-3.9107,-3.8353,-3.7539,-3.6691,-3.5766,-3.4883,-3.427,-3.385,-3.3467,-3.2751,-3.1894,-3.1205,-3.0235,-2.9262,-2.8682,-2.7777,-2.6679,-2.5924,-2.5376,-2.4775,-2.382,-2.3815,-2.379,-2.2957,-2.3016,-2.2799,-2.1366,-2.0007,-1.9161,-1.9339,-1.9024,-1.8673,-1.8458,-1.8065,-1.7376,-1.6215,-1.5924,-1.5759,-1.5534,-1.5507,-1.5654,-1.6133,-1.6546,-1.6804,-1.6804,-1.8111,-1.9234,-2.0045,-1.9632,-1.981,-2.0614,-1.9626,-1.915,-1.918,-1.9878,-2.0542,-2.1145,-2.2034,-2.2746,-5.3837,-5.5281,-5.5684,-5.4279,-5.3485,-5.1746,-4.69,-4.4642,0.0,-3.6087,-3.428,-3.3091,-3.0864,-3.2126,-3.4054,-3.5622,-3.7894,-4.0277,-4.2655,-4.2862,-4.3156,0.0,-4.3983,-4.3801,-4.3725,-4.3327,-4.2755,-4.1933,-4.2026,-4.188,-4.1281,-4.2141,-4.3614,-4.5693,-4.4841,-4.405,-4.3506,-4.2351,-4.1192,-3.9969,-3.9918,-3.9135,-3.7709,-3.7519,-3.7541,-3.7826,-3.8038,-3.8424,-3.8851,-3.9492,-3.9385,-3.8924,-3.9172,-3.8529,-3.7411,-3.63,-3.5495,-3.4739,-3.3719,-3.313,-3.2866,-3.2796,-3.2206,-3.1343,-3.0365,-2.9167,-2.7979,-2.7025,-2.6297,-2.5786,-2.5881,-2.559,-2.5118,-2.4687,-2.4095,-2.357,-2.339,-2.253,-2.1503,-2.0563,-1.9638,-1.897,-1.8772,-1.8638,-1.8647,-1.8906,-1.9204,-1.9287,-1.8928,-1.7262,-1.6137,-1.6147,-1.5966,-1.6124,-1.6904,-1.6523,-1.6307,-1.6404,-1.7173,-1.799,-1.8858,-1.9264,-1.989,-2.0745,-2.1158,-2.145,-2.1682,-2.2134,-2.2547,-2.2852,-2.3066,-2.3178,-5.2175,-5.3095,-5.3167,-5.2852,-5.1167,-4.8257,-4.3299,0.0,0.0,-3.2609,-3.1233,-3.0395,-2.8793,-3.0791,0.0,-3.2749,-3.536,-3.8172,-4.0527,-4.0857,-4.1556,-4.3455,-4.3385,-4.3365,-4.386,-4.3513,-4.3032,-4.2523,-4.1848,-4.1309,-4.1074,-4.106,-4.1788,-4.338,-4.2079,-4.1468,-4.1731,-4.1091,-4.0516,-3.9986,-3.9362,-3.8498,-3.7367,-3.708,-3.6987,-3.711,-3.784,-3.8259,-3.8573,-3.9304,-3.9312,-3.881,-3.8936,-3.7938,-3.6348,-3.5713,-3.4644,-3.3466,-3.2921,-3.2563,-3.2342,-3.2104,-3.1591,-3.0873,-3.0203,-2.8851,-2.7443,-2.6759,-2.5907,-2.5228,-2.5376,-2.5199,-2.4926,-2.439,-2.3536,-2.2875,-2.2875,-2.173,-2.0571,-2.0092,-1.945,-1.908,-1.9291,-1.8911,-1.8773,-1.9389,-1.9373,-1.9227,-1.912,-1.8462,-1.8032,-1.8119,-1.7749,-1.7699,-1.816,-1.7853,-1.7517,-1.7195,-1.8254,-1.909,-1.948,-2.0167,-2.0936,-2.171,-2.2034,-2.237,-2.2774,-2.3231,-2.3658,-2.4086,-2.4582,-2.4832,-4.9678,-5.0257,-5.0358,-5.0802,-4.8268,-4.4426,-3.9661,-3.6439,0.0,-2.9642,-2.8676,-2.8333,-2.7755,-2.9528,-3.0891,0.0,-3.2594,-3.5367,-3.8093,-3.8692,-3.9829,0.0,-4.258,0.0,-4.3435,-4.3246,-4.2958,-4.2772,-4.1569,-4.0793,-4.0793,-4.0482,-4.0487,-4.0965,-3.9766,-3.9354,-3.9943,-3.9898,-3.9881,-3.9948,-3.9127,-3.8245,-3.7313,-3.6885,-3.6625,-3.6604,-3.762,-3.8091,-3.8167,-3.9043,-3.9115,-3.8629,-3.8443,-3.7284,-3.5538,-3.5261,-3.4022,-3.2523,-3.2453,-3.2231,-3.1992,-3.1444,-3.0983,-3.0518,-2.995,-2.8552,-2.71,-2.6595,-2.5656,-2.4899,-2.4916,-2.4762,-2.438,-2.3659,-2.2981,-2.2435,-2.2085,-2.1126,-2.0182,-1.9838,-1.9294,-1.9105,-1.971,-1.9098,-1.8817,-1.9775,-1.9429,-1.9142,-1.9306,-1.9871,-2.033,-2.0561,-1.9747,-1.9299,-1.9553,-1.9431,-1.9107,-1.8537,-1.9718,-2.0469,-2.0539,-2.1155,-2.1812,-2.2543,-2.2607,-2.2917,-2.3426,-2.3946,-2.4489,-2.5118,-2.5889,-2.626,-4.6665,-4.8109,-4.9235,-4.8048,-4.5826,-4.2679,-3.7936,0.0,-3.2373,-2.8617,-2.8529,-2.9182,-2.942,-2.9064,-2.9439,-3.1618,-3.1949,-3.3436,-3.7732,-3.9024,-4.0001,-4.1286,0.0,0.0,-4.231,-4.2222,-4.2374,-4.2693,-4.175,-4.1041,-4.0839,-4.0844,-4.0903,-4.1189,-4.0024,-3.9384,-3.947,-3.9635,-3.9559,-3.9185,-3.943,-3.8795,-3.7492,-3.7171,-3.7061,-3.7061,-3.729,-3.744,-3.7557,-3.823,-3.8132,-3.7515,-3.7182,-3.6462,-3.549,-3.4581,-3.349,-3.2398,-3.2398,-3.2048,-3.1447,-3.0893,-3.0541,-3.0137,-2.8984,-2.7811,-2.6624,-2.5537,-2.4998,-2.4735,-2.4933,-2.4457,-2.3659,-2.2644,-2.2848,-2.2819,-2.1407,-2.0963,-2.0579,-1.9803,-1.9137,-1.8807,-1.9114,-1.8671,-1.8698,-2.0033,-2.0084,-2.0318,-2.1296,-2.1805,-2.2332,-2.301,-2.1155,-2.0213,-2.1039,-2.0531,-2.0181,-2.0169,-2.0379,-2.0774,-2.1361,-2.1475,-2.1776,-2.2415,-2.3118,-2.3721,-2.4209,-2.4782,-2.54,-2.6054,-2.6227,-2.6295,-4.4302,-4.5751,-4.6551,-4.6428,-4.412,-4.0775,-3.6485,0.0,-3.0902,-2.7954,-2.7881,-2.8384,-2.8468,-2.8289,-2.8312,-2.897,-2.8908,-2.9885,-3.3078,-3.4142,-3.5743,-3.899,-4.0229,-4.1341,-4.2699,-4.2264,-4.1821,-4.1622,-4.1318,-4.1012,-4.0645,-4.0138,-3.9842,-3.9767,-3.8836,-3.8374,-3.8503,-3.8421,-3.8481,-3.8756,-3.8101,-3.765,-3.7384,-3.7164,-3.6958,-3.6837,-3.7439,-3.7348,-3.6875,-3.7841,-3.739,-3.6127,-3.6441,-3.5638,-3.4254,-3.3676,-3.2813,-3.189,-3.1257,-3.0839,-3.0508,-2.9532,-2.9101,-2.8871,-2.8455,-2.7216,-2.5925,-2.56,-2.4751,-2.4007,-2.4326,-2.3929,-2.3406,-2.301,-2.2922,-2.2745,-2.1815,-2.1181,-2.0554,-1.9762,-1.9098,-1.8793,-1.9031,-1.8603,-1.8559,-1.9586,-1.9623,-1.9888,-2.0946,-2.1744,-2.2494,-2.3249,-2.2171,-2.1688,-2.244,-2.2331,-2.2006,-2.1495,-2.2384,-2.2793,-2.2555,-2.2902,-2.328,-2.3542,-2.3925,-2.4375,-2.5008,-2.5352,-2.5832,-2.6504,-2.6486,-2.6269,-4.1165,-4.2649,-4.3534,-4.3912,-4.1503,-3.8093,0.0,0.0,-2.9536,-2.7266,-2.7387,-2.7926,-2.8062,-2.7782,-2.7481,-2.7286,-2.6988,-2.7725,-3.0454,-3.1352,-3.3164,-3.7098,0.0,-4.0002,-4.192,-4.1912,-4.1499,-4.0654,-4.0926,-4.0935,-4.0534,-3.9924,-3.9306,-3.8774,-3.7885,-3.7483,-3.7711,-3.7569,-3.7785,-3.8353,-3.7485,-3.7205,-3.7471,-3.719,-3.6979,-3.6796,-3.7123,-3.6906,-3.6421,-3.7128,-3.6463,-3.5127,-3.5582,-3.4778,-3.3299,-3.2725,-3.1995,-3.115,-3.0347,-2.9881,-2.9389,-2.8353,-2.7684,-2.7272,-2.7089,-2.6386,-2.5494,-2.518,-2.422,-2.3418,-2.3647,-2.3539,-2.3275,-2.3187,-2.2947,-2.2563,-2.2004,-2.1184,-2.0401,-1.9921,-1.9145,-1.8812,-1.9502,-1.8906,-1.8651,-1.9694,-1.9508,-1.9657,-2.076,-2.1484,-2.224,-2.3233,-2.2725,-2.264,-2.3517,-2.369,-2.3412,-2.2578,-2.3702,-2.3948,-2.2952,-2.3749,-2.4158,-2.4076,-2.4368,-2.4887,-2.5577,-2.553,-2.5771,-2.6336,-2.6101,-2.5729,-3.6859,-3.8588,-4.0477,-3.9829,-3.7378,-3.4449,0.0,-2.9969,-2.837,-2.6495,-2.7176,-2.828,-2.8883,-2.7748,-2.6979,-2.7756,-2.7098,-2.7767,-3.1384,-3.2511,-3.381,0.0,-3.7866,-3.8977,-3.9227,-4.0864,-4.1323,-3.9928,-4.0631,-4.0935,-4.0534,-4.0468,-3.9881,-3.8623,-3.7535,-3.7086,-3.7203,-3.7383,-3.7691,-3.8093,-3.8082,-3.8026,-3.787,-3.7417,-3.7178,-3.7131,-3.6144,-3.5907,-3.6158,-3.5848,-3.5341,-3.4678,-3.4355,-3.3691,-3.2862,-3.1908,-3.0904,-3.0142,-3.0127,-2.9303,-2.8225,-2.7539,-2.6524,-2.5412,-2.4654,-2.5092,-2.546,-2.3787,-2.3302,-2.329,-2.3127,-2.3201,-2.3231,-2.2978,-2.2752,-2.2443,-2.1769,-2.0867,-2.0229,-2.0386,-1.9265,-1.8849,-2.0564,-1.9614,-1.912,-2.0662,-2.0209,-2.0095,-2.1234,-2.1342,-2.183,-2.3235,-2.2763,-2.284,-2.4179,-2.4302,-2.401,-2.3332,-2.3866,-2.3611,-2.2279,-2.3504,-2.3994,-2.3623,-2.4477,-2.5176,-2.5779,-2.5252,-2.5162,-2.5479,-2.4816,-2.454,-3.3502,-3.4924,-3.5788,-3.5067,-3.4137,-3.2704,-3.0064,-2.8881,-2.784,-2.6055,-2.6055,-2.6522,-2.6934,-2.6059,-2.5832,-2.7552,-2.7034,-2.735,0.0,0.0,0.0,-3.5756,-3.9002,-4.073,-3.9792,-4.0969,-4.1402,-4.0496,-4.0672,-4.0745,-4.0631,-4.0436,-4.0086,-3.9513,-3.904,-3.8467,-3.7694,-3.7539,-3.707,-3.6204,-3.6676,-3.678,-3.6381,-3.5794,-3.568,-3.5964,-3.4728,-3.4118,-3.4048,-3.4611,-3.4075,-3.2894,-3.3148,-3.2687,-3.1734,-3.0674,-3.0017,-2.9493,-2.8283,-2.7641,-2.7131,-2.5743,-2.4915,-2.4341,-2.3187,-2.3269,-2.3722,-2.3173,-2.3154,-2.3275,-2.3246,-2.3201,-2.3112,-2.3037,-2.2752,-2.2292,-2.1666,-2.0779,-1.996,-1.9558,-1.8823,-1.8488,-1.9207,-1.8883,-1.8888,-1.9944,-1.9797,-1.9987,-2.1178,-2.1306,-2.1661,-2.254,-2.2447,-2.2655,-2.3533,-2.3288,-2.2933,-2.2624,-2.2863,-2.2802,-2.2279,-2.3313,-2.3826,-2.38,-2.4922,-2.5424,-2.5236,-2.5812,-2.59,-2.5542,-2.4354,-2.382,0.0,-3.147,-3.2104,-3.1821,-3.1394,0.0,-2.8258,-2.7537,-2.6911,-2.5428,-2.5588,-2.5993,-2.6051,-2.5512,-2.5386,-2.6395,-2.6345,-2.6897,0.0,0.0,0.0,-3.6624,-3.9408,-4.0694,-3.9572,-4.0565,-4.0932,-4.0206,-4.0397,-4.0551,-4.0551,-4.0453,-4.0188,-3.9849,-3.9573,-3.9076,-3.8241,-3.7459,-3.6606,-3.5613,-3.5702,-3.5474,-3.5014,-3.4395,-3.4414,-3.4879,-3.3383,-3.284,0.0,-3.3467,-3.2879,-3.1757,-3.2317,-3.1767,-3.0587,-2.9886,-2.9247,-2.8598,-2.7343,-2.675,-2.637,-2.475,-2.3838,-2.328,-2.2415,-2.2311,-2.2614,-2.2884,-2.3053,-2.3142,-2.3112,-2.3037,-2.2962,-2.2947,-2.2555,-2.2052,-2.1235,-2.048,-1.9775,-1.9224,-1.8562,-1.8367,-1.916,-1.918,-1.931,-1.9938,-2.0295,-2.076,-2.1556,-2.1618,-2.1879,-2.2594,-2.2209,-2.207,-2.2501,-2.247,-2.2269,-2.1932,-2.2185,-2.2093,-2.1495,-2.2778,-2.3505,-2.3518,-2.4558,-2.5121,-2.5112,-2.5312,-2.5205,-2.4777,-2.3616,-2.3266,0.0,-2.8048,-2.9092,-2.9452,-2.8896,-2.7886,-2.6355,-2.5979,0.0,-2.4665,-2.5473,-2.6231,-2.6007,-2.5804,-2.5483,-2.5006,-2.5579,0.0,0.0,-3.1451,0.0,0.0,-3.9217,-3.9359,-3.8816,-3.9846,-4.0178,-3.9268,-3.988,-4.0271,-4.017,-4.0302,-4.017,-3.9677,-3.9189,-3.8865,-3.875,-3.7182,-3.6301,-3.6079,-3.5163,-3.4414,-3.3908,-3.3371,-3.3373,-3.3788,-3.2118,-3.1892,-3.2743,-3.2228,-3.1693,-3.1145,-3.1663,-3.0969,-2.961,-2.9319,-2.8554,-2.757,-2.6961,-2.6427,-2.5793,-2.449,-2.3266,-2.2278,-2.2211,-2.2137,-2.217,-2.2888,-2.2992,-2.2857,-2.2795,-2.2809,-2.2749,-2.2615,-2.2235,-2.1653,-2.0597,-2.0085,-1.9631,-1.9114,-1.8508,-1.8562,-2.0062,-2.0191,-2.0226,-2.0512,-2.1409,-2.208,-2.2209,-2.2087,-2.2279,-2.3071,-2.2024,-2.1291,-2.1209,-2.1778,-2.187,-2.1275,-2.1704,-2.1415,-2.0161,-2.1988,-2.2995,-2.2921,-2.3681,-2.4522,-2.5347,-2.4154,-2.3612,-2.3646,-2.2915,-2.3016,-2.2346,0.0,-2.4028,-2.4173,-2.4574,-2.4804,0.0,-2.449,-2.4585,-2.4321,0.0,0.0,-2.5428,-2.4883,-2.5265,-2.8486,-2.9012,-2.9849,-3.2232,-3.4464,0.0,-3.8906,-3.9631,-3.96,-3.8735,-3.9974,-4.0371,-3.9282,-3.9764,-3.9834,-3.9059,-3.9042,-3.9143,-3.9295,-3.8463,-3.8123,-3.8383,-3.7214,-3.608,-3.5043,-3.4713,-3.4066,-3.3196,-3.2455,-3.2385,-3.2721,-3.0735,-3.022,-3.0713,-2.9982,-2.9631,-2.9457,-2.9405,-2.9259,-2.9007,-2.7897,-2.747,-2.7265,-2.5938,-2.5396,-2.5205,-2.3984,-2.2871,-2.213,-2.232,-2.2278,-2.2263,-2.2814,-2.2828,-2.2661,-2.2661,-2.2675,-2.2615,-2.2463,-2.1956,-2.1226,-2.0426,-1.9998,-1.9508,-1.8467,-1.8685,-1.9136,-1.9387,-1.9967,-2.0407,-2.035,-2.0868,-2.1332,-2.1516,-2.0983,-2.0885,-2.167,-2.1507,-2.1106,-2.0582,-2.069,-2.0705,-2.0551,-2.0654,-2.0593,-2.0285,-2.1479,-2.2469,-2.3028,-2.4339,-2.5247,-2.5771,-2.4897,-2.4787,-2.5333,-2.4611,-2.4413,-2.0461,-2.1815,-2.2852,-2.3539,-2.4471,-2.5119,-2.4505,0.0,0.0,0.0,0.0,0.0,0.0,0.0,0.0,-2.8596,-2.9567,0.0,0.0,0.0,-3.7123,-3.8944,-3.9251,-3.9043,-3.8328,-3.8935,-3.9081,-3.8449,-3.9008,-3.9093,-3.8539,-3.8805,-3.9016,-3.899,-3.8412,-3.8013,-3.7841,-3.6605,-3.5357,-3.4171,-3.3675,-3.2977,-3.2193,-3.1231,-3.1027,-3.1306,-2.9489,-2.9024,-2.9542,-2.8966,-2.8708,-2.8708,-2.844,-2.8407,-2.8309,-2.7341,-2.7069,-2.6957,-2.5605,-2.4763,-2.415,-2.3223,-2.2517,-2.2137,-2.2278,-2.2324,-2.237,-2.2752,-2.2752,-2.2615,-2.2509,-2.2509,-2.2463,-2.2324,-2.1752,-2.1013,-2.0354,-1.9777,-1.9096,-1.818,-1.8766,-1.9381,-1.9127,-2.0165,-2.0858,-2.0389,-2.0992,-2.1561,-2.1747,-2.1075,-2.0977,-2.2101,-2.1399,-2.0828,-2.0767,-2.0767,-2.0643,-2.0369,-2.0354,-2.0354,-2.0354,-2.1268,-2.2046,-2.2655,-2.3638,-2.434,-2.4703,-2.4445,-2.4863,-2.5925,-2.5232,-2.5107,-1.9592,-2.1645,-2.3483,-2.4574,-2.5771,-2.6364,-2.524,0.0,0.0,0.0,0.0,0.0,0.0,-2.5881,0.0,0.0,0.0,-3.253,-3.6649,-3.6735,-3.6964,-3.8547,-3.8405,-3.8088,-3.7733,-3.7595,-3.7483,-3.7268,-3.7953,-3.8284,-3.8116,-3.8814,-3.9036,-3.8586,-3.8307,-3.779,-3.6912,-3.5808,-3.4679,-3.3573,-3.264,-3.1864,-3.1215,-3.0167,-2.9788,-2.9849,-2.8492,-2.8232,-2.8659,-2.8307,-2.8095,-2.8095,-2.7968,-2.7792,-2.7534,-2.7056,-2.6971,-2.6834,-2.559,-2.4299,-2.3114,-2.2633,-2.2401,-2.2278,-2.2324,-2.237,-2.2477,-2.2689,-2.2675,-2.2509,-2.2417,-2.237,-2.2324,-2.2184,-2.1615,-2.0983,-2.0466,-1.9735,-1.9029,-1.844,-1.9085,-1.9677,-1.9416,-2.067,-2.1431,-2.0711,-2.1473,-2.2156,-2.2286,-2.1704,-2.1743,-2.3025,-2.1701,-2.0921,-2.1291,-2.1507,-2.1291,-2.0624,-2.0578,-2.0562,-2.0631,-2.1311,-2.1887,-2.2312,-2.2914,-2.3326,-2.3575,-2.403,-2.4935,-2.6189,-2.5554,-2.5635,-1.8829,-2.1023,-2.3275,-2.3266,-2.4232,-2.4993,-2.4067,0.0,0.0,0.0,0.0,0.0,0.0,-2.7064,-2.8417,0.0,-3.4747,-3.6861,-3.8148,-3.7637,-3.7222,-3.7507,-3.7408,-3.7183,-3.6937,-3.7371,-3.7248,-3.6322,-3.7384,-3.7689,-3.6751,-3.7494,-3.7834,-3.7524,-3.6777,-3.6007,-3.5193,-3.5308,-3.4848,-3.3824,-3.2736,-3.1734,-3.0839,-3.0421,-2.9799,-2.9034,-2.8316,-2.789,-2.7645,-2.6785,-2.6394,-2.6339,-2.6543,-2.6833,-2.7114,-2.6304,-2.6606,-2.7172,-2.5669,-2.4212,-2.3091,-2.3265,-2.3018,-2.2704,-2.2766,-2.2706,-2.2555,-2.2615,-2.2477,-2.2278,-2.2231,-2.2231,-2.2184,-2.2044,-2.1615,-2.1198,-2.1011,-2.0778,-2.0395,-1.9789,-2.0309,-2.0824,-2.0732,-2.1222,-2.1693,-2.1971,-2.2087,-2.2187,-2.2286,-2.2133,-2.2164,-2.2424,-2.2686,-2.2409,-2.1399,-2.2332,-2.2532,-2.1479,-2.1315,-2.1385,-2.1732,-2.1963,-2.2378,-2.295,-2.434,-2.4978,-2.4729,-2.6096,-2.6885,-2.7109,-2.6988,-2.7006,-1.9713,-2.0845,-2.1856,-2.2815,-2.4517,-2.5848,-2.5471,-2.5201,0.0,0.0,0.0,0.0,0.0,0.0,-2.9613,-3.3501,-3.6169,-3.7877,-3.8408,-3.7502,-3.6888,-3.7148,-3.67,-3.6282,-3.5946,-3.6219,-3.6097,-3.5364,-3.6654,-3.7011,-3.5912,-3.7081,-3.7399,-3.6615,-3.6222,-3.5562,-3.4729,-3.4777,-3.4298,-3.3177,-3.2087,-3.1228,-3.0648,-2.9997,-2.9392,-2.8832,-2.8053,-2.7614,-2.7446,-2.6489,-2.6165,-2.6258,-2.6351,-2.6774,-2.7174,-2.6329,-2.5662,-2.5104,-2.466,-2.3681,-2.271,-2.3206,-2.3098,-2.2675,-2.2706,-2.2555,-2.237,-2.237,-2.2324,-2.2184,-2.2184,-2.2184,-2.2184,-2.2137,-2.1707,-2.1271,-2.1212,-2.0782,-2.0329,-2.014,-2.0748,-2.1267,-2.1146,-2.1732,-2.2254,-2.2294,-2.2263,-2.2401,-2.2794,-2.2494,-2.254,-2.3302,-2.3009,-2.2694,-2.2523,-2.3026,-2.2886,-2.1682,-2.2079,-2.2147,-2.1632,-2.2135,-2.2486,-2.2618,-2.3769,-2.456,-2.5005,-2.6109,-2.6899,-2.7345,-2.733,-2.733,-2.0446,-2.0712,-2.0953,-2.2532,0.0,-2.6409,-2.6717,-2.6338,0.0,0.0,0.0,0.0,0.0,-2.9191,-3.1505,-3.4994,-3.7054,-3.8312,-3.8533,-3.7631,-3.6953,-3.6956,-3.6384,-3.578,-3.5354,-3.5291,-3.5105,-3.4691,-3.591,-3.6286,-3.5459,-3.6649,-3.6885,-3.5819,-3.575,-3.5214,-3.4314,-3.3941,-3.3388,-3.2656,-3.1573,-3.0794,-3.0368,-2.9351,-2.8733,-2.8408,-2.7585,-2.7219,-2.7135,-2.6418,-2.6258,-2.6336,-2.6404,-2.6586,-2.6751,-2.61,-2.4665,-2.3087,-2.3603,-2.3112,-2.2349,-2.2975,-2.3055,-2.2847,-2.2718,-2.2577,-2.2461,-2.232,-2.2231,-2.2184,-2.2184,-2.2184,-2.2184,-2.2184,-2.1819,-2.1482,-2.1482,-2.0924,-2.047,-2.0603,-2.1203,-2.1683,-2.1666,-2.2274,-2.2763,-2.277,-2.2624,-2.2778,-2.3456,-2.3086,-2.3163,-2.4194,-2.3418,-2.3095,-2.3819,-2.3764,-2.3277,-2.237,-2.2872,-2.2826,-2.205,-2.2486,-2.2848,-2.309,-2.3556,-2.4269,-2.5264,-2.6023,-2.6726,-2.7393,-2.7313,-2.733,-1.9829,-2.0595,-2.1666,-2.2086,-2.3538,0.0,-2.6271,-2.6679,0.0,-2.8093,0.0,0.0,0.0,-3.199,-3.5006,-3.7695,-3.8848,-3.9303,-3.9177,-3.895,-3.8246,-3.6703,-3.6501,-3.6169,-3.5358,-3.5198,-3.4947,-3.4546,-3.5033,-3.5337,-3.5391,-3.5776,-3.575,-3.5283,-3.4899,-3.4298,-3.3388,-3.2463,-3.2289,-3.2881,-3.1751,-3.0715,-2.9825,-2.8777,-2.7836,-2.7135,-2.6732,-2.6437,-2.6236,-2.6272,-2.6136,-2.5946,-2.6148,-2.5736,-2.5058,-2.4878,-2.3787,-2.2537,-2.302,-2.2658,-2.212,-2.2712,-2.3337,-2.367,-2.3014,-2.3091,-2.325,-2.2587,-2.2324,-2.2184,-2.2184,-2.2184,-2.2184,-2.2044,-2.2002,-2.1974,-2.1974,-2.1791,-2.1716,-2.1857,-2.2132,-2.2469,-2.2907,-2.2784,-2.2983,-2.3989,-2.3625,-2.3471,-2.4148,-2.4194,-2.4194,-2.4302,-2.4307,-2.4521,-2.495,-2.4461,-2.4237,-2.4379,-2.3632,-2.3468,-2.4059,-2.3486,-2.3968,-2.5682,-2.5188,-2.5252,-2.6023,-2.6816,-2.7247,-2.7299,-2.7299,-2.7282,-1.9964,-2.064,-2.132,-2.1759,-2.296,0.0,0.0,-2.6747,-2.7457,-2.8181,-2.9141,0.0,0.0,-3.2964,-3.5202,-3.692,-3.8447,-3.9529,-3.9746,-3.9243,-3.8638,-3.8033,-3.6997,-3.6135,-3.566,-3.5068,-3.4546,-3.4151,-3.4764,-3.494,-3.4385,-3.4977,-3.4936,-3.4178,-3.4005,-3.3477,-3.2573,-3.2066,-3.1638,-3.131,-3.0333,-2.9509,-2.8883,-2.8364,-2.7847,-2.7321,-2.7075,-2.6966,-2.6938,-2.6576,-2.6578,-2.6797,-2.6659,-2.5848,-2.4773,-2.4656,-2.3599,-2.2395,-2.3389,-2.2995,-2.2164,-2.3194,-2.3395,-2.3144,-2.2807,-2.274,-2.2729,-2.2395,-2.2231,-2.2184,-2.2184,-2.2184,-2.2184,-2.2137,-2.2137,-2.2137,-2.2137,-2.2044,-2.203,-2.2388,-2.2434,-2.2709,-2.3392,-2.3443,-2.358,-2.4188,-2.4087,-2.401,-2.4271,-2.4359,-2.44,-2.44,-2.458,-2.4806,-2.513,-2.5088,-2.5029,-2.5027,-2.5124,-2.4929,-2.4387,-2.4723,-2.509,-2.536,-2.5562,-2.5846,-2.6165,-2.6964,-2.7376,-2.7421,-2.7421,-2.7421,-1.9825,-2.0167,-2.0595,0.0,0.0,0.0,-2.6014,-2.7115,-2.7948,-2.8955,-3.0041,-3.117,-3.2384,-3.3498,-3.4758,-3.645,-3.7803,-3.8719,-3.8959,-3.8589,-3.8154,-3.7686,-3.6754,-3.5958,-3.5416,-3.4841,-3.4349,-3.3949,-3.4207,-3.4239,-3.3761,-3.4002,-3.3818,-3.3185,-3.3117,-3.2593,-3.1643,-3.1239,-3.0675,-2.9955,-2.8991,-2.8523,-2.8457,-2.8039,-2.7632,-2.7256,-2.6985,-2.7,-2.7129,-2.6678,-2.6674,-2.6837,-2.6099,-2.5198,-2.4298,-2.3926,-2.3113,-2.2308,-2.3141,-2.2819,-2.2178,-2.3238,-2.3409,-2.3086,-2.2718,-2.2651,-2.2672,-2.2273,-2.2184,-2.2184,-2.2184,-2.2184,-2.2184,-2.2137,-2.2137,-2.2137,-2.2137,-2.2123,-2.2249,-2.2618,-2.283,-2.3098,-2.3696,-2.3882,-2.4051,-2.4317,-2.4359,-2.4359,-2.4385,-2.4482,-2.4539,-2.458,-2.4701,-2.4966,-2.5422,-2.5572,-2.5711,-2.5832,-2.6337,-2.5999,-2.4622,-2.5501,-2.5777,-2.5367,-2.5863,-2.6273,-2.6576,-2.7161,-2.7452,-2.7496,-2.7496,-2.7496,-1.9156,-1.9163,-1.9727,0.0,0.0,0.0,-2.6846,-2.779,-2.8617,-3.0769,-3.1243,-3.1926,-3.399,-3.3758,-3.4085,-3.6721,-3.707,-3.6901,-3.6631,-3.7003,-3.6771,-3.5272,-3.5646,-3.5613,-3.4579,-3.4497,-3.4349,-3.3899,-3.3155,-3.3058,-3.385,-3.2886,-3.2368,-3.2504,-3.2215,-3.1628,-3.0603,-2.9805,-2.9281,-2.8991,-2.8041,-2.797,-2.8569,-2.7617,-2.7026,-2.6736,-2.6185,-2.6141,-2.6491,-2.6485,-2.6201,-2.5604,-2.4162,-2.3566,-2.3362,-2.2581,-2.2232,-2.2161,-2.2033,-2.1989,-2.2091,-2.2685,-2.3354,-2.3699,-2.2847,-2.2998,-2.3307,-2.2447,-2.2184,-2.2184,-2.2184,-2.2184,-2.2184,-2.2044,-2.1996,-2.1996,-2.1996,-2.2249,-2.2558,-2.2694,-2.329,-2.3797,-2.3797,-2.4094,-2.4359,-2.4498,-2.4498,-2.4539,-2.4589,-2.4589,-2.4645,-2.4782,-2.4782,-2.5123,-2.5937,-2.601,-2.6295,-2.6942,-2.7038,-2.6433,-2.4974,-2.5609,-2.6035,-2.6126,-2.6182,-2.6593,-2.7407,-2.7483,-2.7496,-2.7496,-2.7496,-2.7496,-1.9013,-2.0186,0.0,-2.2338,0.0,0.0,0.0,-2.8155,0.0,0.0,-3.1508,-3.1836,-3.2788,-3.3411,-3.4218,-3.5558,-3.6323,-3.6734,-3.6719,-3.707,-3.697,-3.6056,-3.572,-3.5411,-3.4878,-3.4188,-3.3658,-3.3346,-3.3119,-3.2814,-3.2447,-3.2139,-3.1757,-3.1322,-3.1221,-3.0725,-2.979,-2.9524,-2.8985,-2.8142,-2.778,-2.7629,-2.7602,-2.7114,-2.6533,-2.5839,-2.5777,-2.5633,-2.5442,-2.545,-2.4776,-2.3691,-2.317,-2.2569,-2.1975,-2.1657,-2.1459,-2.1335,-2.1293,-2.1265,-2.1339,-2.2019,-2.2352,-2.2465,-2.2575,-2.2729,-2.2751,-2.232,-2.2184,-2.2184,-2.2184,-2.2184,-2.2184,-2.2137,-2.2137,-2.2137,-2.2137,-2.2388,-2.274,-2.3143,-2.3508,-2.3909,-2.4302,-2.44,-2.4482,-2.4564,-2.4564,-2.4605,-2.4742,-2.4726,-2.4766,-2.4942,-2.4926,-2.524,-2.5937,-2.603,-2.6367,-2.7038,-2.7201,-2.6994,-2.6467,-2.6754,-2.6954,-2.6999,-2.7013,-2.7226,-2.7544,-2.7557,-2.7557,-2.7557,-2.763,-2.763,-1.899,-2.0302,0.0,-2.3161,-2.4746,-2.6456,-2.8334,0.0,0.0,0.0,-3.1559,-3.1651,-3.2573,-3.3137,-3.375,-3.4748,-3.5545,-3.5844,-3.5456,-3.5943,-3.5877,-3.4663,-3.457,-3.4478,-3.4073,-3.3278,-3.2847,-3.3065,-3.2379,-3.1903,-3.1821,-3.1306,-3.0772,-3.0251,-3.0185,-2.9709,-2.8782,-2.8458,-2.7925,-2.7171,-2.6703,-2.6385,-2.6199,-2.6426,-2.5988,-2.5178,-2.5515,-2.5295,-2.464,-2.4294,-2.3655,-2.2843,-2.2164,-2.1694,-2.1388,-2.1292,-2.1181,-2.1003,-2.1003,-2.092,-2.0966,-2.17,-2.1859,-2.1887,-2.2369,-2.2555,-2.2555,-2.2278,-2.2184,-2.2184,-2.2184,-2.2184,-2.2184,-2.2184,-2.2184,-2.2184,-2.2184,-2.2618,-2.3054,-2.3363,-2.3767,-2.4204,-2.4549,-2.4564,-2.4564,-2.4686,-2.471,-2.4806,-2.4862,-2.4902,-2.4926,-2.5045,-2.5005,-2.524,-2.5828,-2.6013,-2.635,-2.6923,-2.7201,-2.7313,-2.7215,-2.7313,-2.7206,-2.6939,-2.7296,-2.7513,-2.7587,-2.763,-2.763,-2.763,-2.7672,-2.7672,-1.8943,0.0,0.0,-2.4192,-2.5712,0.0,-2.9462,-3.0394,-3.0981,-3.1713,-3.1465,-3.1506,-3.2837,-3.2798,-3.3022,-3.4175,-3.4675,-3.4487,-3.3398,-3.4103,-3.3991,-3.2091,-3.2707,-3.3063,-3.2542,-3.1966,-3.1929,-3.2814,-3.125,-3.0649,-3.1571,-3.0398,-2.9599,-2.9273,-2.9138,-2.8647,-2.779,-2.6965,-2.644,-2.6149,-2.5287,-2.4757,-2.4615,-2.5515,-2.5506,-2.483,-2.5263,-2.4897,-2.4028,-2.3167,-2.2783,-2.2546,-2.1126,-2.0837,-2.1226,-2.1186,-2.102,-2.0828,-2.0828,-2.0732,-2.0765,-2.1427,-2.1686,-2.1801,-2.2238,-2.2466,-2.2555,-2.2278,-2.2231,-2.2184,-2.2184,-2.2184,-2.2231,-2.2263,-2.2217,-2.2231,-2.2263,-2.2844,-2.3406,-2.345,-2.4105,-2.4589,-2.463,-2.463,-2.467,-2.4822,-2.4942,-2.5005,-2.5005,-2.5005,-2.5045,-2.5091,-2.5045,-2.5185,-2.5647,-2.5961,-2.628,-2.6691,-2.712,-2.7407,-2.7407,-2.7407,-2.7061,-2.6328,-2.716,-2.7617,-2.7617,-2.7672,-2.7701,-2.7701,-2.7701,-2.7701,-1.7983,-1.9632,0.0,0.0,-2.6638,-2.8263,-2.8943,-2.9831,-3.0664,-3.1076,-3.1631,-3.2124,-3.2107,-3.2394,-3.285,-3.3493,-3.3403,-3.3356,-3.3694,-3.3383,-3.2866,-3.2352,-3.2305,-3.2159,-3.1871,-3.1581,-3.1433,-3.1448,-3.0989,-3.0479,-3.0095,-2.9601,-2.9035,-2.8465,-2.8252,-2.7926,-2.7625,-2.6753,-2.6229,-2.6029,-2.5139,-2.4379,-2.3706,-2.4664,-2.4916,-2.4686,-2.4209,-2.3724,-2.3188,-2.236,-2.1708,-2.1051,-2.0057,-1.976,-1.9803,-1.9637,-1.956,-1.9508,-1.9508,-1.9445,-1.9497,-2.0211,-2.0761,-2.1197,-2.1772,-2.2214,-2.2555,-2.2417,-2.2278,-2.2184,-2.2184,-2.2184,-2.231,-2.2663,-2.2495,-2.231,-2.2663,-2.3098,-2.3537,-2.3994,-2.4369,-2.467,-2.4886,-2.4806,-2.4806,-2.4926,-2.4966,-2.5005,-2.5005,-2.5005,-2.5005,-2.5005,-2.5068,-2.5208,-2.5519,-2.5977,-2.6418,-2.6758,-2.7152,-2.7438,-2.7483,-2.7465,-2.7426,-2.7295,-2.75,-2.763,-2.7672,-2.7701,-2.7701,-2.7701,-2.7701,-2.7701,-1.7473,0.0,0.0,-2.5488,0.0,-2.8426,-2.9034,-2.9564,-3.0022,-3.0599,-3.1112,-3.1571,-3.1823,-3.1931,-3.2214,-3.3151,-3.2986,-3.2879,-3.3282,-3.3208,-3.2679,-3.1605,-3.1822,-3.1819,-3.115,-3.0751,-3.0592,-3.0861,-3.0282,-2.9808,-2.9512,-2.9054,-2.8618,-2.8118,-2.7588,-2.7225,-2.6911,-2.58,-2.5058,-2.4814,-2.4163,-2.3731,-2.3624,-2.3853,-2.4131,-2.4338,-2.3932,-2.3504,-2.2935,-2.2109,-2.1524,-2.1057,-1.9961,-1.9642,-1.9803,-1.9367,-1.9139,-1.9101,-1.9101,-1.9078,-1.9156,-1.9807,-2.024,-2.0631,-2.1126,-2.1485,-2.1756,-2.1891,-2.1886,-2.1865,-2.2146,-2.2184,-2.231,-2.2799,-2.2709,-2.2663,-2.3113,-2.3551,-2.3909,-2.4219,-2.4549,-2.4846,-2.4966,-2.4926,-2.4942,-2.4966,-2.5005,-2.5005,-2.5005,-2.5005,-2.5005,-2.5029,-2.5068,-2.5246,-2.5631,-2.6085,-2.647,-2.6824,-2.7261,-2.7513,-2.7557,-2.7569,-2.76,-2.7587,-2.763,-2.7689,-2.7701,-2.7701,-2.7701,-2.7701,-2.7701,-2.7701,-1.6633,0.0,-2.1928,-2.613,-2.7418,0.0,-2.8925,-2.9094,-2.9262,-2.9933,-3.0287,-3.0743,-3.1596,-3.1399,-3.1459,-3.2645,-3.2509,-3.2377,-3.2664,-3.2872,-3.2357,-3.0763,-3.1118,-3.1205,-3.0336,-2.9635,-2.953,-3.0183,-2.9248,-2.87,-2.8858,-2.8268,-2.7801,-2.7606,-2.6965,-2.6437,-2.5997,-2.4772,-2.3938,-2.3483,-2.3071,-2.3157,-2.3739,-2.3348,-2.348,-2.4024,-2.4024,-2.3663,-2.3061,-2.2209,-2.1759,-2.155,-2.0332,-2.0019,-2.0165,-1.9625,-1.9278,-1.9101,-1.9101,-1.9174,-1.9362,-1.9796,-2.0168,-2.0483,-2.0824,-2.1011,-2.1226,-2.1508,-2.1605,-2.1674,-2.209,-2.2231,-2.2356,-2.2889,-2.3024,-2.3157,-2.3595,-2.4036,-2.4302,-2.4385,-2.471,-2.5005,-2.5005,-2.5005,-2.5005,-2.5005,-2.5005,-2.5005,-2.5005,-2.5005,-2.5045,-2.5091,-2.5208,-2.5384,-2.5779,-2.6227,-2.6641,-2.6905,-2.7338,-2.7617,-2.7617,-2.7672,-2.7672,-2.76,-2.7672,-2.7771,-2.7912,-2.7771,-2.7771,-2.7894,-2.7754,-2.7701,0.0,0.0,-2.1954,0.0,-2.5959,-2.6814,0.0,0.0,-2.8515,-2.8453,-2.9495,-3.0455,-3.0683,-3.0623,-3.0759,-3.1235,-3.0668,-3.075,-3.225,-3.1282,-3.0572,-3.0842,-2.9626,-2.892,-2.9262,-2.857,-2.8104,-2.8047,-2.7783,-2.7319,-2.6658,-2.6211,-2.5963,-2.5916,-2.5858,-2.5672,-2.5272,-2.4523,-2.3955,-2.3483,-2.2873,-2.292,-2.3595,-2.3465,-2.3653,-2.4166,-2.4024,-2.3879,-2.3616,-2.276,-2.2066,-2.1505,-2.1142,-2.0357,-1.9493,-1.9861,-1.9595,-1.9101,-1.9101,-1.9478,-1.9986,-2.0074,-2.0843,-2.1757,-2.1801,-2.2178,-2.2505,-2.2472,-2.2441,-2.2409,-2.2249,-2.2278,-2.254,-2.3334,-2.3508,-2.3653,-2.4135,-2.4261,-2.4426,-2.4846,-2.4966,-2.5005,-2.5005,-2.5005,-2.5005,-2.5005,-2.5005,-2.5005,-2.5005,-2.5029,-2.5107,-2.5091,-2.5572,-2.5868,-2.5815,-2.6522,-2.7021,-2.7085,-2.7417,-2.763,-2.7672,-2.7701,-2.7701,-2.7701,-2.7701,-2.8035,-2.8737,-2.8035,-2.8052,-2.8719,-2.8017,-2.7701,-1.4674,-1.7352,-2.0089,0.0,-2.4271,-2.5224,-2.5911,-2.6534,-2.7205,-2.7876,-2.8309,-2.8749,-2.9478,-2.9256,-2.9287,-3.0487,-2.9953,-2.9711,-3.0643,-3.0335,-2.999,-2.971,-2.9532,-2.9354,-2.9137,-2.8699,-2.8216,-2.7627,-2.7504,-2.6995,-2.6047,-2.5832,-2.574,-2.5832,-2.5516,-2.5122,-2.4707,-2.4012,-2.3598,-2.3371,-2.3304,-2.348,-2.394,-2.3882,-2.3728,-2.3518,-2.3379,-2.3069,-2.2626,-2.2137,-2.1773,-2.148,-2.1292,-2.09,-2.0494,-2.0575,-2.0502,-2.0372,-2.02,-2.0404,-2.0691,-2.0637,-2.0973,-2.1438,-2.1438,-2.1599,-2.186,-2.2074,-2.213,-2.2202,-2.2377,-2.2601,-2.2949,-2.3566,-2.3867,-2.412,-2.4589,-2.4686,-2.4766,-2.4966,-2.5045,-2.5029,-2.5005,-2.5045,-2.5029,-2.5005,-2.5045,-2.5068,-2.5068,-2.5162,-2.5301,-2.546,-2.5795,-2.6139,-2.6454,-2.6889,-2.7244,-2.7413,-2.7582,-2.7672,-2.7701,-2.7701,-2.7701,-2.7701,-2.7701,-2.7877,-2.8228,-2.7877,-2.8105,-2.8895,-2.8544,-2.8614,0.0,0.0,-1.7496,-2.0412,-2.1996,-2.3125,0.0,0.0,-2.5745,-2.6949,-2.6897,-2.6918,-2.7917,-2.7868,-2.8096,-2.9388,-2.9158,-2.8906,-2.9258,-2.9554,-2.9544,-2.8837,-2.9337,-2.9547,-2.9076,-2.856,-2.7953,-2.7242,-2.6888,-2.626,-2.5258,-2.5137,-2.5062,-2.4987,-2.4745,-2.4222,-2.3481,-2.2922,-2.2819,-2.3112,-2.3206,-2.3341,-2.3579,-2.3747,-2.3416,-2.2672,-2.2964,-2.2731,-2.2224,-2.2092,-2.1921,-2.1747,-2.1718,-2.1427,-2.1083,-2.1027,-2.1038,-2.1028,-2.0852,-2.107,-2.1389,-2.1291,-2.1365,-2.1496,-2.1496,-2.1496,-2.1555,-2.196,-2.2061,-2.2161,-2.2622,-2.2963,-2.326,-2.3782,-2.4135,-2.4426,-2.4886,-2.5005,-2.5005,-2.5005,-2.5045,-2.5068,-2.5005,-2.5068,-2.5091,-2.5029,-2.5068,-2.5107,-2.5146,-2.5301,-2.553,-2.5832,-2.6139,-2.6522,-2.7002,-2.7227,-2.7413,-2.7683,-2.7701,-2.7701,-2.7701,-2.7701,-2.7701,-2.7701,-2.7894,-2.7999,-2.7999,-2.821,-2.8614,-2.9211,-2.9211,-2.9527,0.0,-1.3007,0.0,-1.6991,-1.8821,0.0,0.0,-2.3294,-2.424,-2.5171,-2.5324,-2.5453,-2.5881,-2.6785,-2.753,-2.7478,-2.7752,-2.8119,-2.865,-2.8875,-2.8925,-2.8894,-2.8403,-2.8245,-2.8779,-2.7441,-2.6426,-2.6123,-2.5319,-2.4492,-2.3643,-2.3393,-2.2907,-2.2251,-2.3053,-2.2672,-2.0897,-2.091,-2.1505,-2.2626,-2.1947,-2.1729,-2.1943,-2.2561,-2.246,-2.1854,-2.3167,-2.3664,-2.3505,-2.3448,-2.3005,-2.25,-2.2878,-2.1898,-2.0333,-2.0811,-2.064,-2.0186,-2.0146,-2.093,-2.1946,-2.1946,-2.2352,-2.2801,-2.2801,-2.2801,-2.2801,-2.2783,-2.2768,-2.2889,-2.3038,-2.3172,-2.3451,-2.4135,-2.4317,-2.4426,-2.4886,-2.5005,-2.5005,-2.5005,-2.5005,-2.5005,-2.5005,-2.5068,-2.5091,-2.5107,-2.5091,-2.5146,-2.5294,-2.5589,-2.5815,-2.5961,-2.6657,-2.7149,-2.7181,-2.7491,-2.7672,-2.7701,-2.7701,-2.7701,-2.7701,-2.7701,-2.7701,-2.7701,-2.8456,-2.8842,-2.8842,-2.9597,-3.0001,-3.0053,-3.0053,-3.0071,0.0,0.0,0.0,-1.5075,-1.6963,-1.8585,-1.9646,-2.1446,-2.3137,-2.3951,-2.4563,-2.4996,-2.5245,-2.5703,-2.6229,-2.6802,-2.6963,-2.7157,-2.754,-2.8083,-2.8323,-2.8041,-2.829,-2.8388,-2.8047,-2.7876,-2.7165,-2.5574,-2.5425,-2.4867,-2.3569,-2.326,-2.3157,-2.3295,-2.3155,-2.26,-2.161,-2.1248,-2.1351,-2.1939,-2.1849,-2.1822,-2.1838,-2.2501,-2.2415,-2.1739,-2.2679,-2.2574,-2.1774,-2.2443,-2.212,-2.1266,-2.2498,-2.209,-2.0903,-2.1436,-2.1359,-2.0958,-2.1218,-2.1655,-2.2206,-2.2468,-2.27,-2.2888,-2.2888,-2.2888,-2.2888,-2.2857,-2.3023,-2.3246,-2.329,-2.3696,-2.4177,-2.463,-2.4791,-2.4855,-2.5029,-2.5045,-2.5005,-2.5005,-2.5029,-2.5068,-2.5068,-2.5162,-2.524,-2.524,-2.5262,-2.5301,-2.5355,-2.5721,-2.6104,-2.6401,-2.6906,-2.7276,-2.7504,-2.7642,-2.7701,-2.7701,-2.7701,-2.7929,-2.8456,-2.8473,-2.8719,-2.9228,-2.9527,-2.9158,-2.8122,-2.8947,-2.9597,-3.0106,-3.0106,-3.0633,-0.9212,0.0,0.0,0.0,-1.4273,-1.5716,-1.747,-1.923,-2.0944,-2.2436,-2.3239,-2.3822,-2.4217,-2.4202,-2.4655,-2.6051,-2.6297,-2.6472,-2.6765,-2.756,-2.7944,-2.7565,-2.8119,-2.8264,-2.7597,-2.7411,-2.6704,-2.515,-2.4957,-2.4507,-2.3583,-2.2996,-2.2775,-2.3008,-2.2204,-2.1816,-2.2002,-2.1084,-2.0863,-2.1374,-2.1265,-2.1197,-2.1136,-2.1813,-2.1794,-2.1356,-2.2237,-2.2133,-2.1347,-2.2088,-2.1975,-2.1477,-2.2571,-2.2367,-2.1562,-2.1873,-2.1841,-2.1618,-2.1887,-2.2178,-2.2484,-2.2802,-2.2888,-2.2888,-2.2888,-2.2978,-2.3053,-2.3053,-2.3348,-2.3638,-2.3794,-2.4287,-2.4806,-2.506,-2.5123,-2.5146,-2.5146,-2.5123,-2.5045,-2.5084,-2.5107,-2.5107,-2.5146,-2.5278,-2.5317,-2.5317,-2.5355,-2.5454,-2.5626,-2.5997,-2.6419,-2.6825,-2.7181,-2.7461,-2.7672,-2.7701,-2.7824,-2.8087,-2.7841,-2.8175,-2.9263,-2.9035,-2.9281,-3.0088,-3.0352,-2.9825,-2.8551,-2.9312,-2.9808,-3.0138,-3.0648,-3.1472,0.0,0.0,0.0,0.0,0.0,-1.1775,-1.5594,-1.6527,-1.7498,-2.0578,-2.1342,-2.1681,-2.2618,-2.2497,-2.2878,-2.4984,-2.5728,-2.6136,-2.6457,-2.7312,-2.7799,-2.7485,-2.7624,-2.7657,-2.7334,-2.5834,-2.4806,-2.4657,-2.3718,-2.326,-2.3551,-2.2483,-2.1628,-2.1111,-2.0062,-2.0266,-2.1732,-2.0281,-1.9982,-2.0843,-2.0092,-1.969,-1.9705,-2.0393,-2.0616,-2.057,-2.1891,-2.2471,-2.25,-2.2515,-2.2829,-2.3246,-2.3157,-2.2732,-2.2147,-2.2018,-2.196,-2.1946,-2.196,-2.2381,-2.2873,-2.2888,-2.2888,-2.2888,-2.2888,-2.3127,-2.3406,-2.3406,-2.3696,-2.4094,-2.4517,-2.4934,-2.5294,-2.5294,-2.5294,-2.5294,-2.5294,-2.5201,-2.5146,-2.5294,-2.5201,-2.5146,-2.5294,-2.5355,-2.5378,-2.5416,-2.5416,-2.5589,-2.6033,-2.6368,-2.6707,-2.7149,-2.7491,-2.7701,-2.7701,-2.7719,-2.8052,-2.8825,-2.8175,-2.8473,-3.0053,-2.9369,-2.9351,-3.0159,-3.0843,-3.0858,-3.0233,-3.0876,-3.0891,-3.0268,-3.1784,-3.2523,-0.6884,0.0,0.0,0.0,0.0,0.0,-1.253,-1.3753,-1.5415,-1.8474,-1.9384,-2.0181,-2.202,-2.2443,-2.2683,-2.3272,-2.4244,-2.5238,-2.6332,-2.6967,-2.7184,-2.6807,-2.7063,-2.6826,-2.5757,-2.5667,-2.5108,-2.3807,-2.3866,-2.3851,-2.3625,-2.3175,-2.2299,-2.0768,-2.0707,-2.0685,-2.0804,-2.0014,-1.9867,-2.0243,-1.9888,-1.969,-1.9705,-2.0288,-2.0601,-2.0699,-2.155,-2.2096,-2.2389,-2.279,-2.2717,-2.2483,-2.2848,-2.2309,-2.132,-2.1278,-2.1003,-2.0683,-2.1119,-2.1699,-2.2338,-2.2743,-2.2888,-2.2933,-2.3172,-2.3334,-2.345,-2.3739,-2.4109,-2.4441,-2.4855,-2.5068,-2.5185,-2.5294,-2.5333,-2.5355,-2.5355,-2.5339,-2.5301,-2.5294,-2.5294,-2.5278,-2.5355,-2.5378,-2.5432,-2.5524,-2.5738,-2.5961,-2.6087,-2.6624,-2.7068,-2.7181,-2.7491,-2.7701,-2.7701,-2.8228,-2.8403,-2.8052,-2.893,-2.965,-3.0088,-3.0404,-3.0931,-3.1756,-3.1388,-3.1122,-3.0911,-3.1122,-3.1137,-3.1009,-3.2031,-3.2489,0.0,0.0,0.0,-0.7729,0.0,0.0,-1.1486,-1.2325,-1.3572,-1.6741,-1.7543,-1.824,-1.9849,-2.0512,-2.0951,-2.1498,-2.2564,-2.3804,-2.5152,-2.6023,-2.6373,-2.5908,-2.5899,-2.5681,-2.5,-2.4837,-2.4358,-2.329,-2.3449,-2.3421,-2.2964,-2.293,-2.2248,-2.082,-2.0688,-2.0533,-2.027,-1.999,-1.9984,-2.027,-1.9897,-1.9839,-2.0124,-2.0161,-2.0333,-2.0646,-2.1277,-2.1795,-2.2361,-2.2805,-2.2659,-2.209,-2.2396,-2.1917,-2.1003,-2.1003,-2.077,-2.0524,-2.0872,-2.1438,-2.2062,-2.2425,-2.2671,-2.2978,-2.329,-2.3299,-2.332,-2.4017,-2.4523,-2.4902,-2.5123,-2.524,-2.5317,-2.541,-2.5448,-2.5389,-2.5067,-2.526,-2.547,-2.541,-2.5371,-2.5355,-2.547,-2.547,-2.5546,-2.5791,-2.5977,-2.6193,-2.6522,-2.6939,-2.7244,-2.74,-2.7879,-2.8052,-2.7719,-2.8754,-2.9211,-2.8737,-2.9579,-3.0404,-3.1036,-3.1142,-3.1581,-3.2371,-3.1966,-3.1753,-3.1802,-3.1401,-3.1485,-3.1951,-3.2444,-3.2657,0.0,0.0,0.0,-0.6952,-0.6795,0.0,-1.12,-1.1422,-1.174,-1.4892,-1.5527,-1.5763,-1.6727,-1.748,-1.8297,-1.9359,-2.0642,-2.1952,-2.3441,-2.4767,-2.54,-2.4859,-2.454,-2.4447,-2.4582,-2.3689,-2.3083,-2.3038,-2.2814,-2.2494,-2.2018,-2.2229,-2.1972,-2.1129,-2.0537,-2.0289,-2.0329,-2.0254,-2.0412,-2.0812,-2.0124,-2.0079,-2.0572,-1.9959,-2.0012,-2.054,-2.1089,-2.1671,-2.2319,-2.2688,-2.2541,-2.2106,-2.2106,-2.1685,-2.1104,-2.1104,-2.1061,-2.1003,-2.1003,-2.138,-2.1888,-2.1888,-2.2309,-2.2862,-2.3186,-2.3158,-2.3259,-2.4312,-2.4886,-2.5217,-2.524,-2.541,-2.5578,-2.5524,-2.5513,-2.5308,-2.4628,-2.4952,-2.5405,-2.547,-2.546,-2.547,-2.5578,-2.5616,-2.5696,-2.6033,-2.6139,-2.6419,-2.7117,-2.7244,-2.7369,-2.7672,-2.8333,-2.8509,-2.7877,-2.9228,-3.0106,-3.0106,-3.0264,-3.0931,-3.2213,-3.1668,-3.1668,-3.2388,-3.2473,-3.2557,-3.2606,-3.1833,-3.1933,-3.2773,-3.2852,-3.2884,-0.5352,-0.5552,-0.5936,-0.5958,-0.668,0.0,-0.7924,-0.8412,-0.94,-1.1535,-1.1861,-1.2303,-1.4157,-1.5303,-1.6021,-1.6138,-1.7995,-2.0283,-2.2866,-2.3727,-2.3983,-2.3692,-2.365,-2.3565,-2.3302,-2.3052,-2.2859,-2.2692,-2.3038,-2.2878,-2.2018,-2.2854,-2.2817,-2.1773,-2.1805,-2.1804,-2.172,-2.1622,-2.1583,-2.1588,-2.0865,-2.0288,-1.9884,-1.9692,-1.9931,-2.0531,-2.1183,-2.1727,-2.2219,-2.2308,-2.2542,-2.2848,-2.2759,-2.2367,-2.1801,-2.1801,-2.1452,-2.1003,-2.1003,-2.109,-2.1191,-2.1191,-2.1641,-2.2222,-2.2579,-2.3227,-2.402,-2.4879,-2.4966,-2.4751,-2.4855,-2.5185,-2.5378,-2.5091,-2.489,-2.4677,-2.4515,-2.4175,-2.4061,-2.4596,-2.5158,-2.5578,-2.5616,-2.5616,-2.5696,-2.6033,-2.6367,-2.6708,-2.7149,-2.743,-2.7642,-2.7683,-2.7841,-2.8122,-2.8614,-2.9544,-3.0106,-3.0106,-3.1265,-3.1791,-3.144,-3.1897,-3.223,-3.2406,-3.2473,-3.2608,-3.2773,-3.258,-3.2548,-3.2639,-3.2755,-3.2805,-0.4934,-0.5143,-0.5448,-0.5456,-0.5932,0.0,0.0,-0.7437,-0.8232,-1.0258,-1.0381,-1.0684,-1.2638,-1.3565,-1.4163,-1.466,-1.6431,-1.824,-1.9583,-2.1339,-2.2399,-2.2208,-2.2417,-2.2532,-2.2424,-2.2381,-2.2292,-2.1948,-2.2566,-2.2732,-2.2175,-2.2278,-2.2258,-2.2048,-2.1713,-2.1493,-2.1463,-2.1773,-2.1862,-2.1744,-2.0715,-2.0341,-2.0571,-1.9894,-2.0235,-2.1385,-2.1359,-2.1686,-2.2217,-2.1768,-2.1827,-2.2118,-2.1684,-2.1119,-2.0596,-2.093,-2.0625,-2.0132,-2.077,-2.1003,-2.1003,-2.1003,-2.1452,-2.2076,-2.2416,-2.3242,-2.4059,-2.4073,-2.4389,-2.471,-2.4775,-2.5146,-2.5373,-2.4836,-2.4595,-2.4304,-2.3592,-2.3721,-2.4016,-2.4016,-2.4875,-2.5621,-2.5616,-2.5616,-2.5749,-2.6137,-2.6383,-2.6657,-2.7053,-2.7369,-2.7679,-2.8062,-2.8588,-2.907,-2.9457,-3.058,-3.1089,-3.0668,-3.1756,-3.2213,-3.1809,-3.2177,-3.2422,-3.2507,-3.2608,-3.2707,-3.287,-3.287,-3.282,-3.2737,-3.282,-3.287,-0.4494,-0.4729,-0.502,-0.5181,-0.5285,-0.5669,0.0,0.0,0.0,-0.9173,-0.9206,-0.9437,-1.0871,-1.1585,-1.2234,-1.3322,-1.4909,-1.604,-1.6233,-1.8557,-2.0301,-2.0502,-2.0906,-2.1269,-2.1528,-2.1499,-2.1341,-2.1133,-2.1636,-2.2076,-2.2273,-2.1715,-2.1694,-2.2401,-2.1568,-2.1068,-2.1024,-2.1512,-2.1699,-2.1524,-2.0393,-2.0341,-2.1143,-2.0116,-2.0507,-2.1919,-2.1427,-2.1471,-2.1821,-2.1129,-2.0823,-2.0772,-2.0418,-1.9943,-1.9537,-2.0074,-1.9928,-1.9595,-2.0509,-2.0828,-2.0799,-2.0669,-2.109,-2.1726,-2.2179,-2.2963,-2.3538,-2.3143,-2.3788,-2.4655,-2.4695,-2.5107,-2.5341,-2.4712,-2.4543,-2.4175,-2.3041,-2.3592,-2.421,-2.3805,-2.4688,-2.5517,-2.5584,-2.5616,-2.5787,-2.6225,-2.6279,-2.6504,-2.6956,-2.723,-2.7681,-2.8476,-2.9208,-2.9825,-3.0282,-3.1317,-3.1843,-3.144,-3.2053,-3.2422,-3.2422,-3.2422,-3.2507,-3.2639,-3.2722,-3.2838,-3.2916,-3.2916,-3.2916,-3.2916,-3.2916,-3.2916,-0.4638,-0.4948,-0.5243,-0.4836,-0.5762,-0.6422,-0.5511,0.0,-0.6981,-0.6651,0.0,-0.7194,-0.7394,0.0,0.0,-1.0462,-1.2212,-1.4019,-1.5504,-1.6272,-1.7156,-1.8398,-1.9251,-1.9894,-2.0357,-2.0006,-1.9964,-2.0456,-2.0216,-2.0691,-2.2199,-2.2325,-2.2585,-2.3154,-2.2783,-2.2345,-2.1888,-2.1768,-2.1434,-2.0896,-2.058,-2.0244,-2.0002,-2.0213,-2.0425,-2.0637,-2.1032,-2.0892,-2.0346,-2.0233,-1.9856,-1.942,-2.048,-2.0843,-2.0785,-2.0857,-2.0843,-2.0727,-2.0335,-2.0204,-2.0103,-1.9508,-1.9769,-2.0487,-2.1471,-2.2084,-2.2547,-2.3222,-2.3738,-2.4135,-2.4369,-2.4815,-2.5114,-2.4886,-2.466,-2.445,-2.4288,-2.39,-2.3789,-2.4446,-2.4587,-2.4822,-2.5503,-2.5749,-2.5901,-2.612,-2.6227,-2.6521,-2.7085,-2.7213,-2.7632,-2.8745,-2.8351,-2.8807,-3.0896,-3.068,-3.0976,-3.2177,-3.2437,-3.2557,-3.2507,-3.2557,-3.2657,-3.2773,-3.2773,-3.2838,-3.2916,-3.2916,-3.2916,-3.2916,-3.2916,-3.2916,-0.421,-0.4476,-0.4733,-0.435,-0.4706,-0.5074,-0.4611,-0.507,-0.5736,-0.6349,0.0,0.0,0.0,0.0,0.0,0.0,-1.0918,-1.1979,-1.2658,-1.3596,-1.5143,-1.7617,-1.7852,-1.8027,-1.8542,-1.9083,-1.9167,-1.8625,-1.8707,-1.9123,-1.9941,-2.0308,-2.0801,-2.1421,-2.1652,-2.1613,-2.1288,-2.1579,-2.1404,-2.073,-2.0251,-2.008,-2.0199,-1.9945,-2.02,-2.0841,-2.0659,-2.0389,-2.0074,-1.9682,-1.9348,-1.9159,-1.9696,-1.9899,-1.9943,-2.0335,-2.048,-2.0553,-2.1032,-2.1206,-2.109,-2.0422,-2.0161,-2.0186,-2.0696,-2.1306,-2.2036,-2.2844,-2.3209,-2.3406,-2.3967,-2.4449,-2.4654,-2.4216,-2.4346,-2.4473,-2.4032,-2.4067,-2.4281,-2.4522,-2.4984,-2.5375,-2.5631,-2.5717,-2.5828,-2.5957,-2.6082,-2.626,-2.6589,-2.6908,-2.7631,-2.8969,-2.9123,-2.9874,-3.1788,-3.1681,-3.182,-3.2488,-3.2573,-3.2606,-3.2539,-3.2657,-3.274,-3.2823,-3.2838,-3.2852,-3.2916,-3.2916,-3.2916,-3.2916,-3.2916,-3.2916,-0.4067,-0.4232,-0.4391,-0.3974,-0.3988,-0.4173,-0.412,-0.4497,-0.508,-0.6084,-0.6072,0.0,0.0,0.0,-0.7743,-0.9129,0.0,-1.0695,-1.0879,-1.1892,-1.3576,-1.6245,-1.6387,-1.6485,-1.6987,-1.765,-1.7774,-1.7093,-1.7202,-1.76,-1.8256,-1.8615,-1.917,-2.0065,-2.0446,-2.063,-2.0519,-2.0978,-2.094,-2.0475,-1.9929,-1.9975,-2.054,-1.99,-2.0094,-2.0878,-2.0331,-2.0001,-1.9783,-1.9304,-1.9101,-1.9101,-1.9101,-1.9101,-1.9159,-1.9653,-1.9943,-2.0204,-2.0944,-2.1247,-2.116,-2.0721,-2.0269,-1.9905,-1.9967,-2.0665,-2.1549,-2.2109,-2.2501,-2.2865,-2.3496,-2.4026,-2.4245,-2.3867,-2.4376,-2.4801,-2.421,-2.4557,-2.4951,-2.4863,-2.5411,-2.5881,-2.5791,-2.5791,-2.5828,-2.5881,-2.5954,-2.6099,-2.6329,-2.6708,-2.7603,-2.9351,-2.9685,-3.0539,-3.2364,-3.2362,-3.236,-3.2654,-3.2672,-3.2672,-3.2672,-3.2773,-3.2838,-3.2838,-3.2884,-3.2916,-3.2916,-3.2916,-3.2916,-3.2916,-3.2916,-3.2916,-0.4327,-0.4558,-0.4629,-0.3866,-0.4174,-0.4468,-0.391,-0.4798,-0.5559,-0.523,-0.5772,-0.6351,-0.6648,-0.6875,-0.7401,-0.8559,-0.9581,0.0,0.0,-1.1685,-1.2283,-1.3504,-1.4701,-1.561,-1.6123,-1.5421,-1.5353,-1.6338,-1.5716,-1.616,-1.8183,-1.8072,-1.8592,-2.005,-1.9919,-1.9843,-1.9843,-1.9858,-1.9858,-1.9843,-1.9698,-2.0005,-2.0669,-2.0318,-2.0216,-2.0206,-2.0142,-1.9725,-1.913,-1.9116,-1.9101,-1.9101,-1.9101,-1.9101,-1.9101,-1.9116,-1.9537,-2.0016,-1.9406,-1.9278,-1.939,-1.945,-1.9435,-1.9406,-1.9406,-2.0131,-2.094,-2.0955,-2.1725,-2.2586,-2.2927,-2.3512,-2.41,-2.4394,-2.5033,-2.5567,-2.5551,-2.561,-2.5668,-2.5652,-2.5775,-2.5897,-2.5881,-2.6059,-2.6132,-2.5934,-2.5954,-2.6189,-2.6725,-2.6791,-2.7652,-2.9927,-2.9493,-2.9982,-3.2393,-3.1998,-3.1987,-3.283,-3.2838,-3.2838,-3.2884,-3.2884,-3.2884,-3.2884,-3.2916,-3.2916,-3.2916,-3.2916,-3.2916,-3.2916,-3.2916,-3.2916,-0.4338,-0.4625,-0.473,-0.4193,-0.4114,-0.3971,-0.3307,-0.401,-0.4779,-0.4723,-0.5392,-0.6169,-0.6763,-0.6781,-0.6947,-0.7517,-0.8504,-0.9283,0.0,-1.0587,-1.1643,-1.2318,-1.405,-1.4925,-1.4258,-1.469,-1.4929,-1.4741,-1.4998,-1.5366,-1.5951,-1.726,-1.8358,-1.9204,-1.9693,-2.0343,-2.1273,-2.0722,-2.0648,-2.106,-2.055,-2.0407,-2.0548,-1.9929,-1.9662,-1.9587,-1.9473,-1.9304,-1.9101,-1.9101,-1.9101,-1.9101,-1.9101,-1.9101,-1.9101,-1.9101,-1.9522,-2.0132,-2.04,-2.0314,-2.0009,-2.0062,-1.9901,-1.9675,-1.9777,-2.0268,-2.0949,-2.1471,-2.1647,-2.1949,-2.3047,-2.3146,-2.3195,-2.4272,-2.4765,-2.5127,-2.5582,-2.5754,-2.5844,-2.5844,-2.5917,-2.5954,-2.5954,-2.6096,-2.6132,-2.599,-2.6079,-2.646,-2.7282,-2.7164,-2.7956,-3.0449,-3.0201,-3.0641,-3.258,-3.2588,-3.2599,-3.2866,-3.2884,-3.2884,-3.2916,-3.2916,-3.2916,-3.2916,-3.2916,-3.2916,-3.2916,-3.2916,-3.2916,-3.2902,-3.3437,-3.3401,-0.4338,-0.469,-0.4803,-0.4565,-0.4426,-0.4159,-0.3475,-0.4019,-0.4686,-0.4745,-0.5258,-0.5957,-0.6805,-0.6739,-0.6649,-0.6987,-0.7869,-0.8562,0.0,-1.0165,-1.1284,-1.1575,-1.2993,-1.3791,-1.3292,-1.3904,-1.4256,-1.4066,-1.4466,-1.4836,-1.5113,-1.6498,-1.7821,-1.8976,-1.9622,-2.057,-2.1862,-2.14,-2.1338,-2.168,-2.0968,-2.0563,-2.0457,-1.9708,-1.9302,-1.9213,-1.9139,-1.9101,-1.9101,-1.9101,-1.9139,-1.9176,-1.9176,-1.9176,-1.9176,-1.9139,-1.9453,-2.0029,-2.0455,-2.0555,-2.0355,-2.0221,-2.0092,-2.0096,-2.0335,-2.0783,-2.1401,-2.2184,-2.2226,-2.2264,-2.3098,-2.3054,-2.3074,-2.4152,-2.4499,-2.4854,-2.5607,-2.5844,-2.5897,-2.5897,-2.599,-2.6063,-2.6026,-2.6115,-2.6168,-2.6079,-2.6383,-2.6914,-2.7792,-2.7861,-2.8641,-3.0565,-3.0508,-3.0787,-3.188,-3.2264,-3.2456,-3.2456,-3.2755,-3.2916,-3.2916,-3.2916,-3.2916,-3.2916,-3.3169,-3.3312,-3.3312,-3.358,-3.358,-3.333,-3.3865,-3.3669]},{"header":{"parameterUnit":"m.s-1","parameterCategory":1,"la1":30.6,"la2":29.2853,"lo1":-89.7004,"lo2":-87.6739,"dy":0.0162,"dx":0.0183,"nx":112,"ny":82,"refTime":"2023-08-25T12:00:00:Z","depth":0,"parameterNumber":3,"parameterNumberName":"V-component_of_WINDS"},"data":[0.0,0.0,0.0,0.0,0.0,0.0,0.0,0.0,0.0,0.0,0.0,0.0,0.0,0.0,0.0,0.0,0.0,0.0,0.0,0.0,0.0,0.0,0.0,0.0,0.0,0.0,0.0,0.0,0.0,0.0,0.0,0.0,0.0,0.0,0.0,0.0,0.0,0.0,0.0,0.0,0.0,0.0,0.0,0.0,0.0,0.0,0.0,0.0,0.0,0.0,0.0,0.0,0.0,0.0,0.0,0.0,0.0,0.0,0.0,0.0,0.0,0.0,0.0,0.0,0.0,0.0,0.0,0.0,0.0,0.0,0.0,0.0,0.0,0.0,0.0,0.0,0.0,0.0,0.0,0.0,0.0,0.0,0.0,0.0,0.0,0.0,0.0,0.0,0.0,0.0,-1.6833,-1.6697,-1.8468,-2.0027,-2.0952,-2.095,-1.9746,-1.7011,0.0,0.0,0.0,0.0,0.0,0.0,0.0,0.0,0.0,0.0,0.0,0.0,0.0,0.0,0.0,0.0,0.0,0.0,0.0,0.0,0.0,0.0,0.0,0.0,0.0,0.0,0.0,0.0,0.0,0.0,0.0,0.0,0.0,0.0,0.0,0.0,0.0,0.0,0.0,0.0,0.0,0.0,0.0,0.0,0.0,0.0,0.0,0.0,0.0,0.0,0.0,0.0,0.0,0.0,0.0,0.0,0.0,0.0,0.0,0.0,0.0,0.0,0.0,0.0,0.0,0.0,0.0,0.0,0.0,0.0,0.0,0.0,0.0,0.0,0.0,0.0,0.0,0.0,0.0,0.0,0.0,0.0,0.0,0.0,0.0,0.0,0.0,0.0,0.0,0.0,0.0,0.0,0.0,0.0,0.0,0.0,0.0,0.0,0.0,0.0,0.0,0.0,0.0,0.0,-1.7264,-1.8676,-2.059,-2.1225,-1.9896,-2.0103,-1.8893,-1.5542,0.0,0.0,0.0,0.0,0.0,0.0,0.0,0.0,0.0,0.0,0.0,0.0,0.0,0.0,0.0,0.0,0.0,0.0,0.0,0.0,0.0,0.0,0.0,0.0,0.0,0.0,0.0,0.0,0.0,0.0,0.0,0.0,0.0,0.0,0.0,0.0,0.0,0.0,0.0,0.0,0.0,0.0,0.0,0.0,0.0,0.0,0.0,0.0,0.0,0.0,0.0,0.0,0.0,0.0,0.0,0.0,0.0,0.0,0.0,0.0,0.0,0.0,0.0,0.0,0.0,0.0,0.0,0.0,0.0,0.0,0.0,0.0,0.0,0.0,0.0,0.0,0.0,0.0,0.0,0.0,0.0,0.0,0.0,0.0,0.0,0.0,0.0,0.0,0.0,0.0,0.0,0.0,0.0,0.0,0.0,0.0,0.0,0.0,0.0,0.0,0.0,0.0,0.0,-1.6226,-1.7233,-1.9191,-2.0367,-2.0565,-1.9535,-1.9667,-1.8489,-1.5412,-1.5808,0.0,0.0,0.0,0.0,0.0,0.0,0.0,0.0,0.0,0.0,0.0,0.0,0.0,0.0,0.0,0.0,0.0,0.0,0.0,0.0,0.0,0.0,0.0,0.0,0.0,0.0,0.0,0.0,0.0,0.0,0.0,0.0,0.0,0.0,0.0,0.0,0.0,0.0,0.0,0.0,0.0,0.0,0.0,0.0,0.0,0.0,0.0,0.0,0.0,0.0,0.0,0.0,0.0,0.0,0.0,0.0,0.0,0.0,0.0,0.0,0.0,0.0,0.0,0.0,0.0,0.0,0.0,0.0,0.0,0.0,0.0,0.0,0.0,0.0,0.0,0.0,0.0,0.0,0.0,0.0,0.0,0.0,0.0,0.0,0.0,0.0,0.0,0.0,0.0,0.0,0.0,0.0,0.0,0.0,0.0,0.0,0.0,0.0,0.0,0.0,0.0,0.0,-1.6589,-1.7074,-1.881,-1.9403,-1.9402,-1.8692,-1.8933,-1.796,-1.5224,-1.4766,0.0,0.0,0.0,0.0,0.0,0.0,0.0,0.0,0.0,0.0,0.0,0.0,0.0,0.0,0.0,0.0,0.0,0.0,0.0,0.0,0.0,0.0,0.0,0.0,0.0,0.0,0.0,0.0,0.0,0.0,0.0,0.0,0.0,0.0,0.0,0.0,0.0,0.0,0.0,0.0,0.0,0.0,0.0,0.0,0.0,0.0,0.0,0.0,0.0,0.0,0.0,0.0,0.0,0.0,0.0,0.0,0.0,0.0,0.0,0.0,0.0,0.0,0.0,0.0,0.0,0.0,0.0,0.0,0.0,0.0,0.0,0.0,0.0,0.0,0.0,0.0,0.0,0.0,0.0,0.0,0.0,0.0,0.0,0.0,0.0,0.0,0.0,0.0,0.0,0.0,0.0,0.0,0.0,0.0,0.0,0.0,0.0,0.0,0.0,0.0,0.0,0.0,-1.6533,-1.6893,-1.7486,-1.8234,-1.8094,-1.6554,-1.7411,-1.6862,-1.4191,-1.3044,0.0,0.0,0.0,0.0,0.0,0.0,0.0,0.0,0.0,0.0,0.0,0.0,0.0,0.0,0.0,0.0,0.0,0.0,0.0,0.0,0.0,0.0,0.0,0.0,0.0,0.0,0.0,0.0,0.0,0.0,0.0,0.0,0.0,0.0,0.0,0.0,0.0,0.0,0.0,0.0,0.0,0.0,0.0,0.0,0.0,0.0,0.0,0.0,0.0,0.0,0.0,0.0,0.0,0.0,0.0,0.0,0.0,0.0,0.0,0.0,0.0,0.0,0.0,0.0,0.0,0.0,0.0,0.0,0.0,0.0,0.0,0.0,0.0,0.0,0.0,0.0,0.0,0.0,0.0,0.0,0.0,0.0,0.0,0.0,0.0,0.0,0.0,0.0,0.0,0.0,0.0,0.0,0.0,0.0,0.0,0.0,0.0,0.0,0.0,0.0,0.0,0.0,-1.6203,-1.6647,-1.7614,-1.8367,-1.8227,-1.6831,-1.7425,-1.6799,-1.4236,0.0,0.0,0.0,0.0,0.0,0.0,0.0,0.0,0.0,0.0,0.0,0.0,0.0,0.0,0.0,0.0,0.0,0.0,0.0,0.0,0.0,0.0,0.0,0.0,0.0,0.0,0.0,0.0,0.0,0.0,0.0,0.0,0.0,0.0,0.0,0.0,0.0,0.0,0.0,0.0,0.0,0.0,0.0,0.0,0.0,0.0,0.0,0.0,0.0,0.0,0.0,0.0,0.0,0.0,0.0,0.0,0.0,0.0,0.0,0.0,0.0,0.0,0.0,0.0,0.0,0.0,0.0,0.0,0.0,0.0,0.0,0.0,0.0,0.0,0.0,0.0,0.0,0.0,0.0,0.0,0.0,0.0,0.0,0.0,0.0,0.0,0.0,0.0,0.0,0.0,0.0,0.0,0.0,0.0,0.0,0.0,0.0,0.0,0.0,0.0,0.0,0.0,-1.573,-1.5933,-1.6377,-1.7484,-1.7863,-1.7648,-1.6686,-1.6918,-1.6259,-1.4236,0.0,0.0,0.0,0.0,0.0,0.0,0.0,0.0,0.0,0.0,0.0,0.0,0.0,0.0,0.0,0.0,0.0,0.0,0.0,0.0,0.0,0.0,0.0,0.0,0.0,0.0,0.0,0.0,0.0,0.0,0.0,0.0,0.0,0.0,0.0,0.0,0.0,0.0,0.0,0.0,0.0,0.0,0.0,0.0,0.0,0.0,0.0,0.0,0.0,0.0,0.0,0.0,0.0,0.0,0.0,0.0,0.0,0.0,0.0,0.0,0.0,0.0,0.0,0.0,0.0,0.0,0.0,0.0,0.0,0.0,0.0,0.0,0.0,0.0,0.0,0.0,0.0,0.0,0.0,0.0,0.0,0.0,0.0,0.0,0.0,0.0,0.0,0.0,0.0,0.0,0.0,0.0,0.0,0.0,0.0,0.0,0.0,0.0,0.0,0.0,0.0,0.0,-1.562,-1.5818,-1.6136,-1.683,-1.6474,-1.6095,-1.5812,-1.5545,-1.4968,0.0,0.0,0.0,0.0,0.0,0.0,0.0,0.0,0.0,0.0,0.0,0.0,0.0,0.0,0.0,0.0,0.0,0.0,0.0,0.0,0.0,0.0,0.0,0.0,0.0,0.0,0.0,0.0,0.0,0.0,0.0,0.0,0.0,0.0,0.0,0.0,0.0,0.0,0.0,0.0,0.0,0.0,0.0,0.0,0.0,0.0,0.0,0.0,0.0,0.0,0.0,0.0,0.0,0.0,0.0,0.0,0.0,0.0,0.0,0.0,0.0,0.0,0.0,0.0,0.0,0.0,0.0,0.0,0.0,0.0,0.0,0.0,0.0,0.0,0.0,0.0,0.0,0.0,0.0,0.0,0.0,0.0,0.0,0.0,0.0,0.0,0.0,0.0,0.0,0.0,0.0,0.0,0.0,0.0,0.0,0.0,0.0,0.0,0.0,0.0,0.0,0.0,0.0,-1.5345,-1.5726,-1.6028,-1.6373,-1.612,-1.5609,-1.48,-1.498,-1.4506,-1.3084,0.0,0.0,0.0,0.0,0.0,0.0,0.0,0.0,0.0,0.0,0.0,0.0,0.0,0.0,0.0,0.0,0.0,0.0,0.0,0.0,0.0,0.0,0.0,0.0,0.0,0.0,0.0,0.0,0.0,0.0,0.0,0.0,0.0,0.0,0.0,0.0,0.0,0.0,0.0,0.0,0.0,0.0,0.0,0.0,0.0,0.0,0.0,0.0,0.0,0.0,0.0,0.0,0.0,0.0,0.0,0.0,0.0,0.0,0.0,0.0,0.0,0.0,0.0,0.0,0.0,0.0,0.0,0.0,0.0,0.0,0.0,0.0,0.0,0.0,0.0,0.0,0.0,0.0,0.0,0.0,0.0,0.0,0.0,0.0,0.0,0.0,0.0,0.0,0.0,0.0,0.0,0.0,0.0,0.0,0.0,0.0,0.0,0.0,0.0,0.0,0.0,0.0,-1.5176,-1.548,-1.5775,-1.6273,-1.6109,-1.5565,-1.4581,-1.4712,-1.4199,-1.2667,0.0,0.0,0.0,0.0,0.0,0.0,0.0,0.0,0.0,0.0,0.0,0.0,0.0,0.0,0.0,0.0,0.0,0.0,0.0,0.0,0.0,0.0,0.0,0.0,0.0,0.0,0.0,0.0,0.0,0.0,0.0,0.0,0.0,0.0,0.0,0.0,0.0,0.0,0.0,0.0,0.0,0.0,0.0,0.0,0.0,0.0,0.0,0.0,0.0,0.0,0.0,0.0,0.0,0.0,0.0,0.0,0.0,0.0,0.0,0.0,0.0,0.0,0.0,0.0,0.0,0.0,0.0,0.0,0.0,0.0,0.0,0.0,0.0,0.0,0.0,0.0,0.0,0.0,0.0,0.0,0.0,0.0,0.0,0.0,0.0,0.0,0.0,0.0,0.0,0.0,0.0,0.0,0.0,0.0,0.0,0.0,0.0,0.0,0.0,0.0,0.0,0.0,-1.511,-1.5233,-1.5463,-1.6224,-1.6115,-1.5567,-1.4573,-1.4451,-1.3856,-1.2575,0.0,0.0,0.0,0.0,0.0,0.0,0.0,0.0,0.0,0.0,0.0,0.0,0.0,0.0,0.0,0.0,0.0,0.0,0.0,0.0,0.0,0.0,0.0,0.0,0.0,0.0,0.0,0.0,0.0,0.0,0.0,0.0,0.0,0.0,0.0,0.0,0.0,0.0,0.0,0.0,0.0,0.0,0.0,0.0,0.0,0.0,0.0,0.0,0.0,0.0,0.0,0.0,0.0,0.0,0.0,0.0,0.0,0.0,0.0,0.0,-1.6768,-1.5968,0.0,0.0,0.0,0.0,0.0,0.0,0.0,0.0,0.0,0.0,0.0,0.0,0.0,0.0,0.0,0.0,0.0,0.0,0.0,0.0,0.0,0.0,0.0,0.0,0.0,0.0,0.0,0.0,0.0,0.0,0.0,0.0,0.0,0.0,0.0,0.0,0.0,0.0,0.0,0.0,-1.5117,-1.5471,-1.543,-1.4825,-1.4541,-1.382,-1.2405,-1.2687,-1.2814,-1.2449,-1.147,0.0,0.0,0.0,0.0,0.0,0.0,0.0,0.0,0.0,0.0,0.0,0.0,0.0,0.0,0.0,0.0,0.0,0.0,0.0,0.0,0.0,0.0,0.0,0.0,0.0,0.0,0.0,0.0,0.0,0.0,0.0,0.0,0.0,0.0,0.0,0.0,0.0,0.0,0.0,0.0,0.0,0.0,0.0,0.0,0.0,0.0,0.0,0.0,0.0,0.0,0.0,0.0,0.0,0.0,0.0,0.0,0.0,0.0,0.0,-2.043,-1.9598,0.0,0.0,0.0,0.0,0.0,0.0,0.0,0.0,0.0,0.0,0.0,0.0,0.0,0.0,0.0,0.0,0.0,0.0,0.0,0.0,0.0,0.0,0.0,0.0,0.0,0.0,0.0,0.0,0.0,0.0,0.0,0.0,0.0,0.0,0.0,0.0,0.0,0.0,0.0,0.0,-1.4681,-1.5303,-1.5499,-1.5102,-1.4647,-1.3895,-1.2662,-1.2516,-1.2337,-1.1927,-1.1597,0.0,0.0,0.0,0.0,0.0,0.0,0.0,0.0,0.0,0.0,0.0,0.0,0.0,0.0,0.0,0.0,0.0,0.0,0.0,0.0,0.0,0.0,0.0,0.0,0.0,0.0,0.0,0.0,0.0,0.0,0.0,0.0,0.0,0.0,0.0,0.0,0.0,0.0,0.0,0.0,0.0,0.0,0.0,0.0,0.0,0.0,0.0,0.0,0.0,0.0,0.0,0.0,0.0,-2.5478,-2.674,-2.7214,-2.6722,-2.6812,-2.7134,-2.3967,-2.3443,-2.4505,-2.0947,0.0,0.0,0.0,0.0,0.0,0.0,0.0,0.0,0.0,0.0,0.0,0.0,0.0,0.0,0.0,0.0,0.0,0.0,0.0,0.0,0.0,0.0,-1.59,-1.7402,-1.7982,-1.8112,-1.7638,0.0,0.0,0.0,0.0,0.0,0.0,0.0,0.0,0.0,0.0,0.0,-1.4443,-1.5107,-1.5639,-1.5827,-1.5137,-1.4337,-1.3487,-1.2722,-1.2071,-1.1563,-1.1879,-1.173,0.0,0.0,0.0,0.0,0.0,0.0,0.0,0.0,0.0,0.0,0.0,0.0,0.0,0.0,0.0,0.0,0.0,0.0,0.0,0.0,0.0,0.0,0.0,0.0,0.0,0.0,0.0,0.0,0.0,0.0,0.0,0.0,-0.719,-0.8034,0.0,0.0,0.0,0.0,0.0,0.0,0.0,0.0,0.0,0.0,0.0,0.0,0.0,-2.228,-2.0055,-2.4315,-2.716,-2.8469,-2.9386,-3.0081,-3.0547,-3.0287,-2.8459,-2.5579,-2.8002,0.0,-2.2777,-1.8422,0.0,0.0,0.0,0.0,0.0,0.0,0.0,0.0,0.0,0.0,0.0,0.0,0.0,0.0,0.0,0.0,0.0,0.0,0.0,0.0,0.0,0.0,-1.828,-1.9377,-1.9535,-1.9741,-2.0735,-1.9404,-1.7957,-1.7641,-1.7141,-1.6448,0.0,0.0,0.0,0.0,0.0,0.0,-1.5317,-1.5562,-1.5667,-1.5639,-1.4473,-1.3407,-1.2692,-1.1927,-1.1646,-1.2056,-1.1727,-1.1737,-1.2224,-1.2208,0.0,0.0,0.0,0.0,0.0,0.0,0.0,0.0,0.0,0.0,0.0,0.0,0.0,0.0,0.0,0.0,0.0,0.0,0.0,0.0,0.0,0.0,0.0,0.0,0.0,0.0,0.0,0.0,0.0,-0.7468,-0.9658,-1.1254,-1.2431,-1.3437,0.0,0.0,0.0,0.0,0.0,0.0,0.0,0.0,0.0,-2.4076,-2.6425,-2.7278,-2.6532,-2.8987,-3.0451,-3.0926,-3.1813,-3.0657,-2.7827,-3.123,-2.8928,-2.2383,-2.5201,-2.3612,-1.9106,-2.0045,-1.9057,-1.6878,0.0,0.0,0.0,0.0,-1.5616,-1.5815,-1.5797,-1.6039,-1.63,-1.6461,0.0,0.0,0.0,0.0,0.0,0.0,0.0,-1.7644,-1.809,-1.8319,-1.86,-1.9324,-1.9498,-1.9693,-2.0429,-1.9749,-1.8879,-1.8607,-1.787,-1.6793,-1.5095,-1.4699,0.0,0.0,0.0,-1.4844,-1.5213,-1.5651,-1.593,-1.593,-1.4703,-1.3776,-1.3474,-1.2607,-1.2097,-1.2091,-1.2279,-1.2217,-1.1788,-1.2343,-1.2453,0.0,0.0,0.0,0.0,0.0,0.0,0.0,0.0,0.0,0.0,0.0,0.0,0.0,0.0,0.0,0.0,0.0,0.0,0.0,0.0,0.0,0.0,0.0,0.0,0.0,0.0,0.0,0.0,-1.054,-1.2777,-1.4568,-1.6083,-1.7342,0.0,0.0,0.0,0.0,0.0,0.0,-2.6048,-2.4143,-2.4626,-2.8303,-2.8853,-2.9326,-2.9939,-2.9339,-2.9523,-3.0449,-2.9982,-2.7773,-2.4256,-2.8802,-2.6645,-1.9479,-2.2335,-2.033,-1.5352,-1.9144,-1.895,-1.6327,-1.6167,-1.5963,-1.5782,-1.5877,-1.5917,-1.6,-1.6427,-1.6825,-1.7214,-1.7262,-1.7499,-1.7806,-1.7985,0.0,0.0,0.0,0.0,-1.9328,-1.9494,-1.9526,-1.9516,-1.9645,-1.9781,-1.993,-2.0083,-1.9785,-1.9437,-1.9109,-1.845,-1.7259,-1.5148,-1.4991,0.0,-1.2912,-1.3984,-1.5018,-1.512,-1.5541,-1.5926,-1.6213,-1.5006,-1.4184,-1.4198,-1.3347,-1.2635,-1.2255,-1.2865,-1.2823,-1.1896,-1.2831,-1.3178,-1.2678,0.0,0.0,0.0,0.0,0.0,0.0,0.0,0.0,0.0,0.0,0.0,0.0,0.0,0.0,0.0,0.0,0.0,0.0,0.0,0.0,0.0,0.0,0.0,0.0,0.0,0.0,0.0,0.0,0.0,-1.8686,-2.0514,0.0,0.0,0.0,0.0,-2.499,-2.6427,-2.7742,-2.8936,-2.9852,-2.8849,-2.5612,-2.6205,-2.654,-2.6448,-2.1938,-2.1803,-2.5971,-2.1486,-2.0189,-2.167,-2.1623,-2.0099,-1.7754,-2.2157,-1.9601,-1.2267,-1.2246,-1.1858,-1.1465,-1.3454,-1.3829,-1.3419,-1.513,-1.5396,-1.4957,-1.557,-1.5771,-1.5948,-1.6917,-1.775,-1.8561,-1.9281,-1.9198,0.0,0.0,-2.0648,-2.1586,-2.1432,-2.1928,-2.2275,-2.1471,-2.1411,-2.1403,-2.1115,-2.0354,-1.9674,-1.9349,-1.9521,-1.9012,-1.6993,0.0,-1.6767,-1.452,-1.4278,-1.4629,-1.5379,-1.5223,-1.5391,-1.6293,-1.5021,-1.4127,-1.4198,-1.35,-1.3035,-1.2856,-1.3128,-1.3397,-1.3667,-1.4145,-1.4256,-1.3906,-1.3452,0.0,0.0,0.0,0.0,0.0,0.0,0.0,0.0,0.0,0.0,0.0,0.0,0.0,0.0,0.0,0.0,0.0,0.0,0.0,0.0,0.0,0.0,0.0,0.0,0.0,0.0,0.0,0.0,-2.0685,-1.8847,0.0,-2.4715,-2.3357,-2.3693,-2.7576,-2.3346,-2.2015,-2.5299,-2.1065,-1.9313,-2.0999,-2.1886,-2.2237,-2.2014,-2.1043,-2.1017,-2.1961,-2.156,-1.984,-1.7111,-2.1246,-1.9456,-1.3415,-1.8595,-1.7817,-1.3032,-1.3224,-1.2753,-1.1954,-1.2816,-1.3034,-1.3097,-1.4728,-1.5411,-1.5741,-1.6849,-1.7588,-1.8046,-1.8546,-1.9044,-1.9421,-1.9616,-2.0134,-2.0685,-2.0773,-2.1281,-2.1678,-2.1395,-2.1122,-2.0873,-2.0465,-2.0368,-2.0381,-2.0395,-1.9929,-1.9513,-1.9378,-1.9293,-1.8587,-1.668,-1.6843,-1.6521,-1.4307,-1.462,-1.5137,-1.5304,-1.5333,-1.5548,-1.5966,-1.5134,-1.4608,-1.4714,-1.4112,-1.361,-1.33,-1.336,-1.3361,-1.3164,-1.3739,-1.4111,-1.4246,-1.3445,-1.2953,0.0,0.0,0.0,0.0,0.0,0.0,0.0,0.0,0.0,0.0,0.0,0.0,0.0,0.0,0.0,0.0,0.0,0.0,0.0,0.0,0.0,0.0,0.0,0.0,0.0,-1.3535,-1.4947,-1.9952,-1.7829,-1.8129,-2.3662,-2.1712,-2.1625,-2.5312,-2.0511,-1.868,-2.1627,-1.7263,-1.6082,-1.9212,-1.8894,-1.909,-1.9896,-1.8159,-1.7501,-1.7882,-1.7969,-1.6368,-1.3565,-1.7829,-1.6886,-1.2032,-1.5779,-1.6239,-1.4465,-1.4475,-1.4392,-1.4103,-1.3964,-1.3947,-1.4184,-1.5561,-1.6365,-1.6909,-1.8011,-1.8674,-1.9056,-1.9645,-1.9928,-2.0117,-2.0242,-2.095,-2.1709,-2.1712,-2.1941,-2.2089,-2.1728,-2.1193,-2.0703,-2.0332,-2.0154,-2.0083,-2.0233,-1.9826,-1.9425,-1.9336,-1.903,-1.8255,-1.6468,-1.6593,-1.626,-1.4187,-1.4612,-1.509,-1.4923,-1.507,-1.5249,-1.5408,-1.5029,-1.471,-1.4532,-1.4166,-1.3785,-1.3421,-1.3106,-1.3064,-1.3332,-1.3434,-1.3748,-1.4356,-1.3237,-1.2807,-1.3198,0.0,0.0,0.0,0.0,0.0,0.0,0.0,0.0,0.0,0.0,0.0,0.0,0.0,0.0,0.0,0.0,0.0,0.0,0.0,0.0,0.0,0.0,0.0,-1.1866,-1.4092,-1.5923,-1.6669,-1.7766,-1.8393,-1.8165,-1.8135,-1.8186,-1.8356,-1.8642,-1.8687,-1.8444,-1.9441,-2.0021,-2.0035,-1.7174,-1.6978,-1.9824,-1.2804,-1.0773,-1.3635,-1.0163,-0.9399,-1.1165,-1.0953,-1.1929,-1.389,-1.4108,-1.4984,-1.6055,-1.5211,-1.5951,-1.7462,-1.6662,-1.6337,-1.6483,-1.75,-1.8012,-1.8271,-1.8854,-1.8834,-1.8859,-2.0043,-2.0419,-2.0561,-2.1171,-2.1608,-2.1985,-2.227,-2.2686,-2.2998,-2.2505,-2.2286,-2.2092,-2.1385,-2.0993,-2.0784,-2.0729,-2.0143,-1.9527,-1.9196,-1.8845,-1.8134,-1.6628,-1.6649,-1.6253,-1.4351,-1.4324,0.0,-1.4319,-1.4365,-1.4461,-1.4711,-1.4711,-1.4429,-1.3714,-1.3645,-1.3512,-1.3208,-1.241,-1.2654,-1.4288,-1.3364,-1.3274,-1.4254,-1.3032,-1.2405,-1.2437,0.0,0.0,0.0,0.0,0.0,0.0,0.0,0.0,0.0,0.0,0.0,0.0,0.0,0.0,0.0,0.0,0.0,0.0,0.0,0.0,0.0,-1.1671,-1.2502,-1.3891,-1.2945,-1.3594,-1.7732,-1.4087,-1.3396,-1.8737,-1.6257,-1.583,-1.9476,-1.6488,-1.4424,-1.4257,-1.1503,-0.9813,-0.9683,-0.9412,-0.9516,-0.9879,-0.9029,-0.8627,-0.869,-1.0099,-1.0485,-1.0096,-1.1414,-1.2302,-1.2851,-1.2876,-1.3454,-1.4268,-1.4791,-1.5885,-1.6985,-1.6132,-1.6522,-1.7518,-1.8136,-1.8828,-1.9479,-1.9826,-1.9891,-2.0004,-2.0918,-2.0925,-2.0623,-2.1129,-2.153,-2.1891,-2.1851,-2.2163,-2.2388,-2.1929,-2.1542,-2.1186,-2.0941,-2.0845,-2.0855,-2.1145,-2.0548,-1.9956,-1.9963,-1.9301,-1.8489,-1.7755,-1.7142,-1.6457,-1.5572,-1.4773,-1.4254,-1.4235,-1.4235,-1.4496,-1.5051,-1.5139,-1.5023,-1.4785,-1.4273,-1.3773,-1.329,-1.2679,-1.2737,-1.3643,-1.3426,-1.3446,-1.3715,-1.4027,-1.3988,0.0,0.0,0.0,0.0,0.0,0.0,0.0,0.0,0.0,0.0,0.0,0.0,0.0,0.0,0.0,0.0,0.0,0.0,0.0,0.0,0.0,0.0,-1.1359,-1.2119,-1.2852,-1.1723,-1.2083,-1.5584,-1.2049,-1.1041,-1.5455,-1.2877,-1.2178,-1.5206,-1.2292,-1.0312,-1.0323,-0.7752,-0.617,-0.6127,-0.6816,-0.6911,-0.6314,-0.7935,-0.8416,-0.7805,-1.0045,-1.089,-1.0498,-1.1678,-1.2365,-1.2748,-1.2942,-1.3709,-1.493,-1.5389,-1.6535,-1.7987,0.0,0.0,0.0,0.0,-2.0063,-2.0466,-2.0647,-2.0767,-2.0889,-2.1486,-2.1445,-2.1219,-2.1034,-2.1406,-2.1728,-2.1279,-2.1485,-2.1753,-2.1481,-2.1163,-2.0872,-2.0891,-2.0845,-2.089,-2.1145,-2.0584,-2.0002,-1.9866,-1.915,0.0,-1.8335,-1.7319,-1.6375,-1.5957,-1.4883,-1.4124,-1.4124,-1.4405,-1.4735,-1.5038,-1.5434,-1.5475,-1.5044,-1.4538,0.0,0.0,0.0,-1.2744,-1.3321,-1.3617,0.0,0.0,0.0,-1.4299,-1.4034,-1.3398,0.0,0.0,-1.1872,-1.1399,0.0,0.0,0.0,0.0,0.0,0.0,0.0,0.0,0.0,0.0,0.0,0.0,0.0,0.0,0.0,0.0,-1.071,-1.0803,-1.0685,-1.0917,-1.1322,-1.1976,-1.121,-1.0585,-1.0605,-0.9216,-0.8455,-0.8629,-0.7708,-0.7105,-0.7221,-0.694,0.0,0.0,0.0,-0.7553,-0.6982,-0.8639,-0.9344,-0.9217,-1.0109,-1.0904,-1.1487,-1.1785,-1.2262,-1.2931,-1.3607,-1.4848,-1.6532,-1.6274,-1.7529,-1.9579,-1.8904,-1.9446,-2.0637,-2.123,-2.1346,-2.1099,-2.1154,0.0,0.0,-2.1917,-2.2035,-2.1859,-2.1153,-2.1258,-2.155,-2.0772,-2.0846,-2.1152,-2.1153,-2.1054,-2.0964,-2.0927,-2.0894,-2.0846,-2.0882,-2.0381,-1.9804,-1.9253,-1.8683,-1.8344,-1.8539,-1.7288,-1.6172,-1.5837,-1.4848,-1.4126,-1.4093,-1.4796,-1.52,-1.5034,-1.5775,0.0,-1.498,-1.4742,-1.4488,-1.4186,-1.3204,-1.29,-1.339,-1.3939,-1.4287,-1.4383,-1.4082,-1.4002,-1.4196,-1.2986,-1.2861,-1.3744,-1.2698,-1.193,0.0,0.0,0.0,0.0,0.0,0.0,0.0,0.0,0.0,0.0,0.0,0.0,0.0,0.0,0.0,-1.1266,-1.1388,-1.1773,-1.3042,-1.2558,-1.1994,-1.1796,-1.0891,-1.0301,-1.0373,-0.921,-0.8449,-0.8611,-0.8243,-0.7876,-0.7711,-0.7807,-0.7709,-0.7224,-0.7865,-0.8019,-0.7756,-0.9192,-0.9723,-0.9217,-1.0895,0.0,-1.0708,-1.1389,-1.178,-1.197,-1.3113,-1.3782,-1.4268,-1.6021,-1.7987,-1.9812,-1.992,-2.0102,-2.0339,-2.011,-2.0234,-2.0391,-2.0693,-2.0866,-2.1346,-2.309,-2.266,-2.1565,-2.1977,-2.1511,0.0,-2.0543,-2.0717,-2.0938,-2.0706,-2.0668,-2.0701,-2.069,-2.0822,-2.0922,-2.0756,-2.0188,-1.9516,-1.9043,-1.848,-1.8108,-1.8305,-1.7102,-1.6167,-1.6327,-1.5503,-1.4862,-1.4801,-1.538,-1.5932,-1.6378,-1.6563,-1.6539,-1.6099,-1.5715,-1.5168,-1.4469,-1.4293,-1.4191,-1.4198,-1.4796,-1.4909,-1.4408,-1.5066,-1.5181,-1.4732,-1.4061,-1.3701,-1.361,-1.2585,-1.2286,0.0,0.0,0.0,0.0,0.0,0.0,0.0,0.0,0.0,0.0,0.0,-1.1283,-1.0931,0.0,-1.1073,-1.186,-1.1686,-1.1844,-1.2829,-1.2061,-1.1717,-1.2152,-1.1259,-1.0589,-1.0786,-0.9841,-0.9382,-0.966,-0.9482,-0.915,-0.8968,-0.8868,-0.8657,-0.8317,-0.8571,-0.8746,-0.8831,-0.9589,-0.9921,-0.9813,-1.0605,-1.0801,-1.0413,-1.1194,-1.1873,-1.2452,-1.359,-1.4644,-1.5697,-1.7498,-1.8988,-2.0093,-2.0283,-2.0654,-2.1168,-2.0597,-2.0853,-2.1502,-2.1137,-2.1452,-2.2155,-2.3403,-2.2928,-2.1943,-2.1468,-2.1087,-2.0705,-1.9916,-2.02,-2.0719,-2.0662,-2.0753,-2.0828,-2.0667,-2.0871,-2.1019,-2.0663,-2.0098,-1.9486,-1.9001,-1.8248,-1.7733,-1.7882,-1.6992,-1.6413,-1.6881,-1.619,-1.5608,-1.5559,-1.6109,-1.6583,-1.6765,-1.7178,-1.7315,-1.7077,-1.6573,-1.6017,-1.5447,-1.5078,-1.4972,-1.5115,-1.5294,-1.5335,-1.5198,-1.5381,-1.5187,-1.4506,-1.3931,-1.34,-1.2889,-1.2344,-1.2226,0.0,0.0,0.0,0.0,0.0,0.0,0.0,-1.1461,-1.1071,-1.0623,-1.1079,-1.1625,-1.1799,-1.1568,-1.1632,-1.2335,-1.2064,-1.1802,-1.1973,-1.1292,-1.1255,-1.2225,-1.1326,-1.0683,-1.1009,-1.0289,-0.9947,-1.0297,-1.0113,-1.0011,-0.9875,-0.9552,-0.9366,-0.9548,-0.9414,-0.9507,-0.9905,-0.9949,-1.0258,-1.0649,-1.0395,-1.0413,-1.0708,-1.1389,-1.2262,-1.3409,-1.4734,-1.6445,-1.8249,-1.9204,-1.9845,-2.0201,-2.0201,-2.0826,-2.1642,-2.0997,-2.1391,-2.2261,-2.1633,-2.2203,-2.3137,-2.3484,-2.3193,-2.2426,-2.1053,-2.0855,-2.0907,-1.9918,-2.0183,-2.0802,-2.0842,-2.1018,-2.1108,-2.0706,-2.097,-2.1116,-2.0617,-2.0021,-1.9452,-1.8981,-1.8051,-1.7308,-1.7365,-1.6863,-1.6599,-1.7136,-1.6613,-1.6167,-1.6204,-1.6794,-1.7161,-1.698,-1.7596,-1.7895,-1.7625,-1.6998,-1.6553,-1.6355,-1.5659,-1.5441,-1.5901,-1.5727,-1.5745,-1.6076,-1.5508,-1.4909,-1.4337,-1.3536,-1.2892,-1.2361,-1.2196,-1.2041,-1.0012,-1.1068,-1.2157,-1.1804,-1.1799,-1.2145,0.0,-1.2765,-1.2178,-1.2326,-1.2307,-1.2328,-1.2149,-1.1968,-1.2179,-1.2837,-1.2695,-1.2322,-1.1993,-1.1582,-1.1211,-1.0699,-0.9891,-0.9561,-1.0117,-0.9383,-0.8901,-0.8726,-0.863,-0.8784,-0.912,-0.9405,-0.9659,-0.9957,-1.029,-1.0402,-1.0519,-1.0702,-1.1086,-1.1502,-1.1206,-1.1292,-1.178,-1.1878,-1.2743,-1.4268,-1.6893,-1.8596,-1.9654,-1.9837,-1.9928,-1.9928,-1.9928,-2.0011,-2.0076,-1.9812,-2.0142,-2.0797,-2.1398,-2.2287,-2.3211,-2.4078,-2.3633,-2.2671,-2.235,-2.1977,-2.1645,-2.179,-2.1661,-2.146,-2.1416,-2.1256,-2.1027,-2.0817,-2.1055,-2.1212,-2.0617,-1.9852,-1.9184,-1.8956,-1.7857,-1.696,-1.696,-1.6688,-1.6494,-1.6572,-1.6519,-1.6479,-1.6557,-1.7196,-1.7612,-1.7585,-1.7801,-1.7747,-1.7282,-1.6471,-1.6147,-1.6441,-1.581,-1.5664,-1.6293,-1.6299,-1.633,-1.6423,-1.5562,-1.5186,-1.5262,-1.3765,-1.2977,-1.2907,-1.2357,-1.2077,-1.1758,-1.3091,-1.4141,-1.4017,-1.4573,-1.4957,-1.4087,-1.3824,-1.3543,-1.3172,-1.3467,-1.3707,-1.3524,-1.3533,-1.3756,-1.4171,-1.3349,-1.2669,-1.2641,-1.1397,-1.0362,-1.0069,-0.9275,-0.9249,-1.0116,-0.9665,-0.9303,-0.9308,-0.9612,-0.9865,-1.009,-1.0304,-1.0581,-1.077,-1.0845,-1.1051,-1.1444,-1.1852,-1.2178,-1.2502,-1.2404,-1.236,-1.2467,-1.3323,-1.493,-1.7001,-1.8864,-1.9903,-2.0382,-2.0997,-2.0826,-2.0374,-2.0817,-2.0709,-2.0331,-2.0249,-2.0685,-2.1526,-2.2515,-2.315,-2.365,-2.4544,-2.3924,-2.2819,-2.2243,-2.1893,-2.1713,-2.1848,-2.1597,-2.146,-2.1739,-2.1481,-2.1147,-2.1053,-2.1264,-2.1452,-2.1111,-2.0301,-1.9489,-1.8976,-1.8261,-1.7702,-1.7501,-1.7183,-1.6914,-1.6995,-1.6784,-1.665,-1.665,-1.6916,-1.7195,-1.7406,-1.7585,-1.7652,-1.7557,-1.6757,-1.6216,-1.6157,-1.5964,-1.5862,-1.5889,-1.6273,-1.6436,-1.6318,-1.5562,-1.4969,-1.4557,-1.3595,-1.305,-1.2946,-1.2715,-1.2611,-1.3092,-1.4641,-1.5903,-1.5535,-1.6264,-1.6683,-1.4898,-1.4743,-1.4861,-1.4221,-1.4572,-1.5002,-1.4911,-1.4826,-1.489,-1.5163,-1.3979,-1.3004,-1.2931,-1.1175,-0.9816,-0.9723,-0.9009,-0.9013,-1.0108,-0.9664,-0.9377,-0.9402,-0.9921,-1.0459,-1.0783,-1.1022,-1.1408,-1.2064,-1.1919,-1.2162,-1.28,-1.3068,-1.3339,-1.3601,-1.3414,-1.3323,-1.3528,-1.5216,-1.7267,-1.9405,-2.0619,-2.1087,-2.1186,-2.1891,-2.1535,-2.0645,-2.1168,-2.106,-2.0593,-2.0782,-2.1409,-2.2315,-2.3404,-2.3747,-2.3927,-2.4393,-2.3932,-2.3044,-2.2211,-2.2062,-2.2243,-2.2281,-2.2127,-2.206,-2.2432,-2.2046,-2.1577,-2.1506,-2.1532,-2.1471,-2.1264,-2.0553,-1.9729,-1.9184,-1.8772,-1.8439,-1.8196,-1.7813,-1.7402,-1.6956,-1.6784,-1.665,-1.665,-1.6728,-1.679,-1.6883,-1.7101,-1.7276,-1.7317,-1.6661,-1.6183,-1.5973,-1.6044,-1.5941,-1.5778,-1.6278,-1.6373,-1.6065,-1.5342,-1.4602,-1.386,-1.3226,-1.2899,-1.2946,-1.2946,-1.2946,-1.2843,-1.4536,-1.6324,-1.5063,-1.5268,-1.5781,-1.5514,-1.5713,-1.5785,-1.5752,-1.5799,-1.5749,-1.5805,-1.5328,-1.5089,-1.5347,-1.4546,-1.3513,-1.2499,-1.1239,-1.0285,-0.9698,-0.9059,-0.897,-0.9606,-0.8924,-0.8329,-0.8038,-0.8567,-0.944,-1.0643,-1.1298,-1.2253,-1.3761,-1.3896,-1.4076,-1.4388,-1.4388,-1.4484,-1.4765,-1.419,-1.4286,-1.5146,-1.7539,-1.9455,-2.0899,-2.1872,-2.2246,-2.2059,-2.2344,-2.1544,-2.0292,-2.0546,-2.0619,-2.0683,-2.115,-2.1774,-2.257,-2.3444,-2.3898,-2.3897,-2.3426,-2.3423,-2.3405,-2.2617,-2.2916,-2.3593,-2.4009,-2.3943,-2.3806,-2.3854,-2.3257,-2.2604,-2.2312,-2.1844,-2.1313,-2.0894,-2.0165,-1.9626,-1.975,-1.9262,-1.8799,-1.876,-1.8605,-1.7822,-1.5953,-1.6151,-1.6494,-1.6494,-1.6728,-1.6704,-1.62,-1.642,-1.6481,-1.6068,-1.5772,-1.579,-1.6182,-1.581,-1.5874,-1.6429,-1.662,-1.6325,-1.562,-1.4792,-1.4048,-1.3517,-1.2574,-1.2438,-1.3012,-1.2946,-1.2908,-1.4986,-1.6771,-1.8108,-1.7499,-1.7862,-1.8064,-1.7092,-1.6762,-1.6511,-1.5652,-1.5713,-1.5589,-1.4494,-1.4879,-1.502,-1.4249,-1.3642,-1.3051,-1.2469,-1.122,-1.0283,-1.0189,-0.9929,-0.9784,-1.0006,-0.9579,-0.9361,-0.9594,-1.0166,-1.0891,-1.1573,-1.2281,-1.2951,-1.3676,-1.3752,-1.4133,-1.4891,-1.4891,-1.5152,-1.5776,-1.6388,-1.7435,-1.8722,-1.9754,-2.0648,-2.1516,-2.2344,-2.253,-2.2344,-2.253,-2.1989,-2.1078,-2.1784,-2.1952,-2.1854,-2.2473,-2.3193,-2.3907,-2.4509,-2.4492,-2.4148,-2.425,-2.4067,-2.3765,-2.2897,-2.3224,-2.4043,-2.4166,-2.4186,-2.4171,-2.3714,-2.3267,-2.2656,-2.1666,-2.1426,-2.1215,-2.066,-2.0267,-1.9837,-1.9371,-1.9533,-1.9652,-1.9491,-1.8914,-1.7676,-1.5459,-1.5154,-1.5212,-1.5286,-1.5726,-1.5888,-1.5548,-1.5607,-1.5802,-1.6059,-1.5274,-1.4869,-1.5053,-1.536,-1.5508,-1.5429,-1.6187,-1.6361,-1.5862,-1.4817,-1.4253,-1.4164,-1.319,-1.3108,-1.3921,-1.3951,-1.3766,-1.6156,-1.7837,-1.8964,-1.8689,-1.8838,-1.8864,-1.7892,-1.7438,-1.6917,-1.5568,-1.5468,-1.5185,-1.3446,-1.3779,-1.4035,-1.3324,-1.2646,-1.2285,-1.2463,-1.1164,-1.0388,-1.0834,-1.0631,-1.0586,-1.075,-1.0825,-1.0829,-1.0894,-1.1587,-1.2276,-1.2859,-1.3391,-1.4112,-1.4756,-1.4663,-1.5005,-1.6048,-1.5953,-1.6209,-1.6805,-1.8344,-1.9679,-2.0767,-2.1302,-2.1924,-2.2706,-2.3154,-2.3057,-2.2696,-2.296,-2.2334,-2.1248,-2.2315,-2.257,-2.2482,-2.3008,-2.3714,-2.4498,-2.4492,-2.4251,-2.4002,-2.4115,-2.4061,-2.382,-2.3273,-2.3677,-2.4334,-2.4515,-2.4599,-2.4493,-2.4154,-2.3619,-2.2879,-2.173,-2.1377,-2.1068,-2.0472,-2.0182,-1.98,-1.9071,-1.9446,-1.9845,-1.9504,-1.8715,-1.7571,-1.5908,-1.5114,-1.4664,-1.4523,-1.507,-1.5287,-1.4802,-1.4892,-1.513,-1.5338,-1.4983,-1.4768,-1.4848,-1.5674,-1.6019,-1.574,-1.6216,-1.6207,-1.5622,-1.4502,-1.3836,-1.3645,-1.2996,-1.3189,-1.4109,-1.414,-1.4059,-1.649,-1.7775,-1.902,-1.868,-1.8269,-1.8014,-1.8015,-1.764,-1.6925,-1.5493,-1.5155,-1.4527,0.0,-1.2243,-1.2356,-1.2412,-1.156,-1.1268,-1.2268,-1.1227,-1.0667,-1.1497,-1.1283,-1.1282,-1.1768,-1.2389,-1.25,-1.1968,-1.2615,-1.3435,-1.436,-1.4652,-1.5473,-1.6912,-1.6625,-1.6892,-1.7789,-1.7648,-1.7724,-1.7994,-1.9928,-2.1107,-2.1507,-2.2385,-2.3454,-2.4454,-2.4292,-2.3764,-2.3135,-2.3377,-2.2492,-2.1168,-2.2129,-2.2482,-2.257,-2.2814,-2.3597,-2.4395,-2.3395,-2.3402,-2.3663,-2.3165,-2.3329,-2.37,-2.3801,-2.4154,-2.4659,-2.5098,-2.5105,-2.4951,-2.4966,-2.4236,-2.3264,-2.2468,-2.1659,-2.0885,-2.0334,-1.9965,-1.9584,-1.8946,-1.9117,-1.9265,-1.8917,-1.8246,-1.7558,-1.7095,-1.5973,-1.4965,-1.4284,-1.4822,-1.4877,-1.4007,-1.434,-1.4456,-1.4012,-1.4767,-1.5319,-1.5385,-1.656,-1.7205,-1.7037,-1.6622,-1.593,-1.494,-1.3848,-1.2951,-1.2263,-1.224,-1.2697,-1.3673,-1.3673,-1.3925,-1.9132,-1.9726,-1.9932,-2.0086,-1.9208,-1.8288,-1.859,-1.6917,-1.5044,-1.4182,-1.3143,-1.1804,-0.9863,-1.0664,-1.1311,-1.046,-1.131,-1.2063,-1.1927,-1.1657,-1.1708,-1.2149,-1.2126,-1.2253,-1.2769,-1.346,-1.3738,-1.3578,-1.3877,-1.4115,-1.4276,-1.5405,-1.6143,-1.6218,-1.7313,-1.8003,-1.8431,-1.8481,-1.9387,-2.1103,-2.1957,-2.2785,-2.3663,-2.4298,-2.4423,-2.4292,-2.4368,-2.4003,-2.3377,-2.2843,-2.2658,-2.257,-2.2999,-2.3444,-2.3932,-2.4011,-2.4325,-2.4573,-2.3231,-2.3486,-2.4422,-2.3917,-2.4102,-2.4391,-2.3701,-2.4097,-2.4856,-2.4713,-2.5178,-2.5563,-2.4925,-2.4557,-2.3971,-2.2441,-2.1703,-2.1107,-2.022,-1.999,-1.9762,-1.922,-1.9041,-1.8937,-1.8583,-1.8425,-1.8057,-1.7149,-1.6729,-1.5996,-1.4523,-1.4343,-1.4239,-1.3993,-1.3812,-1.3772,-1.3914,-1.368,-1.3692,-1.4071,-1.4906,-1.529,-1.511,-1.5831,-1.5996,-1.5357,-1.4664,-1.4339,-1.4339,-1.3971,-1.4121,-1.4718,-1.4718,-1.4603,-2.0309,-2.0712,-2.0832,-2.0953,-1.9681,-1.8434,-1.8143,-1.651,-1.4665,-1.2914,-1.193,-1.0757,-0.8651,-0.9682,-1.049,0.0,0.0,0.0,-1.1426,-1.1733,-1.204,0.0,-1.2585,-1.2875,-1.3339,-1.3906,-1.4368,-1.4818,-1.5014,-1.5163,-1.5191,-1.6404,-1.7206,-1.7165,-1.8137,-1.8758,-1.8884,-1.9263,-2.0253,-2.2097,-2.2872,-2.3774,-2.4589,-2.466,-2.4556,-2.4145,-2.389,-2.3378,-2.2775,-2.2591,-2.258,-2.257,-2.327,-2.367,-2.3914,-2.4397,-2.4605,-2.4577,-2.3641,-2.405,-2.4848,-2.4178,-2.4095,-2.4238,-2.4003,-2.435,-2.4843,-2.4845,-2.5353,-2.5708,-2.5077,-2.4703,-2.4012,-2.2375,-2.1667,-2.1082,-1.98,-1.9762,-1.9801,-1.9086,-1.8546,-1.8214,-1.8438,-1.8267,-1.7975,-1.7567,-1.724,-1.6504,-1.5017,-1.4587,-1.4279,-1.3861,-1.3615,-1.3484,-1.3445,-1.3384,-1.3471,-1.3705,-1.4531,-1.498,-1.5018,-1.5381,-1.554,-1.54,-1.4643,-1.4282,-1.4442,-1.4408,-1.4637,-1.5108,-1.5153,-1.5127,-2.0893,-2.1405,-2.1995,-2.1399,-2.0034,-1.8637,-1.7472,-1.6201,-1.4508,-1.1815,-1.1181,-1.0375,-0.8226,-0.9,-0.9789,-0.9175,0.0,-1.1113,-1.1094,-1.1616,-1.2059,-1.2409,-1.3019,-1.3485,-1.3679,-1.4235,-1.4851,-1.5631,-1.6175,-1.6497,-1.6536,-1.7523,-1.8401,-1.9078,-1.9353,-1.952,-1.9708,-1.987,-2.0637,-2.1924,-2.326,-2.419,-2.4777,-2.4492,-2.4323,-2.4168,-2.3345,-2.2699,-2.2265,-2.2698,-2.2658,-2.2306,-2.3444,-2.3614,-2.3388,-2.4495,-2.4749,-2.4581,-2.4312,-2.4671,-2.5048,-2.4315,-2.3904,-2.3816,-2.449,-2.4703,-2.4772,-2.5265,-2.5453,-2.554,-2.5254,-2.4613,-2.3717,-2.231,-2.1537,-2.0772,-1.9434,-1.9485,-1.9559,-1.8737,-1.7857,-1.7481,-1.8352,-1.7974,-1.772,-1.8139,-1.7675,-1.6927,-1.5935,-1.531,-1.4631,-1.3804,-1.3599,-1.3369,-1.3006,-1.3458,-1.3729,-1.3729,-1.4536,-1.5163,-1.5521,-1.5064,-1.4928,-1.5254,-1.439,-1.3849,-1.3807,-1.4376,-1.4856,-1.5222,-1.5285,-1.556,-2.2576,-2.3323,-2.3924,-2.2068,-2.013,-1.8579,-1.7886,-1.5045,0.0,-1.1292,-0.9911,-0.8558,-0.7481,-0.8234,-0.9045,-0.9378,-1.0331,-1.117,-1.1729,-1.2291,-1.2681,0.0,-1.3657,-1.4232,-1.4524,-1.5556,-1.6092,-1.5782,-1.7408,-1.8102,-1.7417,-1.8433,-1.9876,-2.1795,-2.1268,-2.1247,-2.1691,-2.0542,-2.0988,-2.3193,-2.3396,-2.3982,-2.4841,-2.4951,-2.4848,-2.4448,-2.4116,-2.4127,-2.4513,-2.3846,-2.4135,-2.4798,-2.4478,-2.4546,-2.4762,-2.5182,-2.497,-2.4551,-2.4499,-2.4739,-2.4992,-2.4826,-2.4601,-2.4378,-2.448,-2.4582,-2.4645,-2.4656,-2.5064,-2.5451,-2.5102,-2.439,-2.3525,-2.2523,-2.1224,-2.013,-1.9889,-1.9242,-1.861,-1.8112,-1.7682,-1.7459,-1.7814,-1.7842,-1.8086,-1.8824,-1.8464,-1.8064,-1.7962,-1.6027,-1.4594,-1.4349,-1.3636,-1.3233,-1.3386,-1.3143,-1.2913,-1.2758,-1.3297,-1.3804,-1.4146,-1.4516,-1.4853,-1.5142,-1.5372,-1.53,-1.4901,-1.5788,-1.6083,-1.5853,-1.5853,-1.593,-2.3366,-2.3362,-2.3394,-2.2298,-2.0543,-1.8766,-1.7494,0.0,0.0,-1.0753,-0.94,-0.8358,-0.785,-0.8684,0.0,-0.9005,-1.039,-1.1488,-1.1144,-1.2394,-1.3302,-1.3182,-1.3992,-1.4615,-1.4675,-1.573,-1.6411,-1.6536,-1.7979,-1.8717,-1.8287,-1.9256,-2.0494,-2.1984,-2.1094,-2.0788,-2.1263,-2.0712,-2.1316,-2.3086,-2.3186,-2.3823,-2.4968,-2.4659,-2.4481,-2.433,-2.3991,-2.4023,-2.422,-2.3968,-2.4327,-2.5084,-2.4925,-2.4992,-2.5216,-2.5474,-2.5286,-2.4877,-2.492,-2.5099,-2.5382,-2.5652,-2.5355,-2.5001,-2.5231,-2.5191,-2.5037,-2.5172,-2.5018,-2.4792,-2.4613,-2.3809,-2.2841,-2.2154,-2.0823,-1.971,-1.971,-1.8973,-1.828,-1.817,-1.7745,-1.7714,-1.8711,-1.8262,-1.8208,-1.9474,-1.8627,-1.7929,-1.7986,-1.6624,-1.5606,-1.5475,-1.4762,-1.4269,-1.438,-1.4201,-1.3934,-1.3616,-1.4197,-1.4648,-1.4813,-1.5266,-1.5705,-1.6138,-1.6454,-1.6328,-1.5725,-1.657,-1.6643,-1.6018,-1.6117,-1.6126,-2.3829,-2.3703,-2.3349,-2.2751,-2.1239,-1.9202,-1.6835,-1.4815,0.0,-1.0497,-0.9456,-0.8798,-0.8419,-0.9098,-0.9518,0.0,-1.0355,-1.1492,-1.0564,-1.2572,-1.3909,0.0,-1.4558,0.0,-1.4956,-1.6062,-1.703,-1.739,-1.8616,-1.9457,-1.9457,-2.0183,-2.1076,-2.2011,-2.0811,-2.0377,-2.0683,-2.077,-2.1429,-2.2601,-2.3047,-2.3898,-2.505,-2.453,-2.4357,-2.4458,-2.4082,-2.4033,-2.4315,-2.4279,-2.468,-2.5326,-2.5325,-2.5267,-2.5349,-2.5501,-2.5405,-2.5182,-2.5241,-2.5523,-2.5791,-2.6152,-2.5882,-2.5494,-2.5921,-2.5821,-2.5494,-2.5459,-2.4885,-2.415,-2.3852,-2.299,-2.2048,-2.1302,-2.0332,-1.9502,-1.9368,-1.8773,-1.8332,-1.8419,-1.7914,-1.7973,-1.9539,-1.8686,-1.8331,-1.9861,-1.8681,-1.7618,-1.7613,-1.7122,-1.6759,-1.6724,-1.5991,-1.5489,-1.5484,-1.5387,-1.5198,-1.4878,-1.5336,-1.5706,-1.5903,-1.616,-1.6586,-1.7142,-1.7347,-1.7035,-1.6327,-1.7081,-1.6989,-1.6079,-1.6177,-1.6171,-2.4812,-2.5715,-2.6178,-2.3565,-2.2104,-2.0357,-1.6593,0.0,-1.2834,-1.0628,-0.9893,-0.9482,-0.8645,-0.8403,-0.8511,-0.8917,-0.9997,-1.0864,-1.0909,-1.3247,-1.4757,-1.4115,0.0,0.0,-1.5609,-1.7597,-1.8535,-1.7684,-1.9579,-2.1025,-2.1373,-2.1489,-2.2208,-2.3422,-2.2186,-2.1607,-2.1654,-2.1185,-2.1367,-2.2283,-2.3226,-2.4124,-2.4816,-2.519,-2.5352,-2.5352,-2.5153,-2.5732,-2.6789,-2.603,-2.6207,-2.6883,-2.6035,-2.5531,-2.5315,-2.524,-2.5236,-2.5312,-2.5312,-2.5721,-2.6271,-2.5807,-2.574,-2.5853,-2.5983,-2.5935,-2.5598,-2.4446,-2.4245,-2.4096,-2.2747,-2.2021,-2.1302,-1.9946,-1.9861,-1.9924,-1.9191,-1.9042,-1.894,-1.8628,-1.8081,-1.8004,-1.9031,-1.859,-1.8535,-1.9601,-1.8728,-1.7976,-1.7949,-1.7578,-1.7448,-1.7816,-1.6827,-1.6223,-1.6438,-1.6041,-1.5696,-1.5616,-1.5567,-1.5725,-1.6244,-1.6256,-1.6634,-1.7277,-1.7579,-1.7393,-1.6638,-1.7353,-1.7213,-1.628,-1.6151,-1.6114,-2.3929,-2.4326,-2.4233,-2.3402,-2.1638,-1.9449,-1.682,0.0,-1.2721,-1.1365,-1.0424,-0.9773,-0.9525,-0.926,-0.8995,-0.8719,-0.9184,-0.9782,-1.0509,-1.2006,-1.3542,-1.4675,-1.5644,-1.618,-1.5964,-1.8049,-1.9613,-2.0076,-2.0826,-2.1463,-2.2069,-2.202,-2.2312,-2.3191,-2.2422,-2.1932,-2.1784,-2.1849,-2.2217,-2.2715,-2.3463,-2.4217,-2.4979,-2.5304,-2.5639,-2.5914,-2.5973,-2.6273,-2.6668,-2.6251,-2.6181,-2.6368,-2.6234,-2.6011,-2.5812,-2.5958,-2.5984,-2.5824,-2.5766,-2.5992,-2.6171,-2.6013,-2.6087,-2.6225,-2.6188,-2.594,-2.5476,-2.483,-2.3798,-2.2682,-2.1904,-2.1264,-2.0617,-2.0002,-2.028,-2.039,-1.9643,-1.9324,-1.9083,-1.8672,-1.8123,-1.799,-1.8948,-1.8603,-1.8398,-1.908,-1.8219,-1.7519,-1.7576,-1.7529,-1.7653,-1.8082,-1.74,-1.7098,-1.7532,-1.729,-1.7039,-1.6869,-1.7253,-1.749,-1.7543,-1.7893,-1.8106,-1.831,-1.8358,-1.7954,-1.7027,-1.7181,-1.6775,-1.5768,-1.5836,-1.5628,-2.2584,-2.2796,-2.2542,-2.2616,-2.0806,-1.8579,0.0,0.0,-1.2842,-1.1644,-1.0996,-1.058,-1.0214,-0.9838,-0.9396,-0.8932,-0.8964,-0.9344,-1.0116,-1.1567,-1.3064,-1.4427,0.0,-1.606,-1.6092,-1.8224,-2.0017,-2.1389,-2.1418,-2.1651,-2.2353,-2.2244,-2.2465,-2.2954,-2.2651,-2.2411,-2.2103,-2.2798,-2.3268,-2.3388,-2.4111,-2.486,-2.5513,-2.592,-2.6255,-2.6611,-2.6725,-2.6691,-2.6462,-2.6483,-2.6371,-2.6112,-2.645,-2.6446,-2.6251,-2.65,-2.6375,-2.6138,-2.6149,-2.609,-2.6116,-2.5981,-2.6042,-2.6107,-2.5932,-2.5592,-2.5162,-2.4422,-2.2883,-2.1365,-2.1199,-2.0643,-2.0233,-2.0334,-2.0662,-2.0766,-2.0075,-1.9668,-1.936,-1.8987,-1.8328,-1.8167,-1.9417,-1.8742,-1.8249,-1.8771,-1.7797,-1.7012,-1.7037,-1.7166,-1.7533,-1.807,-1.7675,-1.7688,-1.8374,-1.8343,-1.8127,-1.7799,-1.8518,-1.871,-1.8176,-1.8806,-1.9044,-1.8641,-1.8614,-1.8081,-1.709,-1.6738,-1.6182,-1.5282,-1.5221,-1.5005,-2.096,-2.1832,-2.2092,-2.1401,-1.9979,-1.8124,0.0,-1.4698,-1.338,-1.111,-1.1606,-1.2004,-1.0584,-0.9758,-0.9355,-0.9557,-0.9663,-0.9765,-0.9971,-1.248,-1.3918,0.0,-1.5299,-1.6746,-1.6048,-1.8087,-1.9932,-2.1007,-2.1264,-2.1651,-2.2353,-2.2432,-2.2679,-2.3207,-2.3227,-2.3062,-2.291,-2.4161,-2.4477,-2.3919,-2.5445,-2.6257,-2.6517,-2.7185,-2.751,-2.7476,-2.736,-2.7058,-2.6755,-2.7136,-2.6996,-2.6609,-2.6962,-2.6919,-2.6611,-2.642,-2.6278,-2.6087,-2.6074,-2.6154,-2.6091,-2.5568,-2.5391,-2.5301,-2.487,-2.4874,-2.4694,-2.2771,-2.1259,-2.0246,-2.0461,-2.0347,-2.0283,-2.0599,-2.0848,-2.0837,-2.03,-1.9975,-1.9792,-1.9686,-1.8767,-1.8604,-2.0564,-1.9107,-1.7986,-1.885,-1.7567,-1.6492,-1.6441,-1.6525,-1.6979,-1.7909,-1.7625,-1.7845,-1.8891,-1.8987,-1.8758,-1.8229,-1.8815,-1.8697,-1.7642,-1.8612,-1.8746,-1.7721,-1.7947,-1.771,-1.6821,-1.6087,-1.5495,-1.5008,-1.44,-1.4097,-1.8762,-1.9259,-1.9431,-1.904,-1.7582,-1.5951,-1.4989,-1.3853,-1.2761,-1.1874,-1.1874,-1.1739,-1.0814,-1.0528,-1.0306,-0.996,-0.984,-1.0226,0.0,0.0,0.0,-1.5826,-1.7467,-1.8669,-1.9194,-1.9541,-2.0305,-2.1646,-2.1854,-2.2008,-2.2176,-2.253,-2.2911,-2.3391,-2.3574,-2.3688,-2.3783,-2.4495,-2.4886,-2.5115,-2.604,-2.66,-2.7044,-2.6851,-2.7132,-2.7596,-2.6769,-2.6536,-2.6721,-2.692,-2.6622,-2.6165,-2.6723,-2.6825,-2.6628,-2.6547,-2.6557,-2.6556,-2.6144,-2.6002,-2.5859,-2.5188,-2.5024,-2.4878,-2.4011,-2.3576,-2.3008,-2.1515,-2.0666,-2.0233,-2.0296,-2.0347,-2.0448,-2.0562,-2.0848,-2.097,-2.0381,-2.0066,-1.9787,-1.9388,-1.8659,-1.8248,-1.8629,-1.8235,-1.7691,-1.7337,-1.6908,-1.6623,-1.6546,-1.6572,-1.6847,-1.7531,-1.7459,-1.77,-1.8386,-1.8032,-1.7757,-1.7676,-1.7783,-1.7735,-1.7484,-1.7808,-1.7873,-1.7451,-1.7289,-1.6828,-1.6077,-1.5818,-1.5409,-1.4821,-1.399,-1.3546,0.0,-1.6821,-1.725,-1.6742,-1.5824,0.0,-1.4321,-1.358,-1.2764,-1.1925,-1.2,-1.1914,-1.1058,-1.1027,-1.0973,-1.053,-1.0444,-1.0799,0.0,0.0,0.0,-1.7078,-1.8272,-1.9301,-2.0381,-2.0669,-2.1194,-2.2058,-2.2277,-2.2362,-2.2362,-2.2539,-2.2969,-2.359,-2.4013,-2.4299,-2.4597,-2.5147,-2.5632,-2.6112,-2.6418,-2.6853,-2.7356,-2.6752,-2.6887,-2.7496,-2.6554,-2.6357,0.0,-2.698,-2.6744,-2.6295,-2.6997,-2.7012,-2.6706,-2.6674,-2.645,-2.609,-2.5948,-2.572,-2.5354,-2.4967,-2.4577,-2.4002,-2.2909,-2.2408,-2.1934,-2.0878,-2.0485,-2.0385,-2.0448,-2.0562,-2.0675,-2.0662,-2.1033,-2.111,-2.024,-2.0038,-1.9861,-1.9224,-1.8643,-1.8287,-1.8341,-1.8122,-1.7695,-1.6954,-1.6954,-1.7037,-1.6918,-1.6966,-1.7171,-1.7652,-1.7352,-1.7243,-1.758,-1.7398,-1.7242,-1.7135,-1.7255,-1.7183,-1.6869,-1.7478,-1.7552,-1.7008,-1.6957,-1.647,-1.554,-1.5059,-1.4625,-1.4233,-1.343,-1.3097,0.0,-1.4601,-1.5387,-1.4684,-1.4486,-1.4362,-1.3793,-1.3668,0.0,-1.1436,-1.2014,-1.2512,-1.1308,-1.1287,-1.1479,-1.1396,-1.1456,0.0,0.0,-1.3431,0.0,0.0,-1.8079,-1.8879,-1.9885,-2.141,-2.2271,-2.2217,-2.2563,-2.2784,-2.2843,-2.257,-2.2843,-2.3841,-2.4488,-2.4999,-2.5285,-2.6035,-2.6495,-2.6697,-2.6618,-2.6887,-2.7336,-2.6663,-2.6785,-2.7361,-2.6594,-2.6407,-2.6633,-2.7163,-2.7069,-2.6718,-2.7403,-2.7159,-2.6544,-2.6749,-2.6051,-2.5043,-2.5697,-2.5409,-2.4799,-2.4813,-2.3988,-2.277,-2.1732,-2.1471,-2.141,-2.0699,-2.0612,-2.0762,-2.0888,-2.0901,-2.0938,-2.0997,-2.1286,-2.1185,-1.989,-1.991,-1.9977,-1.9197,-1.867,-1.8562,-1.9206,-1.8583,-1.7816,-1.7365,-1.7414,-1.7484,-1.7352,-1.7412,-1.7642,-1.8025,-1.7207,-1.656,-1.657,-1.7015,-1.7087,-1.6548,-1.711,-1.7034,-1.6037,-1.7412,-1.7645,-1.65,-1.6814,-1.6385,-1.523,-1.3945,-1.3359,-1.3378,-1.2965,-1.2824,-1.226,0.0,-1.3456,-1.3193,-1.3066,-1.305,0.0,-1.2681,-1.2191,-1.1797,0.0,0.0,-1.1925,-1.2204,-1.2665,-1.3132,-1.3529,-1.3998,-1.452,-1.6346,0.0,-1.8557,-1.9436,-2.0068,-2.038,-2.1255,-2.1919,-2.2112,-2.2727,-2.2998,-2.3008,-2.2998,-2.3403,-2.4317,-2.4504,-2.4994,-2.5768,-2.6057,-2.6334,-2.6647,-2.6757,-2.6856,-2.6881,-2.6399,-2.6578,-2.7214,-2.5904,-2.5696,-2.6232,-2.6063,-2.5871,-2.5833,-2.6245,-2.6115,-2.5664,-2.6014,-2.5728,-2.5203,-2.5713,-2.573,-2.5315,-2.4406,-2.3173,-2.1842,-2.1367,-2.1326,-2.1313,-2.0723,-2.0736,-2.0947,-2.0947,-2.0961,-2.0997,-2.1131,-2.0927,-2.0588,-1.9898,-1.9998,-1.9851,-1.871,-1.8604,-1.8479,-1.7843,-1.7666,-1.7276,-1.6333,-1.6748,-1.7044,-1.681,-1.6541,-1.6539,-1.6931,-1.6727,-1.6416,-1.6008,-1.6092,-1.6104,-1.5984,-1.6137,-1.6089,-1.5848,-1.6185,-1.6325,-1.635,-1.5882,-1.532,-1.458,-1.3943,-1.3739,-1.4042,-1.3572,-1.3324,-1.2477,-1.2914,-1.3193,-1.2847,-1.3218,-1.3497,-1.303,0.0,0.0,0.0,0.0,0.0,0.0,0.0,0.0,-1.3947,-1.5065,0.0,0.0,0.0,-1.912,-1.9417,-2.0107,-2.0759,-2.1136,-2.1693,-2.2111,-2.231,-2.2863,-2.3258,-2.3271,-2.3547,-2.4026,-2.484,-2.4945,-2.5161,-2.5524,-2.587,-2.6163,-2.6339,-2.631,-2.6467,-2.6656,-2.5859,-2.592,-2.662,-2.5409,-2.523,-2.5794,-2.574,-2.5735,-2.5735,-2.606,-2.569,-2.5156,-2.5608,-2.5242,-2.4701,-2.5494,-2.542,-2.4791,-2.3839,-2.2616,-2.1471,-2.1326,-2.1277,-2.1229,-2.0848,-2.0848,-2.0997,-2.1082,-2.1082,-2.1131,-2.1277,-2.0914,-2.047,-1.9915,-1.9777,-1.9517,-1.85,-1.8522,-1.8392,-1.7374,-1.7529,-1.7347,-1.6001,-1.6623,-1.7227,-1.6991,-1.6614,-1.6611,-1.7267,-1.6644,-1.62,-1.6152,-1.6152,-1.6056,-1.5772,-1.576,-1.576,-1.576,-1.5881,-1.5944,-1.5863,-1.5204,-1.4553,-1.4048,-1.355,-1.3641,-1.4223,-1.37,-1.3561,-1.3215,-1.3789,-1.3971,-1.3273,-1.4138,-1.484,-1.3562,0.0,0.0,0.0,0.0,0.0,0.0,-1.5094,0.0,0.0,0.0,-1.7939,-1.8372,-1.9021,-1.9551,-1.9853,-2.042,-2.1004,-2.1675,-2.2145,-2.2411,-2.2504,-2.3144,-2.3576,-2.3587,-2.4019,-2.4511,-2.5178,-2.5355,-2.525,-2.5015,-2.5542,-2.5896,-2.5995,-2.5731,-2.5918,-2.6425,-2.5426,-2.5329,-2.5948,-2.5097,-2.4978,-2.5467,-2.5713,-2.5858,-2.5858,-2.5967,-2.5467,-2.4792,-2.5341,-2.4714,-2.3846,-2.5037,-2.4727,-2.3727,-2.3133,-2.2207,-2.1326,-2.1277,-2.1229,-2.1144,-2.0974,-2.0961,-2.1082,-2.118,-2.1229,-2.1277,-2.1423,-2.1056,-2.053,-2.0024,-1.9735,-1.9364,-1.8683,-1.8755,-1.8591,-1.7636,-1.7811,-1.7666,-1.6254,-1.6928,-1.7545,-1.7412,-1.711,-1.7218,-1.7989,-1.6955,-1.6272,-1.656,-1.6727,-1.656,-1.5825,-1.579,-1.5778,-1.5688,-1.5986,-1.5829,-1.5121,-1.4668,-1.4155,-1.3542,-1.3251,-1.3468,-1.4146,-1.3802,-1.3774,-1.3493,-1.4584,-1.5332,-1.4328,-1.4995,-1.5693,-1.5185,0.0,0.0,0.0,0.0,0.0,0.0,-1.6504,-1.6907,0.0,-1.8768,-1.9496,-2.007,-2.0117,-2.0105,-2.0153,-2.0417,-2.0824,-2.1218,-2.1794,-2.2271,-2.2367,-2.336,-2.4011,-2.4095,-2.4349,-2.4687,-2.5191,-2.504,-2.4747,-2.4414,-2.5301,-2.5669,-2.5604,-2.5576,-2.5583,-2.5535,-2.564,-2.5677,-2.5574,-2.4942,-2.4892,-2.5222,-2.5087,-2.5047,-2.5104,-2.486,-2.4373,-2.3883,-2.4744,-2.4274,-2.331,-2.3936,-2.3484,-2.2592,-2.2272,-2.1653,-2.0987,-2.0861,-2.0898,-2.1033,-2.0997,-2.1144,-2.1326,-2.1375,-2.1375,-2.1423,-2.1568,-2.1056,-2.056,-2.0557,-2.0598,-2.0484,-1.9875,-2.0045,-1.9935,-1.8831,-1.8367,-1.7962,-1.7243,-1.7412,-1.7569,-1.7412,-1.7448,-1.7472,-1.752,-1.7724,-1.7508,-1.6644,-1.7448,-1.7446,-1.6185,-1.6208,-1.6115,-1.5645,-1.5522,-1.5023,-1.4133,-1.4553,-1.4276,-1.3357,-1.3949,-1.4295,-1.4414,-1.435,-1.4359,-1.3867,-1.4937,-1.5806,-1.5389,-1.6074,-1.6786,-1.6541,-1.6132,0.0,0.0,0.0,0.0,0.0,0.0,-1.9415,-2.0429,-2.0672,-2.078,-2.0745,-2.0895,-2.087,-2.0485,-2.0448,-2.0632,-2.1174,-2.1441,-2.1797,-2.2205,-2.3127,-2.3693,-2.377,-2.4196,-2.4637,-2.493,-2.4779,-2.467,-2.443,-2.5036,-2.5263,-2.5228,-2.5296,-2.5401,-2.549,-2.5507,-2.555,-2.5508,-2.5149,-2.5082,-2.515,-2.4918,-2.4721,-2.4593,-2.4465,-2.4002,-2.3518,-2.3707,-2.331,-2.2703,-2.3299,-2.2769,-2.1835,-2.2022,-2.1539,-2.0961,-2.0898,-2.1033,-2.1229,-2.1229,-2.1277,-2.1423,-2.1423,-2.1423,-2.1423,-2.1471,-2.0962,-2.0541,-2.0574,-2.0511,-2.0329,-1.9965,-2.0211,-2.0093,-1.8956,-1.8643,-1.8264,-1.7496,-1.7472,-1.7581,-1.7808,-1.7653,-1.7689,-1.8205,-1.7977,-1.7651,-1.7361,-1.7828,-1.7561,-1.6338,-1.6263,-1.587,-1.5007,-1.493,-1.4395,-1.3323,-1.3792,-1.3825,-1.3296,-1.3882,-1.4227,-1.4387,-1.4455,-1.4455,-1.425,-1.5187,-1.6006,-1.6371,0.0,-1.7813,-1.8021,-1.7849,0.0,0.0,0.0,0.0,0.0,-2.025,-2.1051,-2.1655,-2.1718,-2.1566,-2.1249,-2.1617,-2.1658,-2.0909,-2.069,-2.0762,-2.1138,-2.1205,-2.1512,-2.2101,-2.2877,-2.334,-2.3358,-2.4143,-2.453,-2.4503,-2.457,-2.4657,-2.4476,-2.4659,-2.4818,-2.4945,-2.5002,-2.516,-2.5369,-2.5179,-2.5088,-2.5133,-2.5056,-2.5051,-2.5084,-2.4851,-2.4593,-2.4452,-2.4089,-2.3625,-2.3051,-2.249,-2.2111,-2.2005,-2.2398,-2.1837,-2.1024,-2.1613,-2.1499,-2.112,-2.1,-2.1238,-2.1502,-2.1367,-2.1375,-2.1423,-2.1423,-2.1423,-2.1423,-2.1423,-2.107,-2.0745,-2.0745,-2.0562,-2.0381,-2.0247,-2.0386,-2.022,-1.9253,-1.894,-1.8598,-1.787,-1.7676,-1.7796,-1.8326,-1.8037,-1.8097,-1.8903,-1.8214,-1.7802,-1.7949,-1.7826,-1.7303,-1.6328,-1.6165,-1.5615,-1.4457,-1.4395,-1.4001,-1.313,-1.3259,-1.3383,-1.3433,-1.3837,-1.4136,-1.4336,-1.4446,-1.4455,-1.4673,-1.5379,-1.6327,-1.7255,-1.7899,0.0,-1.9887,-1.9831,0.0,-2.1459,0.0,0.0,0.0,-2.0087,-2.0109,-2.0787,-2.1203,-2.1674,-2.194,-2.2262,-2.2193,-2.162,-2.1501,-2.1411,-2.1245,-2.1359,-2.1731,-2.2327,-2.3188,-2.3612,-2.3425,-2.4359,-2.457,-2.3798,-2.4323,-2.4464,-2.4258,-2.4131,-2.4331,-2.4778,-2.4807,-2.4762,-2.4586,-2.4469,-2.4304,-2.4007,-2.4281,-2.4545,-2.4788,-2.4607,-2.4694,-2.4838,-2.3441,-2.267,-2.2169,-2.1154,-2.0953,-2.1109,-2.0727,-2.0312,-2.0005,-2.0631,-2.1105,-2.1406,-2.0996,-2.1345,-2.1776,-2.1341,-2.1277,-2.1423,-2.1423,-2.1423,-2.1423,-2.1568,-2.1527,-2.15,-2.15,-2.1602,-2.1622,-2.1479,-2.128,-2.0953,-2.0356,-1.9546,-1.8946,-1.8911,-1.8458,-1.8338,-1.8867,-1.8903,-1.8903,-1.8987,-1.8821,-1.8478,-1.7961,-1.7368,-1.6735,-1.6212,-1.6166,-1.5607,-1.4528,-1.4042,-1.3838,-1.4017,-1.3534,-1.3497,-1.3837,-1.4258,-1.4488,-1.4515,-1.4515,-1.4506,-1.5112,-1.5837,-1.6807,-1.7542,-1.851,0.0,0.0,-2.071,-2.0973,-2.2017,-2.2564,0.0,0.0,-2.1819,-2.1466,-2.2625,-2.2197,-2.1911,-2.2602,-2.2771,-2.2646,-2.2403,-2.212,-2.2036,-2.2175,-2.2126,-2.2327,-2.2927,-2.3449,-2.3678,-2.3522,-2.4039,-2.4236,-2.3821,-2.4033,-2.41,-2.3883,-2.3945,-2.4058,-2.4133,-2.402,-2.4109,-2.4343,-2.444,-2.4529,-2.4708,-2.4919,-2.5037,-2.501,-2.4567,-2.4247,-2.3917,-2.2769,-2.1882,-2.1158,-2.0873,-2.0515,-2.0253,-2.0784,-2.0434,-1.9956,-2.0884,-2.1157,-2.1114,-2.099,-2.1206,-2.1475,-2.1345,-2.1375,-2.1423,-2.1423,-2.1423,-2.1423,-2.1471,-2.1471,-2.1471,-2.1471,-2.1568,-2.1554,-2.1153,-2.1104,-2.0809,-2.0067,-1.9584,-1.9265,-1.9069,-1.8819,-1.8758,-1.8963,-1.8946,-1.8893,-1.8893,-1.8691,-1.8356,-1.7843,-1.7323,-1.6645,-1.5639,-1.5852,-1.5502,-1.4437,-1.4131,-1.3836,-1.3626,-1.3663,-1.367,-1.3693,-1.4187,-1.4327,-1.4198,-1.4198,-1.4198,-1.577,-1.6404,-1.7205,0.0,0.0,0.0,-2.1349,-2.1665,-2.1934,-2.2929,-2.3156,-2.3382,-2.4073,-2.2915,-2.225,-2.3446,-2.2827,-2.2467,-2.3178,-2.3072,-2.2925,-2.3094,-2.2633,-2.236,-2.2671,-2.2518,-2.2628,-2.3224,-2.34,-2.3422,-2.353,-2.3698,-2.379,-2.367,-2.3731,-2.3789,-2.3629,-2.3647,-2.3645,-2.3615,-2.3477,-2.3617,-2.4091,-2.416,-2.4447,-2.4866,-2.4728,-2.4741,-2.486,-2.4021,-2.3289,-2.2619,-2.1706,-2.0957,-2.0388,-2.0435,-2.0092,-1.9736,-2.0563,-2.0367,-1.9969,-2.0923,-2.1171,-2.1062,-2.1,-2.1215,-2.1421,-2.1415,-2.1423,-2.1423,-2.1423,-2.1423,-2.1423,-2.1471,-2.1471,-2.1471,-2.1471,-2.1458,-2.1299,-2.0908,-2.0646,-2.0346,-1.9708,-1.9512,-1.9303,-1.8999,-1.8946,-1.8946,-1.8881,-1.8786,-1.8744,-1.8691,-1.853,-1.8139,-1.739,-1.7168,-1.6458,-1.5216,-1.5359,-1.5086,-1.4072,-1.4063,-1.3923,-1.3488,-1.3679,-1.3823,-1.3834,-1.4064,-1.4139,-1.401,-1.401,-1.401,-1.6873,-1.6954,-1.7377,0.0,0.0,0.0,-2.2426,-2.2909,-2.307,-2.4475,-2.3544,-2.2878,-2.4357,-2.2985,-2.1924,-2.2724,-2.3051,-2.3283,-2.3562,-2.3122,-2.2977,-2.3568,-2.2928,-2.247,-2.2456,-2.2402,-2.2628,-2.3298,-2.3,-2.2933,-2.3265,-2.3349,-2.3301,-2.3078,-2.3513,-2.3617,-2.3482,-2.3078,-2.3083,-2.3477,-2.3218,-2.3366,-2.3866,-2.3692,-2.3806,-2.4073,-2.3371,-2.3537,-2.4168,-2.2821,-2.1888,-2.12,-2.0185,-1.9862,-1.9953,-1.9543,-1.9497,-1.9607,-1.9751,-1.9799,-1.9891,-2.0515,-2.1028,-2.1433,-2.112,-2.1446,-2.183,-2.1488,-2.1423,-2.1423,-2.1423,-2.1423,-2.1423,-2.1568,-2.1616,-2.1616,-2.1616,-2.1299,-2.0944,-2.0795,-2.0156,-1.9617,-1.9617,-1.9251,-1.8946,-1.8798,-1.8798,-1.8744,-1.8614,-1.8614,-1.8572,-1.8422,-1.8422,-1.792,-1.6684,-1.657,-1.6114,-1.5088,-1.4834,-1.4352,-1.356,-1.3905,-1.4062,-1.3892,-1.3702,-1.3843,-1.4267,-1.4079,-1.401,-1.401,-1.401,-1.401,-1.8042,-1.8416,0.0,-2.0025,0.0,0.0,0.0,-2.2396,0.0,0.0,-2.4068,-2.399,-2.4933,-2.3722,-2.2756,-2.3313,-2.2587,-2.2291,-2.328,-2.3051,-2.3101,-2.3978,-2.353,-2.3217,-2.3525,-2.3497,-2.3677,-2.4116,-2.4062,-2.395,-2.3791,-2.3781,-2.3607,-2.3177,-2.3314,-2.3258,-2.3066,-2.2963,-2.2953,-2.3096,-2.3105,-2.3286,-2.3679,-2.3883,-2.389,-2.3781,-2.3415,-2.308,-2.2708,-2.1355,-2.0333,-1.953,-1.9271,-1.9106,-1.9019,-1.8909,-1.8986,-1.9126,-1.9172,-1.9232,-1.9383,-1.9913,-2.0214,-2.0496,-2.0868,-2.1103,-2.1309,-2.1367,-2.1423,-2.1423,-2.1423,-2.1423,-2.1423,-2.1471,-2.1471,-2.1471,-2.1471,-2.1153,-2.0746,-2.0295,-1.9901,-1.9448,-1.8987,-1.8893,-1.8786,-1.8679,-1.8679,-1.8625,-1.8476,-1.8464,-1.841,-1.8205,-1.8193,-1.7755,-1.6684,-1.6503,-1.5921,-1.4834,-1.4616,-1.4505,-1.4371,-1.4375,-1.4332,-1.4205,-1.4137,-1.4022,-1.3959,-1.389,-1.389,-1.389,-1.37,-1.37,-1.9073,-1.9435,0.0,-2.1038,-2.1607,-2.2101,-2.3047,0.0,0.0,0.0,-2.4767,-2.484,-2.5563,-2.4632,-2.3852,-2.3993,-2.3083,-2.2726,-2.3468,-2.2898,-2.2856,-2.4047,-2.3318,-2.2929,-2.3527,-2.3301,-2.3538,-2.4467,-2.385,-2.3607,-2.3979,-2.3591,-2.3293,-2.3107,-2.3161,-2.3107,-2.2894,-2.2738,-2.2714,-2.2799,-2.2807,-2.2936,-2.3179,-2.3482,-2.3502,-2.3173,-2.2773,-2.1988,-2.0952,-2.0026,-1.9327,-1.8747,-1.8434,-1.8447,-1.8593,-1.8673,-1.874,-1.8911,-1.8911,-1.9002,-1.9212,-1.9711,-1.9943,-2.0144,-2.086,-2.1033,-2.1033,-2.1326,-2.1423,-2.1423,-2.1423,-2.1423,-2.1423,-2.1423,-2.1423,-2.1423,-2.1423,-2.0908,-2.0396,-2.0042,-1.9592,-1.9081,-1.8667,-1.8679,-1.8679,-1.8518,-1.8452,-1.8356,-1.8313,-1.8259,-1.8193,-1.803,-1.8084,-1.7755,-1.6853,-1.6492,-1.5911,-1.5001,-1.4616,-1.4446,-1.4547,-1.4446,-1.4314,-1.4024,-1.4058,-1.4019,-1.383,-1.37,-1.37,-1.37,-1.3571,-1.3571,-1.9962,0.0,0.0,-2.1878,-2.2549,0.0,-2.3858,-2.4723,-2.5425,-2.5795,-2.548,-2.5399,-2.6237,-2.5624,-2.4884,-2.4602,-2.4167,-2.3924,-2.4043,-2.2787,-2.2391,-2.3746,-2.2584,-2.1988,-2.2786,-2.2383,-2.2774,-2.4281,-2.2913,-2.2576,-2.379,-2.3011,-2.2609,-2.2871,-2.3074,-2.3095,-2.2909,-2.2527,-2.2483,-2.2731,-2.247,-2.2389,-2.2457,-2.2773,-2.2665,-2.2161,-2.1576,-2.0523,-1.9113,-1.8844,-1.8697,-1.8585,-1.7727,-1.7796,-1.8452,-1.8498,-1.8597,-1.8754,-1.8754,-1.8831,-1.9027,-1.9634,-1.9872,-2.0065,-2.0828,-2.1042,-2.1033,-2.1326,-2.1375,-2.1423,-2.1423,-2.1423,-2.1375,-2.1313,-2.1361,-2.1375,-2.1313,-2.066,-1.9991,-1.994,-1.9174,-1.8614,-1.856,-1.856,-1.8506,-1.8367,-1.8205,-1.8084,-1.8084,-1.8084,-1.803,-1.7897,-1.803,-1.7799,-1.7056,-1.6539,-1.6026,-1.541,-1.4725,-1.4267,-1.4267,-1.4267,-1.4087,-1.3633,-1.3764,-1.3769,-1.3769,-1.3571,-1.3511,-1.3511,-1.3511,-1.3511,-2.0779,-2.0869,0.0,0.0,-2.3567,-2.3715,-2.3753,-2.4701,-2.5503,-2.5277,-2.5274,-2.5438,-2.6116,-2.5538,-2.4754,-2.4112,-2.4269,-2.4235,-2.3593,-2.2944,-2.28,-2.329,-2.2306,-2.1793,-2.2213,-2.2319,-2.2628,-2.327,-2.3036,-2.2968,-2.2989,-2.3023,-2.2889,-2.2541,-2.2776,-2.3021,-2.3078,-2.2748,-2.27,-2.2928,-2.2635,-2.2339,-2.2203,-2.2403,-2.1947,-2.0898,-2.0404,-1.9643,-1.8694,-1.835,-1.7974,-1.7664,-1.7206,-1.7102,-1.729,-1.745,-1.7535,-1.7565,-1.7565,-1.7663,-1.7866,-1.8359,-1.8858,-1.9423,-2.0038,-2.0625,-2.1033,-2.118,-2.1326,-2.1423,-2.1423,-2.1423,-2.1264,-2.0858,-2.1068,-2.1264,-2.0858,-2.0346,-1.9837,-1.9344,-1.8869,-1.8506,-1.8247,-1.8356,-1.8356,-1.8193,-1.8139,-1.8084,-1.8084,-1.8084,-1.8084,-1.8084,-1.7963,-1.7733,-1.7213,-1.6549,-1.5874,-1.5294,-1.4666,-1.4207,-1.4079,-1.407,-1.3974,-1.3758,-1.3786,-1.37,-1.3571,-1.3511,-1.3511,-1.3511,-1.3511,-1.3511,-2.0368,0.0,0.0,-2.3872,0.0,-2.4278,-2.4255,-2.4808,-2.5416,-2.5336,-2.5419,-2.5566,-2.6,-2.5399,-2.4719,-2.4085,-2.4409,-2.4552,-2.407,-2.3469,-2.3202,-2.3386,-2.2282,-2.1563,-2.171,-2.1632,-2.2023,-2.3045,-2.2612,-2.2462,-2.285,-2.2802,-2.2662,-2.2567,-2.254,-2.2643,-2.2984,-2.2329,-2.2169,-2.2441,-2.1852,-2.1368,-2.0901,-2.129,-2.0885,-1.9973,-1.9728,-1.9204,-1.8572,-1.8225,-1.7981,-1.7748,-1.7048,-1.6999,-1.729,-1.7135,-1.7157,-1.7199,-1.7199,-1.7253,-1.74,-1.7991,-1.8385,-1.874,-1.9443,-1.986,-2.0199,-2.0684,-2.086,-2.1023,-2.1293,-2.1423,-2.1264,-2.0709,-2.0809,-2.0858,-2.0359,-1.985,-1.9448,-1.9093,-1.8667,-1.8302,-1.8139,-1.8193,-1.8205,-1.8139,-1.8084,-1.8084,-1.8084,-1.8084,-1.8084,-1.8018,-1.7963,-1.7678,-1.7045,-1.6379,-1.5748,-1.5099,-1.4419,-1.4019,-1.389,-1.3821,-1.3761,-1.383,-1.37,-1.358,-1.3511,-1.3511,-1.3511,-1.3511,-1.3511,-1.3511,-1.9647,0.0,-2.3107,-2.4473,-2.4687,0.0,-2.4596,-2.4849,-2.5103,-2.534,-2.5526,-2.5682,-2.5815,-2.5313,-2.48,-2.4377,-2.472,-2.4956,-2.4838,-2.4103,-2.3616,-2.3499,-2.2094,-2.1147,-2.134,-2.0944,-2.1259,-2.2744,-2.194,-2.1726,-2.2546,-2.2285,-2.2213,-2.2455,-2.2129,-2.2184,-2.2698,-2.1725,-2.1459,-2.1898,-2.1049,-2.0308,-1.9656,-2.0118,-1.9965,-1.9368,-1.9368,-1.9162,-1.8758,-1.8471,-1.8339,-1.8163,-1.7365,-1.725,-1.7529,-1.7286,-1.7206,-1.7199,-1.7199,-1.7264,-1.7434,-1.8061,-1.8319,-1.8524,-1.9165,-1.9423,-1.9536,-2.0321,-2.0503,-2.0658,-2.1239,-2.1375,-2.1215,-2.061,-2.0459,-2.0308,-1.9798,-1.9291,-1.8987,-1.8881,-1.8452,-1.8084,-1.8084,-1.8084,-1.8084,-1.8084,-1.8084,-1.8084,-1.8084,-1.8084,-1.803,-1.7897,-1.7733,-1.7446,-1.6821,-1.6151,-1.5459,-1.4914,-1.4231,-1.3769,-1.3769,-1.3571,-1.3571,-1.3761,-1.3571,-1.3545,-1.3613,-1.3545,-1.3545,-1.3605,-1.3536,-1.3511,0.0,0.0,-2.3645,0.0,-2.4313,-2.4249,0.0,0.0,-2.4354,-2.4517,-2.5191,-2.5782,-2.5632,-2.5582,-2.5356,-2.4957,-2.5619,-2.5917,-2.531,-2.455,-2.3778,-2.3136,-2.1426,-2.0534,-2.1163,-2.0853,-2.0796,-2.1327,-2.1318,-2.1248,-2.111,-2.1416,-2.1594,-2.165,-2.1506,-2.1637,-2.2163,-2.1506,-2.1381,-2.1898,-2.1236,-2.0547,-1.9798,-1.9952,-1.9759,-1.9223,-1.9368,-1.9423,-1.9467,-1.9183,-1.8763,-1.8367,-1.8459,-1.7932,-1.717,-1.7726,-1.7643,-1.7199,-1.7199,-1.7539,-1.7996,-1.8074,-1.8767,-1.959,-1.9716,-2.0145,-2.0713,-2.0864,-2.0926,-2.0988,-2.1299,-2.1326,-2.1019,-2.0105,-1.9901,-1.9759,-1.9198,-1.904,-1.8827,-1.8302,-1.8139,-1.8084,-1.8084,-1.8084,-1.8084,-1.8084,-1.8084,-1.8084,-1.8084,-1.8018,-1.7909,-1.7897,-1.7168,-1.6719,-1.6765,-1.5623,-1.4824,-1.4706,-1.4121,-1.37,-1.3571,-1.3511,-1.3511,-1.3511,-1.3511,-1.3673,-1.4016,-1.3673,-1.3682,-1.4007,-1.3665,-1.3511,-2.1055,-2.211,-2.2908,0.0,-2.459,-2.4573,-2.3847,-2.4208,-2.4603,-2.4554,-2.5156,-2.566,-2.5512,-2.532,-2.5014,-2.4359,-2.5134,-2.56,-2.5036,-2.4455,-2.3855,-2.3422,-2.1952,-2.1035,-2.1169,-2.114,-2.107,-2.1104,-2.12,-2.1186,-2.0998,-2.12,-2.1313,-2.12,-2.0847,-2.0894,-2.1383,-2.0873,-2.0695,-2.0951,-2.0437,-1.9965,-1.9473,-1.9512,-1.93,-1.8875,-1.9017,-1.8933,-1.8734,-1.874,-1.8595,-1.8427,-1.8673,-1.8409,-1.7894,-1.8364,-1.8299,-1.7945,-1.8109,-1.8291,-1.8468,-1.85,-1.8885,-1.9303,-1.9303,-1.9533,-1.9856,-2.0316,-2.0457,-2.0523,-2.1051,-2.0983,-2.0573,-1.9862,-1.95,-1.9186,-1.8614,-1.8518,-1.841,-1.8139,-1.803,-1.8018,-1.8084,-1.803,-1.8018,-1.8084,-1.803,-1.7963,-1.7963,-1.7865,-1.7634,-1.7335,-1.6832,-1.6255,-1.5661,-1.4982,-1.441,-1.4043,-1.3752,-1.3571,-1.3511,-1.3511,-1.3511,-1.3511,-1.3511,-1.3596,-1.3768,-1.3596,-1.3708,-1.4093,-1.3922,-1.3956,0.0,0.0,-2.2095,-2.3585,-2.4322,-2.4475,0.0,0.0,-2.4538,-2.4478,-2.5082,-2.5544,-2.5358,-2.5092,-2.4748,-2.4226,-2.4684,-2.5128,-2.4988,-2.4362,-2.3818,-2.3666,-2.2308,-2.1369,-2.1319,-2.123,-2.116,-2.1093,-2.1102,-2.1076,-2.0914,-2.0999,-2.0936,-2.069,-2.0308,-2.0235,-2.0412,-2.0102,-1.9924,-1.9914,-1.9472,-1.9156,-1.8924,-1.9059,-1.8878,-1.8524,-1.8846,-1.8821,-1.8484,-1.8702,-1.8722,-1.8656,-1.9046,-1.8874,-1.8408,-1.8767,-1.8695,-1.8441,-1.8611,-1.8806,-1.9006,-1.9087,-1.9237,-1.9355,-1.9355,-1.9355,-1.9494,-2.0035,-2.0215,-2.0307,-2.0729,-2.0586,-2.022,-1.9604,-1.9198,-1.8827,-1.8247,-1.8084,-1.8084,-1.8084,-1.803,-1.7963,-1.8084,-1.7963,-1.7897,-1.8018,-1.7963,-1.7909,-1.7854,-1.7634,-1.7301,-1.6775,-1.6255,-1.5623,-1.4737,-1.4401,-1.4043,-1.3502,-1.3511,-1.3511,-1.3511,-1.3511,-1.3511,-1.3511,-1.3605,-1.3656,-1.3656,-1.3759,-1.3956,-1.4247,-1.4247,-1.4401,0.0,-2.0615,0.0,-2.2143,-2.2832,0.0,0.0,-2.3193,-2.3511,-2.3782,-2.4778,-2.5453,-2.5102,-2.5087,-2.5116,-2.5289,-2.4988,-2.4987,-2.5683,-2.4444,-2.3527,-2.3503,-2.1794,-2.09,-2.1588,-2.0961,-2.0646,-2.0966,-2.0779,-2.0461,-2.0104,-2.0335,-2.0356,-1.9859,-1.9952,-1.9795,-1.9402,-1.9245,-1.911,-1.9069,-1.8662,-1.8314,-1.8088,-1.8598,-1.8597,-1.8257,-1.9183,-1.9594,-1.9723,-1.9851,-1.9648,-1.9217,-2.0064,-1.9374,-1.7989,-1.8656,-1.8584,-1.8096,-1.814,-1.8845,-1.976,-1.976,-2.0126,-2.062,-2.062,-2.062,-2.062,-2.0785,-2.0772,-2.061,-2.0472,-2.0321,-2.0029,-1.9198,-1.8999,-1.8827,-1.8247,-1.8084,-1.8084,-1.8084,-1.8084,-1.8084,-1.8084,-1.7963,-1.7897,-1.7909,-1.7897,-1.7854,-1.7711,-1.7179,-1.6765,-1.6539,-1.5391,-1.4588,-1.4529,-1.3932,-1.3571,-1.3511,-1.3511,-1.3511,-1.3511,-1.3511,-1.3511,-1.3511,-1.3879,-1.4067,-1.4067,-1.4435,-1.4632,-1.4658,-1.4658,-1.4667,0.0,0.0,0.0,-2.2036,-2.2409,-2.2546,-2.2801,-2.2998,-2.3239,-2.3639,-2.4243,-2.4888,-2.5467,-2.5479,-2.5219,-2.4667,-2.4491,-2.4452,-2.458,-2.3565,-2.2936,-2.3218,-2.2003,-2.1198,-2.1327,-2.139,-2.1128,-2.0433,-2.0773,-2.0682,-2.0041,-2.0309,-2.0219,-1.9547,-1.9258,-1.8796,-1.8213,-1.8634,-1.8724,-1.849,-1.8172,-1.7989,-1.8001,-1.8548,-1.856,-1.8242,-1.8945,-1.8858,-1.8352,-1.9253,-1.906,-1.8405,-1.9992,-1.9716,-1.8494,-1.9217,-1.898,-1.8461,-1.9021,-1.9412,-1.9733,-2.0231,-2.0529,-2.0699,-2.0699,-2.0699,-2.0699,-2.0762,-2.0549,-2.0207,-2.0156,-1.9708,-1.9146,-1.856,-1.8344,-1.8224,-1.8018,-1.803,-1.8084,-1.8084,-1.8018,-1.7963,-1.7963,-1.7865,-1.7755,-1.7755,-1.7689,-1.7634,-1.759,-1.6944,-1.6312,-1.5864,-1.4991,-1.435,-1.3863,-1.3631,-1.3511,-1.3511,-1.3511,-1.3622,-1.3879,-1.3887,-1.4007,-1.4256,-1.4401,-1.4221,-1.3716,-1.4119,-1.4435,-1.4684,-1.4684,-1.4941,-1.9755,0.0,0.0,0.0,-2.1564,-2.1632,-2.2562,-2.2515,-2.2558,-2.354,-2.396,-2.4347,-2.5188,-2.5392,-2.5199,-2.4614,-2.4523,-2.4363,-2.4099,-2.3125,-2.2628,-2.3027,-2.1969,-2.1202,-2.1176,-2.132,-2.1052,-2.0275,-2.0665,-2.0655,-1.9964,-2.0167,-1.9973,-1.9221,-1.8385,-1.7904,-1.7738,-1.7928,-1.7976,-1.7856,-1.7529,-1.7396,-1.7501,-1.8062,-1.8207,-1.7999,-1.8742,-1.8654,-1.8071,-1.8948,-1.9019,-1.8669,-2.0057,-1.9963,-1.9076,-1.9608,-1.9409,-1.9042,-1.9621,-1.9882,-2.0067,-2.0531,-2.0699,-2.0699,-2.0699,-2.0599,-2.0485,-2.0485,-2.0118,-1.9747,-1.9527,-1.8975,-1.8356,-1.8041,-1.792,-1.7854,-1.7854,-1.792,-1.803,-1.7975,-1.7909,-1.7909,-1.7854,-1.77,-1.7645,-1.7645,-1.759,-1.7412,-1.7123,-1.6482,-1.5796,-1.5177,-1.4529,-1.3992,-1.3571,-1.3511,-1.3571,-1.3699,-1.3579,-1.3742,-1.4273,-1.4161,-1.4281,-1.4675,-1.4804,-1.4547,-1.3772,-1.4217,-1.4538,-1.4618,-1.4865,-1.518,0.0,0.0,0.0,0.0,0.0,-2.0603,-2.2271,-2.1735,-2.1417,-2.3362,-2.3807,-2.3974,-2.4255,-2.4659,-2.5077,-2.5313,-2.5063,-2.4694,-2.435,-2.3327,-2.2713,-2.3062,-2.1777,-2.0936,-2.126,-2.0734,-2.0449,-2.0598,-2.0527,-2.0309,-1.985,-1.9891,-1.9559,-1.876,-1.7439,-1.7081,-1.7915,-1.7093,-1.6841,-1.7182,-1.671,-1.6522,-1.6534,-1.7112,-1.7453,-1.7568,-1.8697,-1.9192,-1.9217,-1.923,-1.9584,-2.0207,-2.0398,-2.0112,-1.9594,-1.9738,-1.9773,-1.976,-1.9773,-2.0152,-2.0686,-2.0699,-2.0699,-2.0699,-2.0699,-2.0372,-1.9991,-1.9991,-1.9708,-1.9251,-1.8643,-1.8116,-1.7711,-1.7711,-1.7711,-1.7711,-1.7711,-1.781,-1.7854,-1.7711,-1.781,-1.7854,-1.7711,-1.759,-1.7523,-1.7468,-1.7468,-1.7179,-1.6425,-1.5843,-1.5264,-1.4588,-1.3932,-1.3511,-1.3511,-1.3519,-1.3682,-1.4059,-1.3742,-1.3887,-1.4658,-1.4324,-1.4316,-1.4709,-1.5043,-1.4967,-1.442,-1.4976,-1.49,-1.4437,-1.516,-1.5426,-1.9711,0.0,0.0,0.0,0.0,0.0,-2.1271,-2.0877,-2.0738,-2.2813,-2.2999,-2.3216,-2.4563,-2.4708,-2.4646,-2.4739,-2.4671,-2.4586,-2.4341,-2.3754,-2.3115,-2.2594,-2.1916,-2.1243,-2.058,-2.0692,-2.0697,-2.0333,-2.0655,-2.0552,-1.9823,-1.9019,-1.8301,-1.7816,-1.707,-1.6602,-1.6327,-1.6498,-1.6523,-1.6465,-1.6467,-1.6522,-1.6534,-1.7175,-1.744,-1.7446,-1.8163,-1.8788,-1.9377,-1.9898,-2.001,-1.9804,-2.0393,-1.9999,-1.9113,-1.9159,-1.8911,-1.8623,-1.9015,-1.9538,-2.0113,-2.0568,-2.0699,-2.0649,-2.0321,-2.0105,-1.994,-1.9656,-1.9263,-1.8839,-1.8224,-1.7963,-1.7799,-1.7711,-1.7656,-1.759,-1.759,-1.7579,-1.7634,-1.7711,-1.7711,-1.77,-1.759,-1.7523,-1.7479,-1.7379,-1.6955,-1.6539,-1.6301,-1.5449,-1.4697,-1.4529,-1.3932,-1.3511,-1.3511,-1.3768,-1.3853,-1.3682,-1.411,-1.4461,-1.4675,-1.4829,-1.5086,-1.5489,-1.5309,-1.5095,-1.4993,-1.5095,-1.5019,-1.479,-1.5278,-1.5497,0.0,0.0,0.0,-2.138,0.0,0.0,-2.1831,-2.1029,-2.0505,-2.2624,-2.2555,-2.2425,-2.3655,-2.3911,-2.3996,-2.3981,-2.4091,-2.4118,-2.3973,-2.3638,-2.3129,-2.2324,-2.1732,-2.1076,-2.0335,-2.0565,-2.062,-2.0335,-2.0746,-2.063,-1.9787,-1.8485,-1.7618,-1.7239,-1.6753,-1.626,-1.5836,-1.6188,-1.6473,-1.6709,-1.6548,-1.6647,-1.6886,-1.6992,-1.7213,-1.7478,-1.8092,-1.878,-1.9438,-2.0265,-2.0224,-1.9716,-2.0165,-1.9734,-1.8911,-1.8911,-1.8702,-1.8479,-1.8793,-1.9303,-1.9865,-2.0191,-2.0502,-2.0599,-2.0156,-1.9724,-1.9395,-1.919,-1.8732,-1.8259,-1.792,-1.7755,-1.7645,-1.7545,-1.749,-1.7368,-1.7148,-1.728,-1.7423,-1.7545,-1.7601,-1.759,-1.7423,-1.7423,-1.7312,-1.6909,-1.6549,-1.613,-1.5623,-1.4932,-1.441,-1.4112,-1.39,-1.3682,-1.3519,-1.4024,-1.4247,-1.4016,-1.4427,-1.4829,-1.5137,-1.5189,-1.5403,-1.5788,-1.5504,-1.5316,-1.5169,-1.5146,-1.5017,-1.4899,-1.5043,-1.5141,0.0,0.0,0.0,-2.3098,-2.2227,0.0,-2.3091,-2.171,-2.0645,-2.2606,-2.2175,-2.1597,-2.2098,-2.2678,-2.3105,-2.3173,-2.3332,-2.354,-2.3543,-2.3299,-2.2871,-2.2187,-2.1427,-2.0787,-2.0445,-2.0411,-2.0422,-2.0472,-2.0723,-2.0522,-1.9738,-1.8324,-1.7399,-1.711,-1.663,-1.6284,-1.6171,-1.6328,-1.6752,-1.7463,-1.6886,-1.6848,-1.7262,-1.6748,-1.6867,-1.7543,-1.8252,-1.8922,-1.9487,-2.025,-2.0296,-1.9904,-1.9904,-1.9525,-1.9002,-1.9002,-1.8963,-1.8911,-1.8911,-1.9251,-1.9708,-1.9708,-2.0087,-2.0495,-2.0067,-1.9346,-1.8668,-1.8655,-1.8247,-1.7822,-1.7755,-1.7545,-1.7334,-1.7379,-1.729,-1.7071,-1.6612,-1.683,-1.7136,-1.718,-1.7335,-1.7423,-1.7334,-1.7278,-1.7088,-1.6425,-1.6255,-1.5796,-1.4647,-1.441,-1.4172,-1.3571,-1.3819,-1.3905,-1.3596,-1.4256,-1.4684,-1.4684,-1.4761,-1.5086,-1.5711,-1.5446,-1.5446,-1.5797,-1.5576,-1.5355,-1.5204,-1.5013,-1.4891,-1.4935,-1.4713,-1.4641,-2.414,-2.4536,-2.5209,-2.3897,-2.3685,0.0,-2.2534,-2.1771,-2.1363,-2.1694,-2.1071,-2.0679,-2.1289,-2.1855,-2.2255,-2.2315,-2.2622,-2.3128,-2.3886,-2.3727,-2.316,-2.219,-2.1862,-2.1405,-2.0616,-2.0575,-2.0673,-2.0885,-2.0472,-2.0064,-1.9738,-1.8424,-1.7747,-1.771,-1.7422,-1.7266,-1.7277,-1.7431,-1.7634,-1.7875,-1.743,-1.7024,-1.6685,-1.667,-1.7023,-1.7613,-1.8172,-1.8887,-1.9571,-1.9736,-2.0031,-2.0393,-2.0492,-2.0139,-1.963,-1.963,-1.9316,-1.8911,-1.8911,-1.8989,-1.9081,-1.9081,-1.9486,-1.9921,-1.9455,-1.9232,-1.8936,-1.8159,-1.8139,-1.8398,-1.8224,-1.7799,-1.7523,-1.7897,-1.7267,-1.6645,-1.6535,-1.6306,-1.623,-1.659,-1.7049,-1.7334,-1.7278,-1.7278,-1.7088,-1.6425,-1.5921,-1.5342,-1.4588,-1.4052,-1.3631,-1.3502,-1.3579,-1.3716,-1.3956,-1.441,-1.4684,-1.4684,-1.5249,-1.5506,-1.5334,-1.5557,-1.572,-1.5805,-1.5576,-1.5292,-1.4935,-1.4934,-1.5005,-1.5133,-1.4927,-1.4864,-2.6299,-2.6458,-2.6776,-2.5397,-2.4949,0.0,0.0,-2.272,-2.2465,-2.2905,-2.2011,-2.1429,-2.2337,-2.2245,-2.2125,-2.2361,-2.2512,-2.2626,-2.2727,-2.2883,-2.2595,-2.1539,-2.118,-2.0828,-2.028,-2.024,-2.0338,-2.0737,-2.0588,-2.02,-1.9533,-1.8694,-1.8105,-1.7774,-1.7505,-1.7405,-1.738,-1.771,-1.7941,-1.8084,-1.7305,-1.7144,-1.7415,-1.6916,-1.7359,-1.8508,-1.8567,-1.8935,-1.9484,-1.9344,-1.9396,-1.9568,-1.9439,-1.9015,-1.8545,-1.8845,-1.8571,-1.8127,-1.8702,-1.8911,-1.8911,-1.8911,-1.9316,-1.9703,-1.9315,-1.9245,-1.9137,-1.8389,-1.8295,-1.8452,-1.8333,-1.7854,-1.7357,-1.731,-1.6904,-1.6393,-1.5913,-1.6,-1.6123,-1.6123,-1.67,-1.72,-1.7278,-1.7278,-1.7043,-1.6332,-1.5931,-1.5468,-1.4765,-1.4172,-1.3951,-1.4145,-1.4098,-1.4179,-1.4367,-1.4915,-1.5163,-1.4958,-1.5489,-1.5711,-1.5514,-1.5694,-1.5726,-1.5505,-1.5292,-1.5078,-1.4721,-1.4721,-1.4784,-1.4919,-1.4784,-1.4721,-2.8377,-2.8259,-2.811,-2.6968,-2.627,-2.5571,0.0,0.0,0.0,-2.4052,-2.3075,-2.2368,-2.3313,-2.2615,-2.207,-2.2505,-2.2313,-2.1976,-2.1541,-2.1728,-2.1581,-2.0681,-2.0188,-1.992,-1.99,-1.97,-1.9814,-2.0319,-2.0442,-2.014,-1.9361,-1.896,-1.8447,-1.7739,-1.7622,-1.7522,-1.7331,-1.7812,-1.8047,-1.7981,-1.7112,-1.7144,-1.7979,-1.7257,-1.767,-1.9054,-1.8874,-1.8913,-1.9136,-1.8858,-1.8585,-1.8377,-1.8304,-1.7957,-1.7591,-1.8074,-1.7944,-1.7643,-1.8466,-1.8754,-1.8728,-1.861,-1.8989,-1.9391,-1.9111,-1.9183,-1.9317,-1.8657,-1.8502,-1.8494,-1.8441,-1.7909,-1.7335,-1.6905,-1.6633,-1.6306,-1.5542,-1.5913,-1.6253,-1.5981,-1.6418,-1.697,-1.7256,-1.7278,-1.6987,-1.6228,-1.6104,-1.5768,-1.4942,-1.4478,-1.4333,-1.4666,-1.4562,-1.4547,-1.4769,-1.5274,-1.5445,-1.5334,-1.5547,-1.5726,-1.5726,-1.5726,-1.5505,-1.5133,-1.4999,-1.4792,-1.4569,-1.4569,-1.4569,-1.4569,-1.4569,-1.4569,-2.9283,-2.9569,-2.9737,-2.8142,-2.8007,-2.7542,-2.4605,0.0,-2.4148,-2.282,0.0,-2.2142,-2.2261,0.0,0.0,-2.2059,-2.1366,-2.0982,-2.1736,-2.0921,-2.0176,-1.999,-1.9336,-1.9128,-1.9744,-1.9236,-1.9111,-1.9754,-1.9101,-1.8877,-1.9297,-1.9152,-1.8783,-1.8172,-1.8449,-1.8338,-1.7724,-1.8024,-1.7906,-1.7302,-1.7345,-1.7137,-1.6635,-1.7264,-1.7677,-1.7939,-1.8526,-1.8565,-1.8239,-1.8218,-1.7878,-1.7486,-1.844,-1.8767,-1.8715,-1.878,-1.8767,-1.8662,-1.831,-1.8192,-1.81,-1.7565,-1.78,-1.8286,-1.8257,-1.8862,-1.9342,-1.8307,-1.863,-1.9198,-1.8869,-1.8278,-1.7831,-1.7915,-1.7187,-1.6492,-1.6383,-1.612,-1.597,-1.6181,-1.6428,-1.6743,-1.7202,-1.7043,-1.674,-1.6322,-1.6151,-1.57,-1.4706,-1.4469,-1.4385,-1.4176,-1.3827,-1.405,-1.5069,-1.4798,-1.4858,-1.5694,-1.5471,-1.5355,-1.5505,-1.5355,-1.5141,-1.4935,-1.4935,-1.4792,-1.4569,-1.4569,-1.4569,-1.4569,-1.4569,-1.4569,-2.9486,-2.9506,-2.9466,-2.8261,-2.7748,-2.7048,-2.5187,-2.4919,-2.5095,-2.5229,0.0,0.0,0.0,0.0,0.0,0.0,-2.1662,-2.0959,-2.0257,-1.9782,-1.9646,-2.0088,-1.8977,-1.8185,-1.8221,-1.859,-1.8671,-1.8303,-1.8303,-1.8068,-1.7488,-1.781,-1.7688,-1.6963,-1.7456,-1.7659,-1.7471,-1.7947,-1.7881,-1.7318,-1.7068,-1.6999,-1.71,-1.7186,-1.7637,-1.8358,-1.8358,-1.8278,-1.8074,-1.7721,-1.7421,-1.7251,-1.7735,-1.7917,-1.7957,-1.831,-1.844,-1.8506,-1.8937,-1.9094,-1.8989,-1.8388,-1.8153,-1.8096,-1.799,-1.8359,-1.8738,-1.8499,-1.8133,-1.7879,-1.7979,-1.752,-1.7024,-1.6799,-1.6576,-1.6352,-1.6134,-1.6081,-1.6148,-1.6385,-1.6537,-1.6795,-1.7045,-1.7022,-1.6853,-1.6616,-1.6457,-1.6171,-1.5662,-1.5069,-1.4847,-1.5242,-1.46,-1.449,-1.5333,-1.5196,-1.5177,-1.5409,-1.5275,-1.5204,-1.5346,-1.5141,-1.5007,-1.4872,-1.4792,-1.4713,-1.4569,-1.4569,-1.4569,-1.4569,-1.4569,-1.4569,-2.9881,-2.9641,-2.9381,-2.8277,-2.7505,-2.6727,-2.5648,-2.5505,-2.5833,-2.6618,-2.5538,0.0,0.0,0.0,-2.2328,-2.2453,0.0,-2.0877,-1.9427,-1.9031,-1.9033,-1.9361,-1.836,-1.7448,-1.6987,-1.765,-1.7774,-1.7019,-1.7352,-1.7145,-1.6151,-1.6688,-1.6738,-1.6032,-1.6556,-1.6856,-1.699,-1.7447,-1.7493,-1.7105,-1.6722,-1.691,-1.7543,-1.7298,-1.7699,-1.8552,-1.8226,-1.8009,-1.7813,-1.7382,-1.7199,-1.7199,-1.7199,-1.7199,-1.7251,-1.7695,-1.7957,-1.8192,-1.8858,-1.9047,-1.8969,-1.8494,-1.8091,-1.7765,-1.7666,-1.7727,-1.7922,-1.8225,-1.758,-1.6842,-1.7071,-1.6901,-1.6585,-1.6099,-1.6287,-1.6494,-1.6253,-1.6331,-1.6515,-1.6613,-1.674,-1.6807,-1.6909,-1.6909,-1.6853,-1.6807,-1.6694,-1.6467,-1.6134,-1.542,-1.5144,-1.5606,-1.4962,-1.473,-1.535,-1.5263,-1.5176,-1.5054,-1.5062,-1.5062,-1.5062,-1.4935,-1.4792,-1.4792,-1.4641,-1.4569,-1.4569,-1.4569,-1.4569,-1.4569,-1.4569,-1.4569,-3.0791,-3.0501,-3.0075,-2.841,-2.7932,-2.7431,-2.5779,-2.5887,-2.6154,-2.5425,-2.5768,-2.5953,-2.503,-2.3975,-2.3122,-2.274,-2.1518,0.0,0.0,-1.9068,-1.8125,-1.7284,-1.7213,-1.7035,-1.655,-1.625,-1.6179,-1.6338,-1.5992,-1.588,-1.6087,-1.6415,-1.6449,-1.602,-1.6275,-1.643,-1.643,-1.6442,-1.6442,-1.643,-1.6602,-1.6935,-1.742,-1.774,-1.7886,-1.7956,-1.8057,-1.7761,-1.7225,-1.7212,-1.7199,-1.7199,-1.7199,-1.7199,-1.7199,-1.7212,-1.7591,-1.8022,-1.7473,-1.7206,-1.708,-1.6982,-1.6969,-1.6944,-1.6944,-1.6967,-1.7032,-1.7045,-1.705,-1.702,-1.6658,-1.6849,-1.7033,-1.6609,-1.6885,-1.7245,-1.7234,-1.7112,-1.6989,-1.6978,-1.6899,-1.6818,-1.6807,-1.6602,-1.6488,-1.6761,-1.6694,-1.6285,-1.5352,-1.5235,-1.5014,-1.4516,-1.4067,-1.422,-1.5105,-1.4751,-1.4493,-1.4617,-1.4792,-1.4792,-1.4641,-1.4641,-1.4641,-1.4641,-1.4569,-1.4569,-1.4569,-1.4569,-1.4569,-1.4569,-1.4569,-1.4569,-2.9921,-2.9621,-2.9447,-2.8916,-2.7941,-2.6975,-2.6454,-2.6436,-2.6427,-2.6119,-2.6209,-2.6198,-2.5687,-2.4873,-2.3832,-2.2467,-2.2154,-2.135,0.0,-1.8245,-1.7425,-1.6955,-1.7197,-1.7019,-1.6045,-1.5891,-1.5801,-1.5602,-1.5736,-1.5569,-1.494,-1.5885,-1.6242,-1.5761,-1.6089,-1.6621,-1.7304,-1.7082,-1.7172,-1.7593,-1.732,-1.7276,-1.7473,-1.7324,-1.7243,-1.7329,-1.7457,-1.7382,-1.7199,-1.7199,-1.7199,-1.7199,-1.7199,-1.7199,-1.7199,-1.7199,-1.7578,-1.8127,-1.8208,-1.7893,-1.747,-1.7439,-1.6997,-1.6509,-1.6448,-1.6122,-1.5786,-1.6033,-1.5728,-1.544,-1.5914,-1.5908,-1.5941,-1.6372,-1.6548,-1.671,-1.7013,-1.6965,-1.6864,-1.6864,-1.6751,-1.6694,-1.6694,-1.6545,-1.6488,-1.6637,-1.6534,-1.6294,-1.591,-1.5291,-1.4943,-1.5181,-1.4486,-1.4288,-1.4934,-1.468,-1.4514,-1.4633,-1.4641,-1.4641,-1.4569,-1.4569,-1.4569,-1.4569,-1.4569,-1.4569,-1.4569,-1.4569,-1.4569,-1.4649,-1.4887,-1.4871,-2.9921,-2.9611,-2.9494,-2.9236,-2.8348,-2.7421,-2.6846,-2.6889,-2.6919,-2.6572,-2.6435,-2.6327,-2.608,-2.537,-2.4181,-2.2331,-2.2222,-2.1461,0.0,-1.8058,-1.7544,-1.7,-1.7086,-1.6804,-1.5771,-1.5785,-1.5626,-1.5084,-1.5378,-1.5296,-1.4659,-1.5385,-1.5906,-1.6065,-1.6175,-1.6806,-1.7941,-1.7641,-1.7747,-1.8191,-1.7672,-1.7485,-1.7549,-1.7132,-1.7002,-1.7073,-1.7157,-1.7199,-1.7199,-1.7199,-1.7157,-1.7115,-1.7115,-1.7115,-1.7115,-1.7157,-1.7362,-1.7565,-1.7939,-1.7555,-1.7005,-1.7194,-1.671,-1.6057,-1.632,-1.5875,-1.5336,-1.5751,-1.5419,-1.5088,-1.5875,-1.5697,-1.5563,-1.6444,-1.6525,-1.645,-1.6869,-1.6864,-1.6818,-1.6818,-1.6637,-1.6524,-1.6581,-1.6477,-1.6431,-1.6534,-1.6566,-1.6412,-1.5885,-1.5444,-1.5069,-1.499,-1.4388,-1.4112,-1.4445,-1.4449,-1.445,-1.445,-1.4498,-1.4569,-1.4569,-1.4569,-1.4569,-1.4569,-1.4768,-1.4832,-1.4832,-1.4951,-1.4951,-1.4839,-1.5078,-1.499]}]]